<?xml version="1.0" encoding="UTF-8" standalone="no" ?>
<gpx xmlns="http://www.topografix.com/GPX/1/1" xmlns:xsi="http://www.w3.org/2001/XMLSchema-instance" xsi:schemaLocation="http://www.topografix.com/GPX/1/1 http://www.topografix.com/GPX/1/1/gpx.xsd" version="1.1" creator="VisuGPX - https://www.visugpx.com">
  <metadata>
    <name>AM dans les vosges</name>
    <desc><![CDATA[beau parcours avec descentes techniques typées all mountain/enduro, montées assez physiques, paysages et panoramas dignes de ce beau departement des vosges. attention nombreux marcheurs.]]></desc>
  </metadata>
  <trk>
    <name><![CDATA[ACTIVE LOG 037]]></name>
    <trkseg>
      <trkpt lat="48.03793" lon="6.97151">
        <ele>909.78125</ele>
        <time>2012-05-13T06:57:41Z</time>
      </trkpt>
      <trkpt lat="48.03805" lon="6.97154">
        <ele>910.6484375</ele>
        <time>2012-05-13T06:58:43Z</time>
      </trkpt>
      <trkpt lat="48.03806" lon="6.97149">
        <ele>910.671875</ele>
        <time>2012-05-13T07:01:33Z</time>
      </trkpt>
      <trkpt lat="48.03804" lon="6.97145">
        <ele>910.4140625</ele>
        <time>2012-05-13T07:01:42Z</time>
      </trkpt>
      <trkpt lat="48.03807" lon="6.97148">
        <ele>910.7265625</ele>
        <time>2012-05-13T07:02:02Z</time>
      </trkpt>
      <trkpt lat="48.03806" lon="6.97148">
        <ele>910.68359375</ele>
        <time>2012-05-13T07:04:07Z</time>
      </trkpt>
      <trkpt lat="48.03809" lon="6.97151">
        <ele>911.03515625</ele>
        <time>2012-05-13T07:04:11Z</time>
      </trkpt>
      <trkpt lat="48.03838" lon="6.97193">
        <ele>912.72265625</ele>
        <time>2012-05-13T07:04:30Z</time>
      </trkpt>
      <trkpt lat="48.03864" lon="6.97241">
        <ele>914.2421875</ele>
        <time>2012-05-13T07:04:49Z</time>
      </trkpt>
      <trkpt lat="48.03883" lon="6.97299">
        <ele>918.109375</ele>
        <time>2012-05-13T07:05:09Z</time>
      </trkpt>
      <trkpt lat="48.03917" lon="6.9735">
        <ele>922.5625</ele>
        <time>2012-05-13T07:05:32Z</time>
      </trkpt>
      <trkpt lat="48.03948" lon="6.97385">
        <ele>925.47265625</ele>
        <time>2012-05-13T07:05:49Z</time>
      </trkpt>
      <trkpt lat="48.03974" lon="6.97411">
        <ele>926.33984375</ele>
        <time>2012-05-13T07:06:02Z</time>
      </trkpt>
      <trkpt lat="48.04017" lon="6.97482">
        <ele>931.25</ele>
        <time>2012-05-13T07:06:27Z</time>
      </trkpt>
      <trkpt lat="48.04081" lon="6.97533">
        <ele>939.97265625</ele>
        <time>2012-05-13T07:06:52Z</time>
      </trkpt>
      <trkpt lat="48.04174" lon="6.97569">
        <ele>941.62890625</ele>
        <time>2012-05-13T07:07:22Z</time>
      </trkpt>
      <trkpt lat="48.04267" lon="6.9761">
        <ele>946.21875</ele>
        <time>2012-05-13T07:07:51Z</time>
      </trkpt>
      <trkpt lat="48.04347" lon="6.97627">
        <ele>947.1640625</ele>
        <time>2012-05-13T07:08:15Z</time>
      </trkpt>
      <trkpt lat="48.04455" lon="6.97622">
        <ele>947.86328125</ele>
        <time>2012-05-13T07:08:46Z</time>
      </trkpt>
      <trkpt lat="48.04538" lon="6.97623">
        <ele>950.03515625</ele>
        <time>2012-05-13T07:09:11Z</time>
      </trkpt>
      <trkpt lat="48.04613" lon="6.9761">
        <ele>951.55859375</ele>
        <time>2012-05-13T07:09:33Z</time>
      </trkpt>
      <trkpt lat="48.04683" lon="6.97584">
        <ele>949.7109375</ele>
        <time>2012-05-13T07:09:54Z</time>
      </trkpt>
      <trkpt lat="48.04756" lon="6.97585">
        <ele>955.31640625</ele>
        <time>2012-05-13T07:10:16Z</time>
      </trkpt>
      <trkpt lat="48.04765" lon="6.97584">
        <ele>955.7578125</ele>
        <time>2012-05-13T07:10:19Z</time>
      </trkpt>
      <trkpt lat="48.04771" lon="6.97569">
        <ele>955.02734375</ele>
        <time>2012-05-13T07:10:23Z</time>
      </trkpt>
      <trkpt lat="48.04783" lon="6.97478">
        <ele>955.55078125</ele>
        <time>2012-05-13T07:10:44Z</time>
      </trkpt>
      <trkpt lat="48.04787" lon="6.97393">
        <ele>960.015625</ele>
        <time>2012-05-13T07:11:05Z</time>
      </trkpt>
      <trkpt lat="48.04767" lon="6.97321">
        <ele>962.45703125</ele>
        <time>2012-05-13T07:11:26Z</time>
      </trkpt>
      <trkpt lat="48.04731" lon="6.97243">
        <ele>963.890625</ele>
        <time>2012-05-13T07:11:51Z</time>
      </trkpt>
      <trkpt lat="48.04725" lon="6.97181">
        <ele>968.76171875</ele>
        <time>2012-05-13T07:12:09Z</time>
      </trkpt>
      <trkpt lat="48.04738" lon="6.971">
        <ele>976.41796875</ele>
        <time>2012-05-13T07:12:32Z</time>
      </trkpt>
      <trkpt lat="48.04727" lon="6.97007">
        <ele>981.88671875</ele>
        <time>2012-05-13T07:12:57Z</time>
      </trkpt>
      <trkpt lat="48.04707" lon="6.96903">
        <ele>990.08984375</ele>
        <time>2012-05-13T07:13:23Z</time>
      </trkpt>
      <trkpt lat="48.04707" lon="6.96879">
        <ele>991.65625</ele>
        <time>2012-05-13T07:13:29Z</time>
      </trkpt>
      <trkpt lat="48.04727" lon="6.96824">
        <ele>994.01171875</ele>
        <time>2012-05-13T07:13:44Z</time>
      </trkpt>
      <trkpt lat="48.04732" lon="6.9683">
        <ele>993.9765625</ele>
        <time>2012-05-13T07:13:50Z</time>
      </trkpt>
      <trkpt lat="48.04728" lon="6.9684">
        <ele>993.89453125</ele>
        <time>2012-05-13T07:13:54Z</time>
      </trkpt>
      <trkpt lat="48.04728" lon="6.96847">
        <ele>993.8515625</ele>
        <time>2012-05-13T07:14:03Z</time>
      </trkpt>
      <trkpt lat="48.04734" lon="6.96854">
        <ele>993.87109375</ele>
        <time>2012-05-13T07:14:09Z</time>
      </trkpt>
      <trkpt lat="48.0474" lon="6.9686">
        <ele>993.91015625</ele>
        <time>2012-05-13T07:14:13Z</time>
      </trkpt>
      <trkpt lat="48.04746" lon="6.96862">
        <ele>994.97265625</ele>
        <time>2012-05-13T07:14:24Z</time>
      </trkpt>
      <trkpt lat="48.04752" lon="6.96865">
        <ele>995.97265625</ele>
        <time>2012-05-13T07:14:35Z</time>
      </trkpt>
      <trkpt lat="48.04765" lon="6.96868">
        <ele>998.375</ele>
        <time>2012-05-13T07:14:44Z</time>
      </trkpt>
      <trkpt lat="48.04771" lon="6.9687">
        <ele>999.390625</ele>
        <time>2012-05-13T07:14:47Z</time>
      </trkpt>
      <trkpt lat="48.04785" lon="6.96869">
        <ele>1002.23046875</ele>
        <time>2012-05-13T07:14:57Z</time>
      </trkpt>
      <trkpt lat="48.04806" lon="6.96862">
        <ele>1005.93359375</ele>
        <time>2012-05-13T07:15:11Z</time>
      </trkpt>
      <trkpt lat="48.04818" lon="6.96855">
        <ele>1007.86328125</ele>
        <time>2012-05-13T07:15:19Z</time>
      </trkpt>
      <trkpt lat="48.04837" lon="6.96804">
        <ele>1008.12109375</ele>
        <time>2012-05-13T07:15:37Z</time>
      </trkpt>
      <trkpt lat="48.04852" lon="6.96768">
        <ele>1009.23828125</ele>
        <time>2012-05-13T07:15:50Z</time>
      </trkpt>
      <trkpt lat="48.04853" lon="6.96765">
        <ele>1009.28125</ele>
        <time>2012-05-13T07:15:51Z</time>
      </trkpt>
      <trkpt lat="48.04857" lon="6.96721">
        <ele>1007.4375</ele>
        <time>2012-05-13T07:16:04Z</time>
      </trkpt>
      <trkpt lat="48.04875" lon="6.96663">
        <ele>1004.3515625</ele>
        <time>2012-05-13T07:16:16Z</time>
      </trkpt>
      <trkpt lat="48.04883" lon="6.96633">
        <ele>1001.8046875</ele>
        <time>2012-05-13T07:16:23Z</time>
      </trkpt>
      <trkpt lat="48.04916" lon="6.96573">
        <ele>999.703125</ele>
        <time>2012-05-13T07:16:37Z</time>
      </trkpt>
      <trkpt lat="48.04936" lon="6.96558">
        <ele>1001.96484375</ele>
        <time>2012-05-13T07:16:49Z</time>
      </trkpt>
      <trkpt lat="48.04937" lon="6.96558">
        <ele>1002.1875</ele>
        <time>2012-05-13T07:17:31Z</time>
      </trkpt>
      <trkpt lat="48.04941" lon="6.9656">
        <ele>1003.08984375</ele>
        <time>2012-05-13T07:17:34Z</time>
      </trkpt>
      <trkpt lat="48.04954" lon="6.96542">
        <ele>1003.39453125</ele>
        <time>2012-05-13T07:17:45Z</time>
      </trkpt>
      <trkpt lat="48.04982" lon="6.96504">
        <ele>1006.19140625</ele>
        <time>2012-05-13T07:18:04Z</time>
      </trkpt>
      <trkpt lat="48.04984" lon="6.96502">
        <ele>1006.44140625</ele>
        <time>2012-05-13T07:18:05Z</time>
      </trkpt>
      <trkpt lat="48.05004" lon="6.96479">
        <ele>1008.8359375</ele>
        <time>2012-05-13T07:18:19Z</time>
      </trkpt>
      <trkpt lat="48.0503" lon="6.96456">
        <ele>1013.34765625</ele>
        <time>2012-05-13T07:18:36Z</time>
      </trkpt>
      <trkpt lat="48.0505" lon="6.96414">
        <ele>1015.55859375</ele>
        <time>2012-05-13T07:18:53Z</time>
      </trkpt>
      <trkpt lat="48.05052" lon="6.96401">
        <ele>1014.9375</ele>
        <time>2012-05-13T07:18:57Z</time>
      </trkpt>
      <trkpt lat="48.05061" lon="6.96362">
        <ele>1016.5859375</ele>
        <time>2012-05-13T07:19:10Z</time>
      </trkpt>
      <trkpt lat="48.05074" lon="6.96324">
        <ele>1020.41796875</ele>
        <time>2012-05-13T07:19:24Z</time>
      </trkpt>
      <trkpt lat="48.05094" lon="6.96293">
        <ele>1026.03125</ele>
        <time>2012-05-13T07:19:38Z</time>
      </trkpt>
      <trkpt lat="48.05096" lon="6.96291">
        <ele>1026.5703125</ele>
        <time>2012-05-13T07:19:39Z</time>
      </trkpt>
      <trkpt lat="48.05117" lon="6.96265">
        <ele>1033.015625</ele>
        <time>2012-05-13T07:19:51Z</time>
      </trkpt>
      <trkpt lat="48.05122" lon="6.96244">
        <ele>1034.1015625</ele>
        <time>2012-05-13T07:19:58Z</time>
      </trkpt>
      <trkpt lat="48.0511" lon="6.96188">
        <ele>1035.0390625</ele>
        <time>2012-05-13T07:20:15Z</time>
      </trkpt>
      <trkpt lat="48.05101" lon="6.96134">
        <ele>1037.984375</ele>
        <time>2012-05-13T07:20:30Z</time>
      </trkpt>
      <trkpt lat="48.05104" lon="6.96088">
        <ele>1040.05859375</ele>
        <time>2012-05-13T07:20:44Z</time>
      </trkpt>
      <trkpt lat="48.05108" lon="6.96067">
        <ele>1041.1328125</ele>
        <time>2012-05-13T07:20:51Z</time>
      </trkpt>
      <trkpt lat="48.05113" lon="6.96048">
        <ele>1041.57421875</ele>
        <time>2012-05-13T07:20:57Z</time>
      </trkpt>
      <trkpt lat="48.05114" lon="6.96041">
        <ele>1041.40625</ele>
        <time>2012-05-13T07:20:59Z</time>
      </trkpt>
      <trkpt lat="48.05128" lon="6.96007">
        <ele>1042.79296875</ele>
        <time>2012-05-13T07:21:10Z</time>
      </trkpt>
      <trkpt lat="48.05135" lon="6.9599">
        <ele>1042.8359375</ele>
        <time>2012-05-13T07:21:16Z</time>
      </trkpt>
      <trkpt lat="48.0515" lon="6.95955">
        <ele>1043.921875</ele>
        <time>2012-05-13T07:21:28Z</time>
      </trkpt>
      <trkpt lat="48.05156" lon="6.95944">
        <ele>1044.7421875</ele>
        <time>2012-05-13T07:21:37Z</time>
      </trkpt>
      <trkpt lat="48.05156" lon="6.95948">
        <ele>1044.765625</ele>
        <time>2012-05-13T07:21:48Z</time>
      </trkpt>
      <trkpt lat="48.05155" lon="6.95946">
        <ele>1044.59375</ele>
        <time>2012-05-13T07:22:07Z</time>
      </trkpt>
      <trkpt lat="48.05156" lon="6.95947">
        <ele>1044.734375</ele>
        <time>2012-05-13T07:27:50Z</time>
      </trkpt>
      <trkpt lat="48.05156" lon="6.95947">
        <ele>1044.7890625</ele>
        <time>2012-05-13T07:28:05Z</time>
      </trkpt>
      <trkpt lat="48.05163" lon="6.95942">
        <ele>1046.33984375</ele>
        <time>2012-05-13T07:28:11Z</time>
      </trkpt>
      <trkpt lat="48.05187" lon="6.95913">
        <ele>1050.109375</ele>
        <time>2012-05-13T07:28:25Z</time>
      </trkpt>
      <trkpt lat="48.05211" lon="6.95887">
        <ele>1053.8671875</ele>
        <time>2012-05-13T07:28:38Z</time>
      </trkpt>
      <trkpt lat="48.05212" lon="6.95886">
        <ele>1054.25</ele>
        <time>2012-05-13T07:28:39Z</time>
      </trkpt>
      <trkpt lat="48.05216" lon="6.95883">
        <ele>1054.8203125</ele>
        <time>2012-05-13T07:28:41Z</time>
      </trkpt>
      <trkpt lat="48.05229" lon="6.95875">
        <ele>1056.98828125</ele>
        <time>2012-05-13T07:28:48Z</time>
      </trkpt>
      <trkpt lat="48.05253" lon="6.95848">
        <ele>1058.8046875</ele>
        <time>2012-05-13T07:28:59Z</time>
      </trkpt>
      <trkpt lat="48.05264" lon="6.95843">
        <ele>1060.015625</ele>
        <time>2012-05-13T07:29:04Z</time>
      </trkpt>
      <trkpt lat="48.05293" lon="6.95833">
        <ele>1063.5390625</ele>
        <time>2012-05-13T07:29:17Z</time>
      </trkpt>
      <trkpt lat="48.05306" lon="6.95811">
        <ele>1061.796875</ele>
        <time>2012-05-13T07:29:27Z</time>
      </trkpt>
      <trkpt lat="48.05318" lon="6.95806">
        <ele>1061.70703125</ele>
        <time>2012-05-13T07:29:32Z</time>
      </trkpt>
      <trkpt lat="48.05343" lon="6.95782">
        <ele>1061.890625</ele>
        <time>2012-05-13T07:29:45Z</time>
      </trkpt>
      <trkpt lat="48.05346" lon="6.95771">
        <ele>1062.25</ele>
        <time>2012-05-13T07:29:50Z</time>
      </trkpt>
      <trkpt lat="48.05353" lon="6.95764">
        <ele>1062.4609375</ele>
        <time>2012-05-13T07:29:54Z</time>
      </trkpt>
      <trkpt lat="48.0538" lon="6.95752">
        <ele>1061.21484375</ele>
        <time>2012-05-13T07:30:08Z</time>
      </trkpt>
      <trkpt lat="48.05387" lon="6.95751">
        <ele>1060.8359375</ele>
        <time>2012-05-13T07:30:11Z</time>
      </trkpt>
      <trkpt lat="48.05405" lon="6.95729">
        <ele>1060.97265625</ele>
        <time>2012-05-13T07:30:21Z</time>
      </trkpt>
      <trkpt lat="48.05407" lon="6.95726">
        <ele>1061.27734375</ele>
        <time>2012-05-13T07:30:23Z</time>
      </trkpt>
      <trkpt lat="48.05415" lon="6.95709">
        <ele>1062.6171875</ele>
        <time>2012-05-13T07:30:30Z</time>
      </trkpt>
      <trkpt lat="48.05415" lon="6.95696">
        <ele>1063.546875</ele>
        <time>2012-05-13T07:30:34Z</time>
      </trkpt>
      <trkpt lat="48.05418" lon="6.9568">
        <ele>1064.90625</ele>
        <time>2012-05-13T07:30:39Z</time>
      </trkpt>
      <trkpt lat="48.05425" lon="6.95662">
        <ele>1066.80078125</ele>
        <time>2012-05-13T07:30:45Z</time>
      </trkpt>
      <trkpt lat="48.05426" lon="6.95656">
        <ele>1067.40234375</ele>
        <time>2012-05-13T07:30:48Z</time>
      </trkpt>
      <trkpt lat="48.05437" lon="6.95641">
        <ele>1069.7421875</ele>
        <time>2012-05-13T07:30:56Z</time>
      </trkpt>
      <trkpt lat="48.05452" lon="6.95625">
        <ele>1072.765625</ele>
        <time>2012-05-13T07:31:07Z</time>
      </trkpt>
      <trkpt lat="48.05459" lon="6.95618">
        <ele>1073.9765625</ele>
        <time>2012-05-13T07:31:13Z</time>
      </trkpt>
      <trkpt lat="48.05468" lon="6.95621">
        <ele>1074.0703125</ele>
        <time>2012-05-13T07:31:29Z</time>
      </trkpt>
      <trkpt lat="48.05469" lon="6.95621">
        <ele>1074.07421875</ele>
        <time>2012-05-13T07:32:54Z</time>
      </trkpt>
      <trkpt lat="48.05481" lon="6.95617">
        <ele>1074.703125</ele>
        <time>2012-05-13T07:32:59Z</time>
      </trkpt>
      <trkpt lat="48.05509" lon="6.95599">
        <ele>1076.82421875</ele>
        <time>2012-05-13T07:33:05Z</time>
      </trkpt>
      <trkpt lat="48.05541" lon="6.95578">
        <ele>1077.07421875</ele>
        <time>2012-05-13T07:33:15Z</time>
      </trkpt>
      <trkpt lat="48.05545" lon="6.95577">
        <ele>1076.89453125</ele>
        <time>2012-05-13T07:33:17Z</time>
      </trkpt>
      <trkpt lat="48.05557" lon="6.95582">
        <ele>1075.6484375</ele>
        <time>2012-05-13T07:33:21Z</time>
      </trkpt>
      <trkpt lat="48.05565" lon="6.95589">
        <ele>1074.796875</ele>
        <time>2012-05-13T07:33:23Z</time>
      </trkpt>
      <trkpt lat="48.05609" lon="6.95606">
        <ele>1070.06640625</ele>
        <time>2012-05-13T07:33:31Z</time>
      </trkpt>
      <trkpt lat="48.05623" lon="6.95611">
        <ele>1068.51953125</ele>
        <time>2012-05-13T07:33:34Z</time>
      </trkpt>
      <trkpt lat="48.0564" lon="6.95608">
        <ele>1066.83203125</ele>
        <time>2012-05-13T07:33:38Z</time>
      </trkpt>
      <trkpt lat="48.05668" lon="6.95572">
        <ele>1065.08984375</ele>
        <time>2012-05-13T07:33:47Z</time>
      </trkpt>
      <trkpt lat="48.05677" lon="6.95554">
        <ele>1064.97265625</ele>
        <time>2012-05-13T07:33:51Z</time>
      </trkpt>
      <trkpt lat="48.05704" lon="6.95502">
        <ele>1063.75</ele>
        <time>2012-05-13T07:34:01Z</time>
      </trkpt>
      <trkpt lat="48.05715" lon="6.95464">
        <ele>1063.73828125</ele>
        <time>2012-05-13T07:34:10Z</time>
      </trkpt>
      <trkpt lat="48.05717" lon="6.95463">
        <ele>1063.29296875</ele>
        <time>2012-05-13T07:35:14Z</time>
      </trkpt>
      <trkpt lat="48.05719" lon="6.95447">
        <ele>1063.1875</ele>
        <time>2012-05-13T07:35:18Z</time>
      </trkpt>
      <trkpt lat="48.05729" lon="6.95402">
        <ele>1061.0625</ele>
        <time>2012-05-13T07:35:25Z</time>
      </trkpt>
      <trkpt lat="48.05731" lon="6.95385">
        <ele>1060.43359375</ele>
        <time>2012-05-13T07:35:27Z</time>
      </trkpt>
      <trkpt lat="48.05746" lon="6.95355">
        <ele>1056.53125</ele>
        <time>2012-05-13T07:35:31Z</time>
      </trkpt>
      <trkpt lat="48.05753" lon="6.95307">
        <ele>1052.296875</ele>
        <time>2012-05-13T07:35:35Z</time>
      </trkpt>
      <trkpt lat="48.05745" lon="6.95231">
        <ele>1047.0625</ele>
        <time>2012-05-13T07:35:41Z</time>
      </trkpt>
      <trkpt lat="48.05734" lon="6.9517">
        <ele>1041.9765625</ele>
        <time>2012-05-13T07:35:46Z</time>
      </trkpt>
      <trkpt lat="48.05726" lon="6.9508">
        <ele>1033.21875</ele>
        <time>2012-05-13T07:35:54Z</time>
      </trkpt>
      <trkpt lat="48.0573" lon="6.95023">
        <ele>1026.42578125</ele>
        <time>2012-05-13T07:36:01Z</time>
      </trkpt>
      <trkpt lat="48.05709" lon="6.94972">
        <ele>1022.05859375</ele>
        <time>2012-05-13T07:36:07Z</time>
      </trkpt>
      <trkpt lat="48.05681" lon="6.94933">
        <ele>1017.1328125</ele>
        <time>2012-05-13T07:36:12Z</time>
      </trkpt>
      <trkpt lat="48.05664" lon="6.94894">
        <ele>1009.33984375</ele>
        <time>2012-05-13T07:36:16Z</time>
      </trkpt>
      <trkpt lat="48.05663" lon="6.94877">
        <ele>1006.37890625</ele>
        <time>2012-05-13T07:36:18Z</time>
      </trkpt>
      <trkpt lat="48.05663" lon="6.94823">
        <ele>996.6796875</ele>
        <time>2012-05-13T07:36:23Z</time>
      </trkpt>
      <trkpt lat="48.0567" lon="6.94775">
        <ele>990.19140625</ele>
        <time>2012-05-13T07:36:31Z</time>
      </trkpt>
      <trkpt lat="48.0567" lon="6.94775">
        <ele>990.3515625</ele>
        <time>2012-05-13T07:37:05Z</time>
      </trkpt>
      <trkpt lat="48.05698" lon="6.94783">
        <ele>998.16015625</ele>
        <time>2012-05-13T07:37:17Z</time>
      </trkpt>
      <trkpt lat="48.05727" lon="6.94793">
        <ele>1004.3984375</ele>
        <time>2012-05-13T07:37:25Z</time>
      </trkpt>
      <trkpt lat="48.05729" lon="6.94795">
        <ele>1005.0234375</ele>
        <time>2012-05-13T07:37:26Z</time>
      </trkpt>
      <trkpt lat="48.05742" lon="6.94793">
        <ele>1006.35546875</ele>
        <time>2012-05-13T07:37:29Z</time>
      </trkpt>
      <trkpt lat="48.05757" lon="6.94794">
        <ele>1006.53125</ele>
        <time>2012-05-13T07:37:33Z</time>
      </trkpt>
      <trkpt lat="48.05784" lon="6.94807">
        <ele>1007.4375</ele>
        <time>2012-05-13T07:37:41Z</time>
      </trkpt>
      <trkpt lat="48.05801" lon="6.94811">
        <ele>1006.9921875</ele>
        <time>2012-05-13T07:37:44Z</time>
      </trkpt>
      <trkpt lat="48.05809" lon="6.94825">
        <ele>1006.953125</ele>
        <time>2012-05-13T07:37:48Z</time>
      </trkpt>
      <trkpt lat="48.05835" lon="6.94857">
        <ele>1005.6328125</ele>
        <time>2012-05-13T07:37:58Z</time>
      </trkpt>
      <trkpt lat="48.05846" lon="6.94872">
        <ele>1004.421875</ele>
        <time>2012-05-13T07:38:01Z</time>
      </trkpt>
      <trkpt lat="48.05865" lon="6.94899">
        <ele>1001.7109375</ele>
        <time>2012-05-13T07:38:09Z</time>
      </trkpt>
      <trkpt lat="48.05904" lon="6.94933">
        <ele>997.07421875</ele>
        <time>2012-05-13T07:38:19Z</time>
      </trkpt>
      <trkpt lat="48.05948" lon="6.9498">
        <ele>992.75</ele>
        <time>2012-05-13T07:38:27Z</time>
      </trkpt>
      <trkpt lat="48.05964" lon="6.94992">
        <ele>990.53515625</ele>
        <time>2012-05-13T07:38:30Z</time>
      </trkpt>
      <trkpt lat="48.0601" lon="6.95004">
        <ele>984.82421875</ele>
        <time>2012-05-13T07:38:36Z</time>
      </trkpt>
      <trkpt lat="48.06026" lon="6.95006">
        <ele>983.3046875</ele>
        <time>2012-05-13T07:38:39Z</time>
      </trkpt>
      <trkpt lat="48.06064" lon="6.94995">
        <ele>980.2421875</ele>
        <time>2012-05-13T07:38:48Z</time>
      </trkpt>
      <trkpt lat="48.06068" lon="6.94994">
        <ele>979.8515625</ele>
        <time>2012-05-13T07:38:49Z</time>
      </trkpt>
      <trkpt lat="48.06082" lon="6.94997">
        <ele>978.44140625</ele>
        <time>2012-05-13T07:38:52Z</time>
      </trkpt>
      <trkpt lat="48.06102" lon="6.95049">
        <ele>977.078125</ele>
        <time>2012-05-13T07:38:59Z</time>
      </trkpt>
      <trkpt lat="48.06116" lon="6.95082">
        <ele>974.7265625</ele>
        <time>2012-05-13T07:39:02Z</time>
      </trkpt>
      <trkpt lat="48.06137" lon="6.95104">
        <ele>968.6484375</ele>
        <time>2012-05-13T07:39:05Z</time>
      </trkpt>
      <trkpt lat="48.06149" lon="6.95121">
        <ele>962.90234375</ele>
        <time>2012-05-13T07:39:12Z</time>
      </trkpt>
      <trkpt lat="48.0615" lon="6.95122">
        <ele>962.65234375</ele>
        <time>2012-05-13T07:39:28Z</time>
      </trkpt>
      <trkpt lat="48.0615" lon="6.9512">
        <ele>962.73046875</ele>
        <time>2012-05-13T07:41:09Z</time>
      </trkpt>
      <trkpt lat="48.06149" lon="6.95116">
        <ele>963.6328125</ele>
        <time>2012-05-13T07:42:17Z</time>
      </trkpt>
      <trkpt lat="48.06149" lon="6.95116">
        <ele>963.76171875</ele>
        <time>2012-05-13T07:42:20Z</time>
      </trkpt>
      <trkpt lat="48.06148" lon="6.95113">
        <ele>964.26171875</ele>
        <time>2012-05-13T07:42:22Z</time>
      </trkpt>
      <trkpt lat="48.06132" lon="6.95095">
        <ele>971.19140625</ele>
        <time>2012-05-13T07:42:29Z</time>
      </trkpt>
      <trkpt lat="48.06128" lon="6.95091">
        <ele>972.8359375</ele>
        <time>2012-05-13T07:42:31Z</time>
      </trkpt>
      <trkpt lat="48.06125" lon="6.95088">
        <ele>973.5859375</ele>
        <time>2012-05-13T07:42:33Z</time>
      </trkpt>
      <trkpt lat="48.06117" lon="6.95075">
        <ele>975.39453125</ele>
        <time>2012-05-13T07:42:38Z</time>
      </trkpt>
      <trkpt lat="48.06103" lon="6.9504">
        <ele>977.3984375</ele>
        <time>2012-05-13T07:42:51Z</time>
      </trkpt>
      <trkpt lat="48.06098" lon="6.95017">
        <ele>978.1953125</ele>
        <time>2012-05-13T07:43:01Z</time>
      </trkpt>
      <trkpt lat="48.06094" lon="6.95006">
        <ele>977.6015625</ele>
        <time>2012-05-13T07:43:05Z</time>
      </trkpt>
      <trkpt lat="48.06084" lon="6.94999">
        <ele>978.23046875</ele>
        <time>2012-05-13T07:43:10Z</time>
      </trkpt>
      <trkpt lat="48.06062" lon="6.94996">
        <ele>980.41015625</ele>
        <time>2012-05-13T07:43:23Z</time>
      </trkpt>
      <trkpt lat="48.06031" lon="6.95">
        <ele>982.89453125</ele>
        <time>2012-05-13T07:43:36Z</time>
      </trkpt>
      <trkpt lat="48.06017" lon="6.94998">
        <ele>983.9140625</ele>
        <time>2012-05-13T07:43:39Z</time>
      </trkpt>
      <trkpt lat="48.05968" lon="6.94978">
        <ele>990.11328125</ele>
        <time>2012-05-13T07:43:50Z</time>
      </trkpt>
      <trkpt lat="48.05942" lon="6.94959">
        <ele>993.05078125</ele>
        <time>2012-05-13T07:44:00Z</time>
      </trkpt>
      <trkpt lat="48.0593" lon="6.94943">
        <ele>993.8359375</ele>
        <time>2012-05-13T07:44:06Z</time>
      </trkpt>
      <trkpt lat="48.05903" lon="6.94921">
        <ele>996.75</ele>
        <time>2012-05-13T07:44:18Z</time>
      </trkpt>
      <trkpt lat="48.05884" lon="6.94904">
        <ele>998.921875</ele>
        <time>2012-05-13T07:44:27Z</time>
      </trkpt>
      <trkpt lat="48.05859" lon="6.94868">
        <ele>1002.38671875</ele>
        <time>2012-05-13T07:44:37Z</time>
      </trkpt>
      <trkpt lat="48.05846" lon="6.94853">
        <ele>1004.375</ele>
        <time>2012-05-13T07:44:41Z</time>
      </trkpt>
      <trkpt lat="48.05809" lon="6.94805">
        <ele>1005.9296875</ele>
        <time>2012-05-13T07:44:53Z</time>
      </trkpt>
      <trkpt lat="48.05802" lon="6.94799">
        <ele>1006.23046875</ele>
        <time>2012-05-13T07:44:56Z</time>
      </trkpt>
      <trkpt lat="48.05779" lon="6.94792">
        <ele>1006.37109375</ele>
        <time>2012-05-13T07:45:04Z</time>
      </trkpt>
      <trkpt lat="48.0577" lon="6.94791">
        <ele>1006.1953125</ele>
        <time>2012-05-13T07:45:08Z</time>
      </trkpt>
      <trkpt lat="48.05746" lon="6.9479">
        <ele>1006.0390625</ele>
        <time>2012-05-13T07:45:13Z</time>
      </trkpt>
      <trkpt lat="48.05741" lon="6.94785">
        <ele>1005.48046875</ele>
        <time>2012-05-13T07:45:15Z</time>
      </trkpt>
      <trkpt lat="48.05709" lon="6.94769">
        <ele>998.12890625</ele>
        <time>2012-05-13T07:45:24Z</time>
      </trkpt>
      <trkpt lat="48.05681" lon="6.94767">
        <ele>991.984375</ele>
        <time>2012-05-13T07:45:31Z</time>
      </trkpt>
      <trkpt lat="48.05674" lon="6.94765">
        <ele>989.82421875</ele>
        <time>2012-05-13T07:45:47Z</time>
      </trkpt>
      <trkpt lat="48.05667" lon="6.94764">
        <ele>987.39453125</ele>
        <time>2012-05-13T07:46:23Z</time>
      </trkpt>
      <trkpt lat="48.05657" lon="6.94711">
        <ele>974.19921875</ele>
        <time>2012-05-13T07:46:29Z</time>
      </trkpt>
      <trkpt lat="48.05659" lon="6.9468">
        <ele>968.27734375</ele>
        <time>2012-05-13T07:46:31Z</time>
      </trkpt>
      <trkpt lat="48.05681" lon="6.94551">
        <ele>941.7109375</ele>
        <time>2012-05-13T07:46:39Z</time>
      </trkpt>
      <trkpt lat="48.05696" lon="6.94507">
        <ele>937.421875</ele>
        <time>2012-05-13T07:46:42Z</time>
      </trkpt>
      <trkpt lat="48.057" lon="6.94449">
        <ele>931.3671875</ele>
        <time>2012-05-13T07:46:46Z</time>
      </trkpt>
      <trkpt lat="48.0569" lon="6.94371">
        <ele>926.65234375</ele>
        <time>2012-05-13T07:46:52Z</time>
      </trkpt>
      <trkpt lat="48.05687" lon="6.94322">
        <ele>926.09375</ele>
        <time>2012-05-13T07:46:56Z</time>
      </trkpt>
      <trkpt lat="48.05697" lon="6.94296">
        <ele>929.04296875</ele>
        <time>2012-05-13T07:47:01Z</time>
      </trkpt>
      <trkpt lat="48.057" lon="6.943">
        <ele>928.42578125</ele>
        <time>2012-05-13T07:47:15Z</time>
      </trkpt>
      <trkpt lat="48.05699" lon="6.943">
        <ele>928.33203125</ele>
        <time>2012-05-13T07:47:29Z</time>
      </trkpt>
      <trkpt lat="48.05699" lon="6.94302">
        <ele>928.203125</ele>
        <time>2012-05-13T07:47:31Z</time>
      </trkpt>
      <trkpt lat="48.05694" lon="6.94302">
        <ele>927.59375</ele>
        <time>2012-05-13T07:47:53Z</time>
      </trkpt>
      <trkpt lat="48.05692" lon="6.94302">
        <ele>927.2578125</ele>
        <time>2012-05-13T07:47:58Z</time>
      </trkpt>
      <trkpt lat="48.05678" lon="6.94282">
        <ele>930.640625</ele>
        <time>2012-05-13T07:48:09Z</time>
      </trkpt>
      <trkpt lat="48.05656" lon="6.94266">
        <ele>931.80859375</ele>
        <time>2012-05-13T07:48:23Z</time>
      </trkpt>
      <trkpt lat="48.05655" lon="6.94265">
        <ele>931.8828125</ele>
        <time>2012-05-13T07:48:24Z</time>
      </trkpt>
      <trkpt lat="48.05634" lon="6.94244">
        <ele>933.0546875</ele>
        <time>2012-05-13T07:48:34Z</time>
      </trkpt>
      <trkpt lat="48.05606" lon="6.9422">
        <ele>935.8046875</ele>
        <time>2012-05-13T07:48:49Z</time>
      </trkpt>
      <trkpt lat="48.05599" lon="6.94207">
        <ele>938.02734375</ele>
        <time>2012-05-13T07:48:55Z</time>
      </trkpt>
      <trkpt lat="48.05576" lon="6.94185">
        <ele>938.890625</ele>
        <time>2012-05-13T07:49:08Z</time>
      </trkpt>
      <trkpt lat="48.0555" lon="6.94145">
        <ele>945.21484375</ele>
        <time>2012-05-13T07:49:25Z</time>
      </trkpt>
      <trkpt lat="48.05525" lon="6.94107">
        <ele>947.69140625</ele>
        <time>2012-05-13T07:49:41Z</time>
      </trkpt>
      <trkpt lat="48.05503" lon="6.94059">
        <ele>951.25390625</ele>
        <time>2012-05-13T07:49:56Z</time>
      </trkpt>
      <trkpt lat="48.05471" lon="6.9402">
        <ele>949.6875</ele>
        <time>2012-05-13T07:50:11Z</time>
      </trkpt>
      <trkpt lat="48.0543" lon="6.93952">
        <ele>948.46875</ele>
        <time>2012-05-13T07:50:28Z</time>
      </trkpt>
      <trkpt lat="48.05416" lon="6.93924">
        <ele>948.26171875</ele>
        <time>2012-05-13T07:50:33Z</time>
      </trkpt>
      <trkpt lat="48.05392" lon="6.93894">
        <ele>946.33984375</ele>
        <time>2012-05-13T07:50:39Z</time>
      </trkpt>
      <trkpt lat="48.05375" lon="6.93878">
        <ele>944.4296875</ele>
        <time>2012-05-13T07:50:42Z</time>
      </trkpt>
      <trkpt lat="48.05356" lon="6.93851">
        <ele>942.75</ele>
        <time>2012-05-13T07:50:45Z</time>
      </trkpt>
      <trkpt lat="48.05319" lon="6.93795">
        <ele>943.06640625</ele>
        <time>2012-05-13T07:50:51Z</time>
      </trkpt>
      <trkpt lat="48.05309" lon="6.93753">
        <ele>946.87109375</ele>
        <time>2012-05-13T07:51:00Z</time>
      </trkpt>
      <trkpt lat="48.05294" lon="6.93704">
        <ele>950.16015625</ele>
        <time>2012-05-13T07:51:13Z</time>
      </trkpt>
      <trkpt lat="48.05282" lon="6.93674">
        <ele>951.4921875</ele>
        <time>2012-05-13T07:51:22Z</time>
      </trkpt>
      <trkpt lat="48.05258" lon="6.93639">
        <ele>950.71484375</ele>
        <time>2012-05-13T07:51:35Z</time>
      </trkpt>
      <trkpt lat="48.05245" lon="6.93594">
        <ele>952.75390625</ele>
        <time>2012-05-13T07:51:49Z</time>
      </trkpt>
      <trkpt lat="48.05237" lon="6.93541">
        <ele>955.52734375</ele>
        <time>2012-05-13T07:52:04Z</time>
      </trkpt>
      <trkpt lat="48.05217" lon="6.93483">
        <ele>951.5234375</ele>
        <time>2012-05-13T07:52:17Z</time>
      </trkpt>
      <trkpt lat="48.05213" lon="6.93444">
        <ele>951.0859375</ele>
        <time>2012-05-13T07:52:24Z</time>
      </trkpt>
      <trkpt lat="48.05214" lon="6.93425">
        <ele>952.20703125</ele>
        <time>2012-05-13T07:52:27Z</time>
      </trkpt>
      <trkpt lat="48.05211" lon="6.93403">
        <ele>951.91796875</ele>
        <time>2012-05-13T07:52:30Z</time>
      </trkpt>
      <trkpt lat="48.05207" lon="6.93326">
        <ele>952.9453125</ele>
        <time>2012-05-13T07:52:43Z</time>
      </trkpt>
      <trkpt lat="48.05202" lon="6.93287">
        <ele>951.8046875</ele>
        <time>2012-05-13T07:52:50Z</time>
      </trkpt>
      <trkpt lat="48.05206" lon="6.93227">
        <ele>953.65234375</ele>
        <time>2012-05-13T07:52:57Z</time>
      </trkpt>
      <trkpt lat="48.05197" lon="6.93183">
        <ele>950.65625</ele>
        <time>2012-05-13T07:53:01Z</time>
      </trkpt>
      <trkpt lat="48.05159" lon="6.93097">
        <ele>948.91015625</ele>
        <time>2012-05-13T07:53:11Z</time>
      </trkpt>
      <trkpt lat="48.05155" lon="6.93091">
        <ele>948.7734375</ele>
        <time>2012-05-13T07:53:12Z</time>
      </trkpt>
      <trkpt lat="48.05135" lon="6.93046">
        <ele>949.92578125</ele>
        <time>2012-05-13T07:53:19Z</time>
      </trkpt>
      <trkpt lat="48.05109" lon="6.93016">
        <ele>947.24609375</ele>
        <time>2012-05-13T07:53:26Z</time>
      </trkpt>
      <trkpt lat="48.05096" lon="6.92993">
        <ele>947.21484375</ele>
        <time>2012-05-13T07:53:30Z</time>
      </trkpt>
      <trkpt lat="48.05053" lon="6.92926">
        <ele>949.9375</ele>
        <time>2012-05-13T07:53:42Z</time>
      </trkpt>
      <trkpt lat="48.05023" lon="6.92895">
        <ele>951.80078125</ele>
        <time>2012-05-13T07:53:52Z</time>
      </trkpt>
      <trkpt lat="48.05" lon="6.92872">
        <ele>954.32421875</ele>
        <time>2012-05-13T07:54:01Z</time>
      </trkpt>
      <trkpt lat="48.04974" lon="6.92844">
        <ele>958.94140625</ele>
        <time>2012-05-13T07:54:15Z</time>
      </trkpt>
      <trkpt lat="48.0497" lon="6.9284">
        <ele>959.71484375</ele>
        <time>2012-05-13T07:54:17Z</time>
      </trkpt>
      <trkpt lat="48.04955" lon="6.92828">
        <ele>961.6640625</ele>
        <time>2012-05-13T07:54:24Z</time>
      </trkpt>
      <trkpt lat="48.04933" lon="6.92807">
        <ele>965.19140625</ele>
        <time>2012-05-13T07:54:35Z</time>
      </trkpt>
      <trkpt lat="48.04899" lon="6.92792">
        <ele>966.1875</ele>
        <time>2012-05-13T07:54:46Z</time>
      </trkpt>
      <trkpt lat="48.04855" lon="6.92763">
        <ele>969.3125</ele>
        <time>2012-05-13T07:55:01Z</time>
      </trkpt>
      <trkpt lat="48.04815" lon="6.92756">
        <ele>966.80078125</ele>
        <time>2012-05-13T07:55:16Z</time>
      </trkpt>
      <trkpt lat="48.04802" lon="6.92744">
        <ele>967.07421875</ele>
        <time>2012-05-13T07:55:25Z</time>
      </trkpt>
      <trkpt lat="48.0481" lon="6.92736">
        <ele>969.08203125</ele>
        <time>2012-05-13T07:55:37Z</time>
      </trkpt>
      <trkpt lat="48.04819" lon="6.92716">
        <ele>973.37109375</ele>
        <time>2012-05-13T07:55:53Z</time>
      </trkpt>
      <trkpt lat="48.04819" lon="6.92705">
        <ele>974.8359375</ele>
        <time>2012-05-13T07:55:58Z</time>
      </trkpt>
      <trkpt lat="48.04817" lon="6.92672">
        <ele>978.2890625</ele>
        <time>2012-05-13T07:56:13Z</time>
      </trkpt>
      <trkpt lat="48.04817" lon="6.9267">
        <ele>978.5625</ele>
        <time>2012-05-13T07:56:14Z</time>
      </trkpt>
      <trkpt lat="48.04822" lon="6.92645">
        <ele>982.96484375</ele>
        <time>2012-05-13T07:56:31Z</time>
      </trkpt>
      <trkpt lat="48.04824" lon="6.92639">
        <ele>984.4453125</ele>
        <time>2012-05-13T07:56:35Z</time>
      </trkpt>
      <trkpt lat="48.04826" lon="6.92632">
        <ele>985.94140625</ele>
        <time>2012-05-13T07:56:39Z</time>
      </trkpt>
      <trkpt lat="48.04827" lon="6.92628">
        <ele>986.828125</ele>
        <time>2012-05-13T07:56:42Z</time>
      </trkpt>
      <trkpt lat="48.0483" lon="6.92609">
        <ele>990.109375</ele>
        <time>2012-05-13T07:56:54Z</time>
      </trkpt>
      <trkpt lat="48.04831" lon="6.92596">
        <ele>991.921875</ele>
        <time>2012-05-13T07:57:01Z</time>
      </trkpt>
      <trkpt lat="48.04834" lon="6.92587">
        <ele>993.86328125</ele>
        <time>2012-05-13T07:57:05Z</time>
      </trkpt>
      <trkpt lat="48.04831" lon="6.92563">
        <ele>996.0546875</ele>
        <time>2012-05-13T07:57:19Z</time>
      </trkpt>
      <trkpt lat="48.04829" lon="6.92542">
        <ele>998.25</ele>
        <time>2012-05-13T07:57:30Z</time>
      </trkpt>
      <trkpt lat="48.04828" lon="6.92508">
        <ele>1002.8984375</ele>
        <time>2012-05-13T07:57:42Z</time>
      </trkpt>
      <trkpt lat="48.04823" lon="6.92482">
        <ele>1004.87890625</ele>
        <time>2012-05-13T07:57:53Z</time>
      </trkpt>
      <trkpt lat="48.04814" lon="6.92457">
        <ele>1005.73046875</ele>
        <time>2012-05-13T07:58:06Z</time>
      </trkpt>
      <trkpt lat="48.04807" lon="6.92438">
        <ele>1007.06640625</ele>
        <time>2012-05-13T07:58:17Z</time>
      </trkpt>
      <trkpt lat="48.04806" lon="6.92436">
        <ele>1007.0078125</ele>
        <time>2012-05-13T07:58:18Z</time>
      </trkpt>
      <trkpt lat="48.04798" lon="6.9242">
        <ele>1007.30078125</ele>
        <time>2012-05-13T07:58:27Z</time>
      </trkpt>
      <trkpt lat="48.04795" lon="6.9241">
        <ele>1008.48046875</ele>
        <time>2012-05-13T07:58:32Z</time>
      </trkpt>
      <trkpt lat="48.04793" lon="6.92364">
        <ele>1016.91796875</ele>
        <time>2012-05-13T07:58:52Z</time>
      </trkpt>
      <trkpt lat="48.04789" lon="6.92349">
        <ele>1018.47265625</ele>
        <time>2012-05-13T07:58:59Z</time>
      </trkpt>
      <trkpt lat="48.04783" lon="6.92328">
        <ele>1020.47265625</ele>
        <time>2012-05-13T07:59:13Z</time>
      </trkpt>
      <trkpt lat="48.04783" lon="6.92313">
        <ele>1023.05078125</ele>
        <time>2012-05-13T07:59:21Z</time>
      </trkpt>
      <trkpt lat="48.0478" lon="6.92281">
        <ele>1027.58203125</ele>
        <time>2012-05-13T07:59:36Z</time>
      </trkpt>
      <trkpt lat="48.04778" lon="6.92269">
        <ele>1028.921875</ele>
        <time>2012-05-13T07:59:45Z</time>
      </trkpt>
      <trkpt lat="48.04778" lon="6.92245">
        <ele>1032.7890625</ele>
        <time>2012-05-13T07:59:59Z</time>
      </trkpt>
      <trkpt lat="48.04776" lon="6.92231">
        <ele>1034.39453125</ele>
        <time>2012-05-13T08:00:09Z</time>
      </trkpt>
      <trkpt lat="48.04773" lon="6.92226">
        <ele>1034.44140625</ele>
        <time>2012-05-13T08:00:12Z</time>
      </trkpt>
      <trkpt lat="48.04769" lon="6.92189">
        <ele>1039.0625</ele>
        <time>2012-05-13T08:00:31Z</time>
      </trkpt>
      <trkpt lat="48.04771" lon="6.92181">
        <ele>1040.64453125</ele>
        <time>2012-05-13T08:00:35Z</time>
      </trkpt>
      <trkpt lat="48.04774" lon="6.92174">
        <ele>1042.46484375</ele>
        <time>2012-05-13T08:00:42Z</time>
      </trkpt>
      <trkpt lat="48.04776" lon="6.92178">
        <ele>1042.12890625</ele>
        <time>2012-05-13T08:00:47Z</time>
      </trkpt>
      <trkpt lat="48.04779" lon="6.92175">
        <ele>1043.19140625</ele>
        <time>2012-05-13T08:00:58Z</time>
      </trkpt>
      <trkpt lat="48.0478" lon="6.92175">
        <ele>1043.19921875</ele>
        <time>2012-05-13T08:03:09Z</time>
      </trkpt>
      <trkpt lat="48.0478" lon="6.92178">
        <ele>1042.80859375</ele>
        <time>2012-05-13T08:07:27Z</time>
      </trkpt>
      <trkpt lat="48.04774" lon="6.92184">
        <ele>1040.71875</ele>
        <time>2012-05-13T08:07:33Z</time>
      </trkpt>
      <trkpt lat="48.04774" lon="6.92207">
        <ele>1037.28125</ele>
        <time>2012-05-13T08:07:38Z</time>
      </trkpt>
      <trkpt lat="48.04781" lon="6.92233">
        <ele>1035.171875</ele>
        <time>2012-05-13T08:07:42Z</time>
      </trkpt>
      <trkpt lat="48.04779" lon="6.92261">
        <ele>1030.328125</ele>
        <time>2012-05-13T08:07:46Z</time>
      </trkpt>
      <trkpt lat="48.04784" lon="6.92289">
        <ele>1027.52734375</ele>
        <time>2012-05-13T08:07:51Z</time>
      </trkpt>
      <trkpt lat="48.04785" lon="6.92328">
        <ele>1020.9765625</ele>
        <time>2012-05-13T08:07:57Z</time>
      </trkpt>
      <trkpt lat="48.04797" lon="6.92372">
        <ele>1016.28515625</ele>
        <time>2012-05-13T08:08:03Z</time>
      </trkpt>
      <trkpt lat="48.04806" lon="6.9243">
        <ele>1008.140625</ele>
        <time>2012-05-13T08:08:10Z</time>
      </trkpt>
      <trkpt lat="48.04814" lon="6.9248">
        <ele>1001.7578125</ele>
        <time>2012-05-13T08:08:16Z</time>
      </trkpt>
      <trkpt lat="48.0482" lon="6.92504">
        <ele>1000.5</ele>
        <time>2012-05-13T08:08:20Z</time>
      </trkpt>
      <trkpt lat="48.04823" lon="6.92559">
        <ele>993.7265625</ele>
        <time>2012-05-13T08:08:27Z</time>
      </trkpt>
      <trkpt lat="48.04829" lon="6.92615">
        <ele>988.8359375</ele>
        <time>2012-05-13T08:08:34Z</time>
      </trkpt>
      <trkpt lat="48.04833" lon="6.92659">
        <ele>984.9453125</ele>
        <time>2012-05-13T08:08:39Z</time>
      </trkpt>
      <trkpt lat="48.04837" lon="6.92682">
        <ele>983.06640625</ele>
        <time>2012-05-13T08:08:42Z</time>
      </trkpt>
      <trkpt lat="48.04835" lon="6.92693">
        <ele>981.06640625</ele>
        <time>2012-05-13T08:08:46Z</time>
      </trkpt>
      <trkpt lat="48.04824" lon="6.92676">
        <ele>980.1171875</ele>
        <time>2012-05-13T08:08:53Z</time>
      </trkpt>
      <trkpt lat="48.04818" lon="6.92689">
        <ele>976.8125</ele>
        <time>2012-05-13T08:08:58Z</time>
      </trkpt>
      <trkpt lat="48.0484" lon="6.92733">
        <ele>974.70703125</ele>
        <time>2012-05-13T08:09:07Z</time>
      </trkpt>
      <trkpt lat="48.04842" lon="6.92738">
        <ele>974.078125</ele>
        <time>2012-05-13T08:09:19Z</time>
      </trkpt>
      <trkpt lat="48.04828" lon="6.92741">
        <ele>971.45703125</ele>
        <time>2012-05-13T08:09:26Z</time>
      </trkpt>
      <trkpt lat="48.04814" lon="6.92747">
        <ele>968.3515625</ele>
        <time>2012-05-13T08:09:30Z</time>
      </trkpt>
      <trkpt lat="48.04797" lon="6.92751">
        <ele>965.46484375</ele>
        <time>2012-05-13T08:09:37Z</time>
      </trkpt>
      <trkpt lat="48.04798" lon="6.92755">
        <ele>965.01953125</ele>
        <time>2012-05-13T08:10:23Z</time>
      </trkpt>
      <trkpt lat="48.0479" lon="6.92759">
        <ele>963.19140625</ele>
        <time>2012-05-13T08:10:28Z</time>
      </trkpt>
      <trkpt lat="48.04777" lon="6.92781">
        <ele>958.703125</ele>
        <time>2012-05-13T08:10:38Z</time>
      </trkpt>
      <trkpt lat="48.04772" lon="6.92793">
        <ele>956.98828125</ele>
        <time>2012-05-13T08:10:44Z</time>
      </trkpt>
      <trkpt lat="48.04774" lon="6.92824">
        <ele>952.42578125</ele>
        <time>2012-05-13T08:10:49Z</time>
      </trkpt>
      <trkpt lat="48.04777" lon="6.92847">
        <ele>948.22265625</ele>
        <time>2012-05-13T08:10:52Z</time>
      </trkpt>
      <trkpt lat="48.04773" lon="6.92852">
        <ele>947.36328125</ele>
        <time>2012-05-13T08:10:54Z</time>
      </trkpt>
      <trkpt lat="48.04762" lon="6.9285">
        <ele>947.9609375</ele>
        <time>2012-05-13T08:10:58Z</time>
      </trkpt>
      <trkpt lat="48.04746" lon="6.92839">
        <ele>949.53125</ele>
        <time>2012-05-13T08:11:02Z</time>
      </trkpt>
      <trkpt lat="48.0472" lon="6.92825">
        <ele>946.8359375</ele>
        <time>2012-05-13T08:11:08Z</time>
      </trkpt>
      <trkpt lat="48.0471" lon="6.92802">
        <ele>946.0703125</ele>
        <time>2012-05-13T08:11:13Z</time>
      </trkpt>
      <trkpt lat="48.04704" lon="6.92795">
        <ele>944.87890625</ele>
        <time>2012-05-13T08:11:23Z</time>
      </trkpt>
      <trkpt lat="48.04704" lon="6.92795">
        <ele>944.875</ele>
        <time>2012-05-13T08:12:50Z</time>
      </trkpt>
      <trkpt lat="48.04708" lon="6.92799">
        <ele>945.75390625</ele>
        <time>2012-05-13T08:14:21Z</time>
      </trkpt>
      <trkpt lat="48.04709" lon="6.92801">
        <ele>945.86328125</ele>
        <time>2012-05-13T08:14:24Z</time>
      </trkpt>
      <trkpt lat="48.04713" lon="6.92814">
        <ele>945.93359375</ele>
        <time>2012-05-13T08:14:39Z</time>
      </trkpt>
      <trkpt lat="48.04714" lon="6.92815">
        <ele>946.2109375</ele>
        <time>2012-05-13T08:15:19Z</time>
      </trkpt>
      <trkpt lat="48.04708" lon="6.92793">
        <ele>945.703125</ele>
        <time>2012-05-13T08:15:25Z</time>
      </trkpt>
      <trkpt lat="48.047" lon="6.92801">
        <ele>943.828125</ele>
        <time>2012-05-13T08:15:34Z</time>
      </trkpt>
      <trkpt lat="48.04701" lon="6.92802">
        <ele>943.984375</ele>
        <time>2012-05-13T08:15:51Z</time>
      </trkpt>
      <trkpt lat="48.04697" lon="6.92819">
        <ele>942.26953125</ele>
        <time>2012-05-13T08:16:04Z</time>
      </trkpt>
      <trkpt lat="48.04694" lon="6.92843">
        <ele>940.359375</ele>
        <time>2012-05-13T08:16:22Z</time>
      </trkpt>
      <trkpt lat="48.04692" lon="6.92853">
        <ele>939.60546875</ele>
        <time>2012-05-13T08:16:25Z</time>
      </trkpt>
      <trkpt lat="48.0465" lon="6.9285">
        <ele>930.98046875</ele>
        <time>2012-05-13T08:16:33Z</time>
      </trkpt>
      <trkpt lat="48.04645" lon="6.92849">
        <ele>929.8359375</ele>
        <time>2012-05-13T08:16:34Z</time>
      </trkpt>
      <trkpt lat="48.04626" lon="6.92849">
        <ele>925.671875</ele>
        <time>2012-05-13T08:16:38Z</time>
      </trkpt>
      <trkpt lat="48.04583" lon="6.92841">
        <ele>915.39453125</ele>
        <time>2012-05-13T08:16:46Z</time>
      </trkpt>
      <trkpt lat="48.04579" lon="6.92856">
        <ele>913.58203125</ele>
        <time>2012-05-13T08:16:49Z</time>
      </trkpt>
      <trkpt lat="48.0459" lon="6.92893">
        <ele>913.15234375</ele>
        <time>2012-05-13T08:16:54Z</time>
      </trkpt>
      <trkpt lat="48.04604" lon="6.92913">
        <ele>914.45703125</ele>
        <time>2012-05-13T08:16:57Z</time>
      </trkpt>
      <trkpt lat="48.04615" lon="6.92951">
        <ele>908.12890625</ele>
        <time>2012-05-13T08:17:02Z</time>
      </trkpt>
      <trkpt lat="48.04619" lon="6.92977">
        <ele>903.14453125</ele>
        <time>2012-05-13T08:17:09Z</time>
      </trkpt>
      <trkpt lat="48.04621" lon="6.9298">
        <ele>902.72265625</ele>
        <time>2012-05-13T08:17:11Z</time>
      </trkpt>
      <trkpt lat="48.04627" lon="6.92989">
        <ele>901.82421875</ele>
        <time>2012-05-13T08:17:15Z</time>
      </trkpt>
      <trkpt lat="48.04643" lon="6.93015">
        <ele>898.26171875</ele>
        <time>2012-05-13T08:17:22Z</time>
      </trkpt>
      <trkpt lat="48.04638" lon="6.93027">
        <ele>895.11328125</ele>
        <time>2012-05-13T08:17:26Z</time>
      </trkpt>
      <trkpt lat="48.04634" lon="6.93041">
        <ele>892.15234375</ele>
        <time>2012-05-13T08:17:29Z</time>
      </trkpt>
      <trkpt lat="48.04632" lon="6.93047">
        <ele>890.85546875</ele>
        <time>2012-05-13T08:17:31Z</time>
      </trkpt>
      <trkpt lat="48.04633" lon="6.93054">
        <ele>889.58203125</ele>
        <time>2012-05-13T08:17:34Z</time>
      </trkpt>
      <trkpt lat="48.04635" lon="6.93051">
        <ele>890.3671875</ele>
        <time>2012-05-13T08:17:53Z</time>
      </trkpt>
      <trkpt lat="48.04633" lon="6.93051">
        <ele>890.08203125</ele>
        <time>2012-05-13T08:17:55Z</time>
      </trkpt>
      <trkpt lat="48.04629" lon="6.93055">
        <ele>889.17578125</ele>
        <time>2012-05-13T08:18:13Z</time>
      </trkpt>
      <trkpt lat="48.04619" lon="6.93096">
        <ele>882.9375</ele>
        <time>2012-05-13T08:18:23Z</time>
      </trkpt>
      <trkpt lat="48.04621" lon="6.93123">
        <ele>881.27734375</ele>
        <time>2012-05-13T08:18:31Z</time>
      </trkpt>
      <trkpt lat="48.04615" lon="6.93144">
        <ele>879.88671875</ele>
        <time>2012-05-13T08:18:39Z</time>
      </trkpt>
      <trkpt lat="48.04615" lon="6.9315">
        <ele>879.67578125</ele>
        <time>2012-05-13T08:18:51Z</time>
      </trkpt>
      <trkpt lat="48.04603" lon="6.93173">
        <ele>878.1796875</ele>
        <time>2012-05-13T08:19:00Z</time>
      </trkpt>
      <trkpt lat="48.04597" lon="6.93182">
        <ele>877.5625</ele>
        <time>2012-05-13T08:19:05Z</time>
      </trkpt>
      <trkpt lat="48.04593" lon="6.93188">
        <ele>877.09765625</ele>
        <time>2012-05-13T08:19:08Z</time>
      </trkpt>
      <trkpt lat="48.0458" lon="6.93196">
        <ele>876.125</ele>
        <time>2012-05-13T08:19:14Z</time>
      </trkpt>
      <trkpt lat="48.04568" lon="6.93221">
        <ele>874.55859375</ele>
        <time>2012-05-13T08:19:22Z</time>
      </trkpt>
      <trkpt lat="48.04565" lon="6.9322">
        <ele>874.4140625</ele>
        <time>2012-05-13T08:19:36Z</time>
      </trkpt>
      <trkpt lat="48.04564" lon="6.93221">
        <ele>874.33984375</ele>
        <time>2012-05-13T08:19:41Z</time>
      </trkpt>
      <trkpt lat="48.04555" lon="6.93218">
        <ele>873.84765625</ele>
        <time>2012-05-13T08:19:44Z</time>
      </trkpt>
      <trkpt lat="48.04538" lon="6.93224">
        <ele>872.6171875</ele>
        <time>2012-05-13T08:19:52Z</time>
      </trkpt>
      <trkpt lat="48.04533" lon="6.93227">
        <ele>872.28125</ele>
        <time>2012-05-13T08:20:09Z</time>
      </trkpt>
      <trkpt lat="48.04533" lon="6.93227">
        <ele>872.27734375</ele>
        <time>2012-05-13T08:20:38Z</time>
      </trkpt>
      <trkpt lat="48.04528" lon="6.9323">
        <ele>871.87890625</ele>
        <time>2012-05-13T08:20:42Z</time>
      </trkpt>
      <trkpt lat="48.04522" lon="6.93234">
        <ele>871.48046875</ele>
        <time>2012-05-13T08:20:44Z</time>
      </trkpt>
      <trkpt lat="48.04479" lon="6.93302">
        <ele>869.41015625</ele>
        <time>2012-05-13T08:20:55Z</time>
      </trkpt>
      <trkpt lat="48.04432" lon="6.93314">
        <ele>869.20703125</ele>
        <time>2012-05-13T08:21:02Z</time>
      </trkpt>
      <trkpt lat="48.0437" lon="6.93277">
        <ele>866.671875</ele>
        <time>2012-05-13T08:21:12Z</time>
      </trkpt>
      <trkpt lat="48.04358" lon="6.93295">
        <ele>867.65625</ele>
        <time>2012-05-13T08:21:17Z</time>
      </trkpt>
      <trkpt lat="48.04361" lon="6.93301">
        <ele>868.078125</ele>
        <time>2012-05-13T08:21:18Z</time>
      </trkpt>
      <trkpt lat="48.04374" lon="6.93325">
        <ele>869.3359375</ele>
        <time>2012-05-13T08:21:22Z</time>
      </trkpt>
      <trkpt lat="48.04391" lon="6.93384">
        <ele>873.234375</ele>
        <time>2012-05-13T08:21:36Z</time>
      </trkpt>
      <trkpt lat="48.04382" lon="6.93423">
        <ele>876.76171875</ele>
        <time>2012-05-13T08:21:50Z</time>
      </trkpt>
      <trkpt lat="48.04361" lon="6.93433">
        <ele>878.1875</ele>
        <time>2012-05-13T08:22:05Z</time>
      </trkpt>
      <trkpt lat="48.04351" lon="6.93436">
        <ele>878.73046875</ele>
        <time>2012-05-13T08:22:13Z</time>
      </trkpt>
      <trkpt lat="48.04334" lon="6.93451">
        <ele>881.53515625</ele>
        <time>2012-05-13T08:22:28Z</time>
      </trkpt>
      <trkpt lat="48.04316" lon="6.93461">
        <ele>884.34765625</ele>
        <time>2012-05-13T08:22:43Z</time>
      </trkpt>
      <trkpt lat="48.04306" lon="6.93458">
        <ele>884.6953125</ele>
        <time>2012-05-13T08:22:51Z</time>
      </trkpt>
      <trkpt lat="48.04287" lon="6.93456">
        <ele>885.8828125</ele>
        <time>2012-05-13T08:23:07Z</time>
      </trkpt>
      <trkpt lat="48.04262" lon="6.93463">
        <ele>888.74609375</ele>
        <time>2012-05-13T08:23:25Z</time>
      </trkpt>
      <trkpt lat="48.04245" lon="6.93464">
        <ele>890.296875</ele>
        <time>2012-05-13T08:23:39Z</time>
      </trkpt>
      <trkpt lat="48.04224" lon="6.93469">
        <ele>893.0234375</ele>
        <time>2012-05-13T08:23:54Z</time>
      </trkpt>
      <trkpt lat="48.04208" lon="6.93471">
        <ele>895.3359375</ele>
        <time>2012-05-13T08:24:07Z</time>
      </trkpt>
      <trkpt lat="48.04201" lon="6.93472">
        <ele>896.13671875</ele>
        <time>2012-05-13T08:24:12Z</time>
      </trkpt>
      <trkpt lat="48.04175" lon="6.93472">
        <ele>899.78515625</ele>
        <time>2012-05-13T08:24:30Z</time>
      </trkpt>
      <trkpt lat="48.04148" lon="6.93473">
        <ele>906.36328125</ele>
        <time>2012-05-13T08:24:49Z</time>
      </trkpt>
      <trkpt lat="48.04118" lon="6.9348">
        <ele>915.97265625</ele>
        <time>2012-05-13T08:25:10Z</time>
      </trkpt>
      <trkpt lat="48.04097" lon="6.93477">
        <ele>920.4140625</ele>
        <time>2012-05-13T08:25:24Z</time>
      </trkpt>
      <trkpt lat="48.04084" lon="6.93471">
        <ele>920.890625</ele>
        <time>2012-05-13T08:25:32Z</time>
      </trkpt>
      <trkpt lat="48.04063" lon="6.93459">
        <ele>921.7421875</ele>
        <time>2012-05-13T08:25:46Z</time>
      </trkpt>
      <trkpt lat="48.04038" lon="6.93444">
        <ele>921.04296875</ele>
        <time>2012-05-13T08:26:03Z</time>
      </trkpt>
      <trkpt lat="48.04008" lon="6.93433">
        <ele>921.30859375</ele>
        <time>2012-05-13T08:26:23Z</time>
      </trkpt>
      <trkpt lat="48.03982" lon="6.93436">
        <ele>924.79296875</ele>
        <time>2012-05-13T08:26:40Z</time>
      </trkpt>
      <trkpt lat="48.03962" lon="6.93442">
        <ele>928.6796875</ele>
        <time>2012-05-13T08:26:54Z</time>
      </trkpt>
      <trkpt lat="48.03939" lon="6.93444">
        <ele>929.89453125</ele>
        <time>2012-05-13T08:27:08Z</time>
      </trkpt>
      <trkpt lat="48.03916" lon="6.93447">
        <ele>931.42578125</ele>
        <time>2012-05-13T08:27:25Z</time>
      </trkpt>
      <trkpt lat="48.03912" lon="6.93449">
        <ele>932.2265625</ele>
        <time>2012-05-13T08:27:28Z</time>
      </trkpt>
      <trkpt lat="48.03883" lon="6.9346">
        <ele>940.41796875</ele>
        <time>2012-05-13T08:27:48Z</time>
      </trkpt>
      <trkpt lat="48.03857" lon="6.9347">
        <ele>948.7421875</ele>
        <time>2012-05-13T08:28:08Z</time>
      </trkpt>
      <trkpt lat="48.03855" lon="6.93471">
        <ele>949.109375</ele>
        <time>2012-05-13T08:28:09Z</time>
      </trkpt>
      <trkpt lat="48.0383" lon="6.93447">
        <ele>950.5859375</ele>
        <time>2012-05-13T08:28:30Z</time>
      </trkpt>
      <trkpt lat="48.03803" lon="6.93429">
        <ele>954.41015625</ele>
        <time>2012-05-13T08:28:50Z</time>
      </trkpt>
      <trkpt lat="48.03792" lon="6.93422">
        <ele>956.19921875</ele>
        <time>2012-05-13T08:28:59Z</time>
      </trkpt>
      <trkpt lat="48.03787" lon="6.9342">
        <ele>957.0390625</ele>
        <time>2012-05-13T08:29:03Z</time>
      </trkpt>
      <trkpt lat="48.03762" lon="6.93406">
        <ele>961.13671875</ele>
        <time>2012-05-13T08:29:21Z</time>
      </trkpt>
      <trkpt lat="48.03735" lon="6.93389">
        <ele>964.7265625</ele>
        <time>2012-05-13T08:29:40Z</time>
      </trkpt>
      <trkpt lat="48.03711" lon="6.93377">
        <ele>968.15625</ele>
        <time>2012-05-13T08:29:58Z</time>
      </trkpt>
      <trkpt lat="48.03693" lon="6.93363">
        <ele>969.6875</ele>
        <time>2012-05-13T08:30:14Z</time>
      </trkpt>
      <trkpt lat="48.03668" lon="6.93342">
        <ele>972.17578125</ele>
        <time>2012-05-13T08:30:32Z</time>
      </trkpt>
      <trkpt lat="48.03637" lon="6.9333">
        <ele>980.25390625</ele>
        <time>2012-05-13T08:30:54Z</time>
      </trkpt>
      <trkpt lat="48.03618" lon="6.93318">
        <ele>984</ele>
        <time>2012-05-13T08:31:09Z</time>
      </trkpt>
      <trkpt lat="48.03602" lon="6.93305">
        <ele>986.03515625</ele>
        <time>2012-05-13T08:31:21Z</time>
      </trkpt>
      <trkpt lat="48.03587" lon="6.93292">
        <ele>987.72265625</ele>
        <time>2012-05-13T08:31:32Z</time>
      </trkpt>
      <trkpt lat="48.0357" lon="6.93272">
        <ele>986.8125</ele>
        <time>2012-05-13T08:31:46Z</time>
      </trkpt>
      <trkpt lat="48.03547" lon="6.93253">
        <ele>985.6171875</ele>
        <time>2012-05-13T08:32:02Z</time>
      </trkpt>
      <trkpt lat="48.03521" lon="6.93244">
        <ele>989.16796875</ele>
        <time>2012-05-13T08:32:19Z</time>
      </trkpt>
      <trkpt lat="48.03494" lon="6.93233">
        <ele>992.91796875</ele>
        <time>2012-05-13T08:32:37Z</time>
      </trkpt>
      <trkpt lat="48.03477" lon="6.93227">
        <ele>995.390625</ele>
        <time>2012-05-13T08:32:50Z</time>
      </trkpt>
      <trkpt lat="48.03454" lon="6.93218">
        <ele>998.99609375</ele>
        <time>2012-05-13T08:33:06Z</time>
      </trkpt>
      <trkpt lat="48.03453" lon="6.93218">
        <ele>999.453125</ele>
        <time>2012-05-13T08:33:07Z</time>
      </trkpt>
      <trkpt lat="48.03432" lon="6.93209">
        <ele>1002.390625</ele>
        <time>2012-05-13T08:33:22Z</time>
      </trkpt>
      <trkpt lat="48.03421" lon="6.93204">
        <ele>1003.7578125</ele>
        <time>2012-05-13T08:33:30Z</time>
      </trkpt>
      <trkpt lat="48.03398" lon="6.93194">
        <ele>1007.6953125</ele>
        <time>2012-05-13T08:33:45Z</time>
      </trkpt>
      <trkpt lat="48.03381" lon="6.93183">
        <ele>1010.15234375</ele>
        <time>2012-05-13T08:33:58Z</time>
      </trkpt>
      <trkpt lat="48.03357" lon="6.93164">
        <ele>1012.56640625</ele>
        <time>2012-05-13T08:34:16Z</time>
      </trkpt>
      <trkpt lat="48.03333" lon="6.93142">
        <ele>1014.6015625</ele>
        <time>2012-05-13T08:34:35Z</time>
      </trkpt>
      <trkpt lat="48.03314" lon="6.93126">
        <ele>1016.38671875</ele>
        <time>2012-05-13T08:34:49Z</time>
      </trkpt>
      <trkpt lat="48.03292" lon="6.93104">
        <ele>1018.25390625</ele>
        <time>2012-05-13T08:35:06Z</time>
      </trkpt>
      <trkpt lat="48.03271" lon="6.9309">
        <ele>1021.2890625</ele>
        <time>2012-05-13T08:35:21Z</time>
      </trkpt>
      <trkpt lat="48.03258" lon="6.93082">
        <ele>1023.359375</ele>
        <time>2012-05-13T08:35:30Z</time>
      </trkpt>
      <trkpt lat="48.03248" lon="6.93075">
        <ele>1025.07421875</ele>
        <time>2012-05-13T08:35:37Z</time>
      </trkpt>
      <trkpt lat="48.03221" lon="6.93065">
        <ele>1025.35546875</ele>
        <time>2012-05-13T08:35:54Z</time>
      </trkpt>
      <trkpt lat="48.03191" lon="6.93065">
        <ele>1026.26171875</ele>
        <time>2012-05-13T08:36:14Z</time>
      </trkpt>
      <trkpt lat="48.03177" lon="6.93098">
        <ele>1030.01953125</ele>
        <time>2012-05-13T08:36:30Z</time>
      </trkpt>
      <trkpt lat="48.03166" lon="6.9313">
        <ele>1032.1328125</ele>
        <time>2012-05-13T08:36:47Z</time>
      </trkpt>
      <trkpt lat="48.03158" lon="6.93156">
        <ele>1034.01171875</ele>
        <time>2012-05-13T08:36:58Z</time>
      </trkpt>
      <trkpt lat="48.03148" lon="6.93198">
        <ele>1037.86328125</ele>
        <time>2012-05-13T08:37:16Z</time>
      </trkpt>
      <trkpt lat="48.03141" lon="6.93237">
        <ele>1041.62109375</ele>
        <time>2012-05-13T08:37:33Z</time>
      </trkpt>
      <trkpt lat="48.03128" lon="6.93272">
        <ele>1044.140625</ele>
        <time>2012-05-13T08:37:50Z</time>
      </trkpt>
      <trkpt lat="48.03116" lon="6.933">
        <ele>1044.2578125</ele>
        <time>2012-05-13T08:38:05Z</time>
      </trkpt>
      <trkpt lat="48.03105" lon="6.93332">
        <ele>1045.59375</ele>
        <time>2012-05-13T08:38:20Z</time>
      </trkpt>
      <trkpt lat="48.03098" lon="6.93358">
        <ele>1047.14453125</ele>
        <time>2012-05-13T08:38:33Z</time>
      </trkpt>
      <trkpt lat="48.03089" lon="6.93388">
        <ele>1048.96875</ele>
        <time>2012-05-13T08:38:47Z</time>
      </trkpt>
      <trkpt lat="48.0308" lon="6.93415">
        <ele>1050.2265625</ele>
        <time>2012-05-13T08:38:59Z</time>
      </trkpt>
      <trkpt lat="48.03069" lon="6.93456">
        <ele>1052.76953125</ele>
        <time>2012-05-13T08:39:15Z</time>
      </trkpt>
      <trkpt lat="48.03068" lon="6.93465">
        <ele>1053.6796875</ele>
        <time>2012-05-13T08:39:20Z</time>
      </trkpt>
      <trkpt lat="48.03066" lon="6.93493">
        <ele>1057.78125</ele>
        <time>2012-05-13T08:39:34Z</time>
      </trkpt>
      <trkpt lat="48.03064" lon="6.93528">
        <ele>1062.71875</ele>
        <time>2012-05-13T08:39:47Z</time>
      </trkpt>
      <trkpt lat="48.03057" lon="6.93557">
        <ele>1065.21484375</ele>
        <time>2012-05-13T08:40:01Z</time>
      </trkpt>
      <trkpt lat="48.0305" lon="6.93602">
        <ele>1069.59375</ele>
        <time>2012-05-13T08:40:19Z</time>
      </trkpt>
      <trkpt lat="48.03048" lon="6.93646">
        <ele>1074.6484375</ele>
        <time>2012-05-13T08:40:38Z</time>
      </trkpt>
      <trkpt lat="48.03046" lon="6.93686">
        <ele>1079.2734375</ele>
        <time>2012-05-13T08:40:55Z</time>
      </trkpt>
      <trkpt lat="48.03045" lon="6.9372">
        <ele>1083.3125</ele>
        <time>2012-05-13T08:41:07Z</time>
      </trkpt>
      <trkpt lat="48.0303" lon="6.93766">
        <ele>1086.51953125</ele>
        <time>2012-05-13T08:41:28Z</time>
      </trkpt>
      <trkpt lat="48.03019" lon="6.93803">
        <ele>1089.73046875</ele>
        <time>2012-05-13T08:41:45Z</time>
      </trkpt>
      <trkpt lat="48.03003" lon="6.93834">
        <ele>1092.3671875</ele>
        <time>2012-05-13T08:42:01Z</time>
      </trkpt>
      <trkpt lat="48.02985" lon="6.93864">
        <ele>1094.65625</ele>
        <time>2012-05-13T08:42:18Z</time>
      </trkpt>
      <trkpt lat="48.02962" lon="6.93904">
        <ele>1097.078125</ele>
        <time>2012-05-13T08:42:39Z</time>
      </trkpt>
      <trkpt lat="48.02954" lon="6.93923">
        <ele>1099.12890625</ele>
        <time>2012-05-13T08:42:47Z</time>
      </trkpt>
      <trkpt lat="48.02938" lon="6.93953">
        <ele>1102.1328125</ele>
        <time>2012-05-13T08:43:01Z</time>
      </trkpt>
      <trkpt lat="48.02914" lon="6.93989">
        <ele>1105.49609375</ele>
        <time>2012-05-13T08:43:20Z</time>
      </trkpt>
      <trkpt lat="48.02912" lon="6.93993">
        <ele>1105.94921875</ele>
        <time>2012-05-13T08:43:32Z</time>
      </trkpt>
      <trkpt lat="48.02912" lon="6.93998">
        <ele>1106.71875</ele>
        <time>2012-05-13T08:43:51Z</time>
      </trkpt>
      <trkpt lat="48.02913" lon="6.93994">
        <ele>1106.3046875</ele>
        <time>2012-05-13T08:48:04Z</time>
      </trkpt>
      <trkpt lat="48.02913" lon="6.93993">
        <ele>1106.109375</ele>
        <time>2012-05-13T08:50:50Z</time>
      </trkpt>
      <trkpt lat="48.02883" lon="6.93991">
        <ele>1105.26953125</ele>
        <time>2012-05-13T08:50:59Z</time>
      </trkpt>
      <trkpt lat="48.02869" lon="6.9399">
        <ele>1105.23046875</ele>
        <time>2012-05-13T08:51:01Z</time>
      </trkpt>
      <trkpt lat="48.02839" lon="6.93964">
        <ele>1103.46484375</ele>
        <time>2012-05-13T08:51:06Z</time>
      </trkpt>
      <trkpt lat="48.02823" lon="6.93937">
        <ele>1101.921875</ele>
        <time>2012-05-13T08:51:09Z</time>
      </trkpt>
      <trkpt lat="48.02798" lon="6.93905">
        <ele>1100.90234375</ele>
        <time>2012-05-13T08:51:13Z</time>
      </trkpt>
      <trkpt lat="48.02777" lon="6.93864">
        <ele>1098.453125</ele>
        <time>2012-05-13T08:51:17Z</time>
      </trkpt>
      <trkpt lat="48.02765" lon="6.93825">
        <ele>1094.7734375</ele>
        <time>2012-05-13T08:51:21Z</time>
      </trkpt>
      <trkpt lat="48.02746" lon="6.93783">
        <ele>1092.04296875</ele>
        <time>2012-05-13T08:51:25Z</time>
      </trkpt>
      <trkpt lat="48.02704" lon="6.93691">
        <ele>1090.41796875</ele>
        <time>2012-05-13T08:51:33Z</time>
      </trkpt>
      <trkpt lat="48.02681" lon="6.93595">
        <ele>1084.62109375</ele>
        <time>2012-05-13T08:51:41Z</time>
      </trkpt>
      <trkpt lat="48.02661" lon="6.93526">
        <ele>1080.47265625</ele>
        <time>2012-05-13T08:51:47Z</time>
      </trkpt>
      <trkpt lat="48.02603" lon="6.93373">
        <ele>1066.1953125</ele>
        <time>2012-05-13T08:52:00Z</time>
      </trkpt>
      <trkpt lat="48.02586" lon="6.93324">
        <ele>1062.890625</ele>
        <time>2012-05-13T08:52:04Z</time>
      </trkpt>
      <trkpt lat="48.02566" lon="6.93291">
        <ele>1064.015625</ele>
        <time>2012-05-13T08:52:07Z</time>
      </trkpt>
      <trkpt lat="48.02544" lon="6.93228">
        <ele>1066.859375</ele>
        <time>2012-05-13T08:52:12Z</time>
      </trkpt>
      <trkpt lat="48.02533" lon="6.9318">
        <ele>1073.40625</ele>
        <time>2012-05-13T08:52:16Z</time>
      </trkpt>
      <trkpt lat="48.02535" lon="6.93151">
        <ele>1077.0078125</ele>
        <time>2012-05-13T08:52:20Z</time>
      </trkpt>
      <trkpt lat="48.02536" lon="6.93139">
        <ele>1078.30859375</ele>
        <time>2012-05-13T08:52:24Z</time>
      </trkpt>
      <trkpt lat="48.02538" lon="6.93127">
        <ele>1078.97265625</ele>
        <time>2012-05-13T08:52:30Z</time>
      </trkpt>
      <trkpt lat="48.02538" lon="6.9312">
        <ele>1079.75</ele>
        <time>2012-05-13T08:52:33Z</time>
      </trkpt>
      <trkpt lat="48.02541" lon="6.93112">
        <ele>1079.4375</ele>
        <time>2012-05-13T08:52:35Z</time>
      </trkpt>
      <trkpt lat="48.02541" lon="6.93107">
        <ele>1079.91796875</ele>
        <time>2012-05-13T08:52:37Z</time>
      </trkpt>
      <trkpt lat="48.02545" lon="6.93098">
        <ele>1079.70703125</ele>
        <time>2012-05-13T08:52:41Z</time>
      </trkpt>
      <trkpt lat="48.02555" lon="6.93066">
        <ele>1080.1640625</ele>
        <time>2012-05-13T08:52:57Z</time>
      </trkpt>
      <trkpt lat="48.02563" lon="6.93041">
        <ele>1080.58984375</ele>
        <time>2012-05-13T08:53:10Z</time>
      </trkpt>
      <trkpt lat="48.02563" lon="6.93034">
        <ele>1081.34765625</ele>
        <time>2012-05-13T08:53:14Z</time>
      </trkpt>
      <trkpt lat="48.02565" lon="6.93021">
        <ele>1082.42578125</ele>
        <time>2012-05-13T08:53:20Z</time>
      </trkpt>
      <trkpt lat="48.02563" lon="6.93015">
        <ele>1083.4140625</ele>
        <time>2012-05-13T08:53:24Z</time>
      </trkpt>
      <trkpt lat="48.02556" lon="6.92984">
        <ele>1087.30859375</ele>
        <time>2012-05-13T08:53:42Z</time>
      </trkpt>
      <trkpt lat="48.02538" lon="6.92964">
        <ele>1091.11328125</ele>
        <time>2012-05-13T08:53:57Z</time>
      </trkpt>
      <trkpt lat="48.02517" lon="6.92949">
        <ele>1093.1015625</ele>
        <time>2012-05-13T08:54:13Z</time>
      </trkpt>
      <trkpt lat="48.02495" lon="6.92937">
        <ele>1093.375</ele>
        <time>2012-05-13T08:54:28Z</time>
      </trkpt>
      <trkpt lat="48.02482" lon="6.92925">
        <ele>1092.8671875</ele>
        <time>2012-05-13T08:54:37Z</time>
      </trkpt>
      <trkpt lat="48.02451" lon="6.92914">
        <ele>1092.07421875</ele>
        <time>2012-05-13T08:54:54Z</time>
      </trkpt>
      <trkpt lat="48.02413" lon="6.92917">
        <ele>1091.828125</ele>
        <time>2012-05-13T08:55:07Z</time>
      </trkpt>
      <trkpt lat="48.02363" lon="6.92934">
        <ele>1090.703125</ele>
        <time>2012-05-13T08:55:23Z</time>
      </trkpt>
      <trkpt lat="48.02321" lon="6.92981">
        <ele>1091</ele>
        <time>2012-05-13T08:55:41Z</time>
      </trkpt>
      <trkpt lat="48.02287" lon="6.93026">
        <ele>1093.19921875</ele>
        <time>2012-05-13T08:55:58Z</time>
      </trkpt>
      <trkpt lat="48.0225" lon="6.9306">
        <ele>1094.3046875</ele>
        <time>2012-05-13T08:56:12Z</time>
      </trkpt>
      <trkpt lat="48.02189" lon="6.93085">
        <ele>1091.9921875</ele>
        <time>2012-05-13T08:56:28Z</time>
      </trkpt>
      <trkpt lat="48.02173" lon="6.93094">
        <ele>1092.484375</ele>
        <time>2012-05-13T08:56:32Z</time>
      </trkpt>
      <trkpt lat="48.02119" lon="6.93116">
        <ele>1092.546875</ele>
        <time>2012-05-13T08:56:44Z</time>
      </trkpt>
      <trkpt lat="48.0207" lon="6.93141">
        <ele>1094.51171875</ele>
        <time>2012-05-13T08:56:58Z</time>
      </trkpt>
      <trkpt lat="48.02023" lon="6.93157">
        <ele>1095.28515625</ele>
        <time>2012-05-13T08:57:09Z</time>
      </trkpt>
      <trkpt lat="48.01954" lon="6.9317">
        <ele>1094.8828125</ele>
        <time>2012-05-13T08:57:25Z</time>
      </trkpt>
      <trkpt lat="48.01872" lon="6.9316">
        <ele>1095.2578125</ele>
        <time>2012-05-13T08:57:44Z</time>
      </trkpt>
      <trkpt lat="48.01783" lon="6.93137">
        <ele>1101.7265625</ele>
        <time>2012-05-13T08:58:03Z</time>
      </trkpt>
      <trkpt lat="48.01775" lon="6.93131">
        <ele>1101.73828125</ele>
        <time>2012-05-13T08:58:05Z</time>
      </trkpt>
      <trkpt lat="48.01761" lon="6.93115">
        <ele>1100.58984375</ele>
        <time>2012-05-13T08:58:09Z</time>
      </trkpt>
      <trkpt lat="48.0175" lon="6.93094">
        <ele>1098.88671875</ele>
        <time>2012-05-13T08:58:13Z</time>
      </trkpt>
      <trkpt lat="48.01725" lon="6.93051">
        <ele>1093.6015625</ele>
        <time>2012-05-13T08:58:21Z</time>
      </trkpt>
      <trkpt lat="48.01718" lon="6.93035">
        <ele>1091.6875</ele>
        <time>2012-05-13T08:58:24Z</time>
      </trkpt>
      <trkpt lat="48.01698" lon="6.93007">
        <ele>1090.484375</ele>
        <time>2012-05-13T08:58:29Z</time>
      </trkpt>
      <trkpt lat="48.0167" lon="6.92946">
        <ele>1087.3671875</ele>
        <time>2012-05-13T08:58:38Z</time>
      </trkpt>
      <trkpt lat="48.01666" lon="6.92928">
        <ele>1087.39453125</ele>
        <time>2012-05-13T08:58:41Z</time>
      </trkpt>
      <trkpt lat="48.01661" lon="6.9292">
        <ele>1087.23828125</ele>
        <time>2012-05-13T08:58:43Z</time>
      </trkpt>
      <trkpt lat="48.0165" lon="6.92892">
        <ele>1088.81640625</ele>
        <time>2012-05-13T08:58:50Z</time>
      </trkpt>
      <trkpt lat="48.01641" lon="6.92877">
        <ele>1089.97265625</ele>
        <time>2012-05-13T08:59:05Z</time>
      </trkpt>
      <trkpt lat="48.01641" lon="6.92876">
        <ele>1090.01171875</ele>
        <time>2012-05-13T09:02:05Z</time>
      </trkpt>
      <trkpt lat="48.0164" lon="6.92876">
        <ele>1090</ele>
        <time>2012-05-13T09:02:11Z</time>
      </trkpt>
      <trkpt lat="48.01628" lon="6.92866">
        <ele>1090.49609375</ele>
        <time>2012-05-13T09:02:16Z</time>
      </trkpt>
      <trkpt lat="48.01609" lon="6.92833">
        <ele>1091.44140625</ele>
        <time>2012-05-13T09:02:26Z</time>
      </trkpt>
      <trkpt lat="48.01598" lon="6.92823">
        <ele>1090.96875</ele>
        <time>2012-05-13T09:02:30Z</time>
      </trkpt>
      <trkpt lat="48.01576" lon="6.928">
        <ele>1090.2109375</ele>
        <time>2012-05-13T09:02:35Z</time>
      </trkpt>
      <trkpt lat="48.01561" lon="6.92775">
        <ele>1091.47265625</ele>
        <time>2012-05-13T09:02:39Z</time>
      </trkpt>
      <trkpt lat="48.01543" lon="6.92758">
        <ele>1090.91015625</ele>
        <time>2012-05-13T09:02:44Z</time>
      </trkpt>
      <trkpt lat="48.01532" lon="6.92756">
        <ele>1088.85546875</ele>
        <time>2012-05-13T09:02:47Z</time>
      </trkpt>
      <trkpt lat="48.01518" lon="6.92745">
        <ele>1087.6640625</ele>
        <time>2012-05-13T09:02:51Z</time>
      </trkpt>
      <trkpt lat="48.01492" lon="6.92733">
        <ele>1082.83984375</ele>
        <time>2012-05-13T09:02:58Z</time>
      </trkpt>
      <trkpt lat="48.01483" lon="6.92725">
        <ele>1082.1953125</ele>
        <time>2012-05-13T09:03:01Z</time>
      </trkpt>
      <trkpt lat="48.0145" lon="6.92702">
        <ele>1078.72265625</ele>
        <time>2012-05-13T09:03:11Z</time>
      </trkpt>
      <trkpt lat="48.01427" lon="6.92681">
        <ele>1078.65234375</ele>
        <time>2012-05-13T09:03:19Z</time>
      </trkpt>
      <trkpt lat="48.0142" lon="6.92665">
        <ele>1081.09765625</ele>
        <time>2012-05-13T09:03:24Z</time>
      </trkpt>
      <trkpt lat="48.014" lon="6.92661">
        <ele>1078.91796875</ele>
        <time>2012-05-13T09:03:30Z</time>
      </trkpt>
      <trkpt lat="48.01376" lon="6.92656">
        <ele>1078.390625</ele>
        <time>2012-05-13T09:03:39Z</time>
      </trkpt>
      <trkpt lat="48.01346" lon="6.92641">
        <ele>1080.390625</ele>
        <time>2012-05-13T09:03:50Z</time>
      </trkpt>
      <trkpt lat="48.0133" lon="6.92645">
        <ele>1078.328125</ele>
        <time>2012-05-13T09:03:55Z</time>
      </trkpt>
      <trkpt lat="48.01317" lon="6.92651">
        <ele>1075.66015625</ele>
        <time>2012-05-13T09:03:57Z</time>
      </trkpt>
      <trkpt lat="48.01306" lon="6.92653">
        <ele>1074.203125</ele>
        <time>2012-05-13T09:04:00Z</time>
      </trkpt>
      <trkpt lat="48.01286" lon="6.92648">
        <ele>1074.18359375</ele>
        <time>2012-05-13T09:04:05Z</time>
      </trkpt>
      <trkpt lat="48.01264" lon="6.92644">
        <ele>1072.99609375</ele>
        <time>2012-05-13T09:04:09Z</time>
      </trkpt>
      <trkpt lat="48.0126" lon="6.92646">
        <ele>1071.83203125</ele>
        <time>2012-05-13T09:04:11Z</time>
      </trkpt>
      <trkpt lat="48.01224" lon="6.92665">
        <ele>1063.8125</ele>
        <time>2012-05-13T09:04:16Z</time>
      </trkpt>
      <trkpt lat="48.01204" lon="6.92668">
        <ele>1062.8671875</ele>
        <time>2012-05-13T09:04:20Z</time>
      </trkpt>
      <trkpt lat="48.01177" lon="6.92691">
        <ele>1056.51953125</ele>
        <time>2012-05-13T09:04:25Z</time>
      </trkpt>
      <trkpt lat="48.01156" lon="6.9271">
        <ele>1049.390625</ele>
        <time>2012-05-13T09:04:28Z</time>
      </trkpt>
      <trkpt lat="48.01134" lon="6.92727">
        <ele>1045.76953125</ele>
        <time>2012-05-13T09:04:32Z</time>
      </trkpt>
      <trkpt lat="48.01119" lon="6.9273">
        <ele>1042.66796875</ele>
        <time>2012-05-13T09:04:35Z</time>
      </trkpt>
      <trkpt lat="48.01104" lon="6.92717">
        <ele>1039.7109375</ele>
        <time>2012-05-13T09:04:38Z</time>
      </trkpt>
      <trkpt lat="48.0109" lon="6.92697">
        <ele>1035.35546875</ele>
        <time>2012-05-13T09:04:42Z</time>
      </trkpt>
      <trkpt lat="48.01085" lon="6.92683">
        <ele>1033.46484375</ele>
        <time>2012-05-13T09:04:44Z</time>
      </trkpt>
      <trkpt lat="48.01058" lon="6.92605">
        <ele>1024.71484375</ele>
        <time>2012-05-13T09:04:53Z</time>
      </trkpt>
      <trkpt lat="48.01037" lon="6.92585">
        <ele>1017.19921875</ele>
        <time>2012-05-13T09:04:56Z</time>
      </trkpt>
      <trkpt lat="48.0102" lon="6.92568">
        <ele>1012.0078125</ele>
        <time>2012-05-13T09:04:59Z</time>
      </trkpt>
      <trkpt lat="48.00998" lon="6.92518">
        <ele>1017.6875</ele>
        <time>2012-05-13T09:05:07Z</time>
      </trkpt>
      <trkpt lat="48.00993" lon="6.92511">
        <ele>1017.921875</ele>
        <time>2012-05-13T09:05:08Z</time>
      </trkpt>
      <trkpt lat="48.00972" lon="6.925">
        <ele>1013.2421875</ele>
        <time>2012-05-13T09:05:11Z</time>
      </trkpt>
      <trkpt lat="48.0095" lon="6.92484">
        <ele>1010.5859375</ele>
        <time>2012-05-13T09:05:15Z</time>
      </trkpt>
      <trkpt lat="48.00917" lon="6.92463">
        <ele>1006.29296875</ele>
        <time>2012-05-13T09:05:22Z</time>
      </trkpt>
      <trkpt lat="48.00908" lon="6.9246">
        <ele>1003.8828125</ele>
        <time>2012-05-13T09:05:24Z</time>
      </trkpt>
      <trkpt lat="48.00846" lon="6.92446">
        <ele>987.91015625</ele>
        <time>2012-05-13T09:05:34Z</time>
      </trkpt>
      <trkpt lat="48.00834" lon="6.92444">
        <ele>984.48046875</ele>
        <time>2012-05-13T09:05:36Z</time>
      </trkpt>
      <trkpt lat="48.00816" lon="6.92439">
        <ele>980.16796875</ele>
        <time>2012-05-13T09:05:41Z</time>
      </trkpt>
      <trkpt lat="48.00823" lon="6.92463">
        <ele>975.34765625</ele>
        <time>2012-05-13T09:05:46Z</time>
      </trkpt>
      <trkpt lat="48.00851" lon="6.92496">
        <ele>974.68359375</ele>
        <time>2012-05-13T09:05:54Z</time>
      </trkpt>
      <trkpt lat="48.00857" lon="6.92502">
        <ele>974.59765625</ele>
        <time>2012-05-13T09:05:57Z</time>
      </trkpt>
      <trkpt lat="48.00852" lon="6.92503">
        <ele>972.8671875</ele>
        <time>2012-05-13T09:06:00Z</time>
      </trkpt>
      <trkpt lat="48.00845" lon="6.92497">
        <ele>972.2734375</ele>
        <time>2012-05-13T09:06:02Z</time>
      </trkpt>
      <trkpt lat="48.0081" lon="6.92497">
        <ele>961.234375</ele>
        <time>2012-05-13T09:06:08Z</time>
      </trkpt>
      <trkpt lat="48.00809" lon="6.92506">
        <ele>957.88671875</ele>
        <time>2012-05-13T09:06:12Z</time>
      </trkpt>
      <trkpt lat="48.0079" lon="6.92513">
        <ele>949.42578125</ele>
        <time>2012-05-13T09:06:16Z</time>
      </trkpt>
      <trkpt lat="48.00776" lon="6.92504">
        <ele>946.8515625</ele>
        <time>2012-05-13T09:06:20Z</time>
      </trkpt>
      <trkpt lat="48.00774" lon="6.92504">
        <ele>946</ele>
        <time>2012-05-13T09:06:26Z</time>
      </trkpt>
      <trkpt lat="48.00774" lon="6.92506">
        <ele>945.44921875</ele>
        <time>2012-05-13T09:06:28Z</time>
      </trkpt>
      <trkpt lat="48.00777" lon="6.92508">
        <ele>946.14453125</ele>
        <time>2012-05-13T09:06:51Z</time>
      </trkpt>
      <trkpt lat="48.0078" lon="6.9252">
        <ele>943.4609375</ele>
        <time>2012-05-13T09:08:47Z</time>
      </trkpt>
      <trkpt lat="48.00788" lon="6.92533">
        <ele>942.45703125</ele>
        <time>2012-05-13T09:08:52Z</time>
      </trkpt>
      <trkpt lat="48.00798" lon="6.92554">
        <ele>939.62109375</ele>
        <time>2012-05-13T09:08:55Z</time>
      </trkpt>
      <trkpt lat="48.00836" lon="6.92608">
        <ele>936.96875</ele>
        <time>2012-05-13T09:09:02Z</time>
      </trkpt>
      <trkpt lat="48.00842" lon="6.9264">
        <ele>932.98828125</ele>
        <time>2012-05-13T09:09:06Z</time>
      </trkpt>
      <trkpt lat="48.00826" lon="6.92684">
        <ele>925.58203125</ele>
        <time>2012-05-13T09:09:13Z</time>
      </trkpt>
      <trkpt lat="48.00786" lon="6.92758">
        <ele>915.06640625</ele>
        <time>2012-05-13T09:09:23Z</time>
      </trkpt>
      <trkpt lat="48.00778" lon="6.92786">
        <ele>913.74609375</ele>
        <time>2012-05-13T09:09:26Z</time>
      </trkpt>
      <trkpt lat="48.00772" lon="6.92829">
        <ele>912.0703125</ele>
        <time>2012-05-13T09:09:30Z</time>
      </trkpt>
      <trkpt lat="48.0077" lon="6.92856">
        <ele>911.3203125</ele>
        <time>2012-05-13T09:09:32Z</time>
      </trkpt>
      <trkpt lat="48.00793" lon="6.92977">
        <ele>903.83984375</ele>
        <time>2012-05-13T09:09:41Z</time>
      </trkpt>
      <trkpt lat="48.0082" lon="6.93049">
        <ele>900.40625</ele>
        <time>2012-05-13T09:09:47Z</time>
      </trkpt>
      <trkpt lat="48.00851" lon="6.93111">
        <ele>901.328125</ele>
        <time>2012-05-13T09:09:52Z</time>
      </trkpt>
      <trkpt lat="48.00849" lon="6.93147">
        <ele>893.77734375</ele>
        <time>2012-05-13T09:09:57Z</time>
      </trkpt>
      <trkpt lat="48.00847" lon="6.93139">
        <ele>894.6875</ele>
        <time>2012-05-13T09:09:59Z</time>
      </trkpt>
      <trkpt lat="48.00846" lon="6.93131">
        <ele>895.7578125</ele>
        <time>2012-05-13T09:10:01Z</time>
      </trkpt>
      <trkpt lat="48.00842" lon="6.93128">
        <ele>894.68359375</ele>
        <time>2012-05-13T09:10:04Z</time>
      </trkpt>
      <trkpt lat="48.00837" lon="6.93112">
        <ele>895.63671875</ele>
        <time>2012-05-13T09:10:13Z</time>
      </trkpt>
      <trkpt lat="48.00836" lon="6.93112">
        <ele>895.08203125</ele>
        <time>2012-05-13T09:10:14Z</time>
      </trkpt>
      <trkpt lat="48.00832" lon="6.93109">
        <ele>894.08984375</ele>
        <time>2012-05-13T09:10:16Z</time>
      </trkpt>
      <trkpt lat="48.00818" lon="6.93101">
        <ele>889.73828125</ele>
        <time>2012-05-13T09:10:20Z</time>
      </trkpt>
      <trkpt lat="48.00796" lon="6.93089">
        <ele>882.56640625</ele>
        <time>2012-05-13T09:10:23Z</time>
      </trkpt>
      <trkpt lat="48.00765" lon="6.93048">
        <ele>877.1015625</ele>
        <time>2012-05-13T09:10:28Z</time>
      </trkpt>
      <trkpt lat="48.00752" lon="6.9302">
        <ele>876.15625</ele>
        <time>2012-05-13T09:10:31Z</time>
      </trkpt>
      <trkpt lat="48.00685" lon="6.92914">
        <ele>867.578125</ele>
        <time>2012-05-13T09:10:41Z</time>
      </trkpt>
      <trkpt lat="48.00671" lon="6.92891">
        <ele>863.859375</ele>
        <time>2012-05-13T09:10:44Z</time>
      </trkpt>
      <trkpt lat="48.00665" lon="6.9289">
        <ele>861.2265625</ele>
        <time>2012-05-13T09:10:47Z</time>
      </trkpt>
      <trkpt lat="48.00667" lon="6.92896">
        <ele>861.02734375</ele>
        <time>2012-05-13T09:10:49Z</time>
      </trkpt>
      <trkpt lat="48.00667" lon="6.92913">
        <ele>858.9921875</ele>
        <time>2012-05-13T09:10:52Z</time>
      </trkpt>
      <trkpt lat="48.00666" lon="6.92944">
        <ele>851.9609375</ele>
        <time>2012-05-13T09:10:56Z</time>
      </trkpt>
      <trkpt lat="48.00659" lon="6.92945">
        <ele>848.23828125</ele>
        <time>2012-05-13T09:11:00Z</time>
      </trkpt>
      <trkpt lat="48.00623" lon="6.92882">
        <ele>840.578125</ele>
        <time>2012-05-13T09:11:08Z</time>
      </trkpt>
      <trkpt lat="48.0061" lon="6.92854">
        <ele>836.9375</ele>
        <time>2012-05-13T09:11:11Z</time>
      </trkpt>
      <trkpt lat="48.00591" lon="6.92817">
        <ele>831.02734375</ele>
        <time>2012-05-13T09:11:14Z</time>
      </trkpt>
      <trkpt lat="48.00558" lon="6.92725">
        <ele>818.31640625</ele>
        <time>2012-05-13T09:11:22Z</time>
      </trkpt>
      <trkpt lat="48.00546" lon="6.92694">
        <ele>812.82421875</ele>
        <time>2012-05-13T09:11:28Z</time>
      </trkpt>
      <trkpt lat="48.00544" lon="6.92709">
        <ele>811.9296875</ele>
        <time>2012-05-13T09:11:30Z</time>
      </trkpt>
      <trkpt lat="48.00547" lon="6.92776">
        <ele>811.14453125</ele>
        <time>2012-05-13T09:11:37Z</time>
      </trkpt>
      <trkpt lat="48.00546" lon="6.92817">
        <ele>806.9140625</ele>
        <time>2012-05-13T09:11:40Z</time>
      </trkpt>
      <trkpt lat="48.00551" lon="6.92875">
        <ele>801.64453125</ele>
        <time>2012-05-13T09:11:48Z</time>
      </trkpt>
      <trkpt lat="48.00561" lon="6.92948">
        <ele>795.9765625</ele>
        <time>2012-05-13T09:11:59Z</time>
      </trkpt>
      <trkpt lat="48.00568" lon="6.93007">
        <ele>789.2890625</ele>
        <time>2012-05-13T09:12:04Z</time>
      </trkpt>
      <trkpt lat="48.00581" lon="6.93059">
        <ele>786.890625</ele>
        <time>2012-05-13T09:12:09Z</time>
      </trkpt>
      <trkpt lat="48.00588" lon="6.93074">
        <ele>787.4140625</ele>
        <time>2012-05-13T09:12:11Z</time>
      </trkpt>
      <trkpt lat="48.00592" lon="6.93117">
        <ele>780.87890625</ele>
        <time>2012-05-13T09:12:18Z</time>
      </trkpt>
      <trkpt lat="48.00602" lon="6.93152">
        <ele>778.3046875</ele>
        <time>2012-05-13T09:12:23Z</time>
      </trkpt>
      <trkpt lat="48.00602" lon="6.93172">
        <ele>774.31640625</ele>
        <time>2012-05-13T09:12:25Z</time>
      </trkpt>
      <trkpt lat="48.00606" lon="6.93189">
        <ele>772.2421875</ele>
        <time>2012-05-13T09:12:27Z</time>
      </trkpt>
      <trkpt lat="48.0062" lon="6.93218">
        <ele>771.828125</ele>
        <time>2012-05-13T09:12:31Z</time>
      </trkpt>
      <trkpt lat="48.00634" lon="6.93279">
        <ele>764.6171875</ele>
        <time>2012-05-13T09:12:37Z</time>
      </trkpt>
      <trkpt lat="48.00666" lon="6.93347">
        <ele>762.453125</ele>
        <time>2012-05-13T09:12:46Z</time>
      </trkpt>
      <trkpt lat="48.00669" lon="6.93353">
        <ele>761.90625</ele>
        <time>2012-05-13T09:12:47Z</time>
      </trkpt>
      <trkpt lat="48.00674" lon="6.93378">
        <ele>758.71484375</ele>
        <time>2012-05-13T09:12:51Z</time>
      </trkpt>
      <trkpt lat="48.00688" lon="6.93406">
        <ele>756.5703125</ele>
        <time>2012-05-13T09:12:56Z</time>
      </trkpt>
      <trkpt lat="48.00699" lon="6.93427">
        <ele>756.2734375</ele>
        <time>2012-05-13T09:12:59Z</time>
      </trkpt>
      <trkpt lat="48.00694" lon="6.93445">
        <ele>752.171875</ele>
        <time>2012-05-13T09:13:04Z</time>
      </trkpt>
      <trkpt lat="48.0069" lon="6.93461">
        <ele>748.7421875</ele>
        <time>2012-05-13T09:13:08Z</time>
      </trkpt>
      <trkpt lat="48.00684" lon="6.93466">
        <ele>746.90234375</ele>
        <time>2012-05-13T09:13:12Z</time>
      </trkpt>
      <trkpt lat="48.00678" lon="6.93452">
        <ele>747.86328125</ele>
        <time>2012-05-13T09:13:27Z</time>
      </trkpt>
      <trkpt lat="48.00677" lon="6.9345">
        <ele>747.9140625</ele>
        <time>2012-05-13T09:17:28Z</time>
      </trkpt>
      <trkpt lat="48.00685" lon="6.93466">
        <ele>746.921875</ele>
        <time>2012-05-13T09:17:37Z</time>
      </trkpt>
      <trkpt lat="48.0068" lon="6.93474">
        <ele>745.58203125</ele>
        <time>2012-05-13T09:17:40Z</time>
      </trkpt>
      <trkpt lat="48.00672" lon="6.9348">
        <ele>744.28125</ele>
        <time>2012-05-13T09:17:42Z</time>
      </trkpt>
      <trkpt lat="48.00644" lon="6.93516">
        <ele>739.953125</ele>
        <time>2012-05-13T09:17:49Z</time>
      </trkpt>
      <trkpt lat="48.00641" lon="6.93545">
        <ele>738.97265625</ele>
        <time>2012-05-13T09:17:54Z</time>
      </trkpt>
      <trkpt lat="48.00673" lon="6.93607">
        <ele>738.35546875</ele>
        <time>2012-05-13T09:18:09Z</time>
      </trkpt>
      <trkpt lat="48.00737" lon="6.9368">
        <ele>739.84375</ele>
        <time>2012-05-13T09:18:31Z</time>
      </trkpt>
      <trkpt lat="48.0076" lon="6.93707">
        <ele>741.07421875</ele>
        <time>2012-05-13T09:18:39Z</time>
      </trkpt>
      <trkpt lat="48.00755" lon="6.93722">
        <ele>740.66796875</ele>
        <time>2012-05-13T09:18:43Z</time>
      </trkpt>
      <trkpt lat="48.00713" lon="6.93776">
        <ele>740.65625</ele>
        <time>2012-05-13T09:18:57Z</time>
      </trkpt>
      <trkpt lat="48.00699" lon="6.93799">
        <ele>741.19921875</ele>
        <time>2012-05-13T09:19:02Z</time>
      </trkpt>
      <trkpt lat="48.00663" lon="6.93881">
        <ele>746.24609375</ele>
        <time>2012-05-13T09:19:16Z</time>
      </trkpt>
      <trkpt lat="48.00654" lon="6.9391">
        <ele>748.37109375</ele>
        <time>2012-05-13T09:19:21Z</time>
      </trkpt>
      <trkpt lat="48.00651" lon="6.93933">
        <ele>750.76171875</ele>
        <time>2012-05-13T09:19:25Z</time>
      </trkpt>
      <trkpt lat="48.00659" lon="6.93985">
        <ele>755.68359375</ele>
        <time>2012-05-13T09:19:42Z</time>
      </trkpt>
      <trkpt lat="48.00675" lon="6.9401">
        <ele>756.921875</ele>
        <time>2012-05-13T09:19:56Z</time>
      </trkpt>
      <trkpt lat="48.00671" lon="6.94021">
        <ele>758.0703125</ele>
        <time>2012-05-13T09:20:02Z</time>
      </trkpt>
      <trkpt lat="48.00649" lon="6.94012">
        <ele>758.76171875</ele>
        <time>2012-05-13T09:20:19Z</time>
      </trkpt>
      <trkpt lat="48.00621" lon="6.94001">
        <ele>760.21484375</ele>
        <time>2012-05-13T09:20:40Z</time>
      </trkpt>
      <trkpt lat="48.00602" lon="6.9401">
        <ele>764.53515625</ele>
        <time>2012-05-13T09:20:56Z</time>
      </trkpt>
      <trkpt lat="48.00612" lon="6.94037">
        <ele>766.52734375</ele>
        <time>2012-05-13T09:21:11Z</time>
      </trkpt>
      <trkpt lat="48.00607" lon="6.94062">
        <ele>771.08984375</ele>
        <time>2012-05-13T09:21:26Z</time>
      </trkpt>
      <trkpt lat="48.00604" lon="6.94068">
        <ele>772.5234375</ele>
        <time>2012-05-13T09:21:31Z</time>
      </trkpt>
      <trkpt lat="48.00598" lon="6.94066">
        <ele>773.25</ele>
        <time>2012-05-13T09:21:51Z</time>
      </trkpt>
      <trkpt lat="48.00598" lon="6.94066">
        <ele>773.3046875</ele>
        <time>2012-05-13T09:22:40Z</time>
      </trkpt>
      <trkpt lat="48.00579" lon="6.94035">
        <ele>772.1796875</ele>
        <time>2012-05-13T09:22:53Z</time>
      </trkpt>
      <trkpt lat="48.00576" lon="6.94034">
        <ele>772.5859375</ele>
        <time>2012-05-13T09:22:55Z</time>
      </trkpt>
      <trkpt lat="48.00568" lon="6.94024">
        <ele>773.68359375</ele>
        <time>2012-05-13T09:23:01Z</time>
      </trkpt>
      <trkpt lat="48.0056" lon="6.94026">
        <ele>776.453125</ele>
        <time>2012-05-13T09:23:06Z</time>
      </trkpt>
      <trkpt lat="48.00555" lon="6.94034">
        <ele>779.2109375</ele>
        <time>2012-05-13T09:23:17Z</time>
      </trkpt>
      <trkpt lat="48.00555" lon="6.94034">
        <ele>779.23828125</ele>
        <time>2012-05-13T09:23:18Z</time>
      </trkpt>
      <trkpt lat="48.00539" lon="6.94037">
        <ele>784.63671875</ele>
        <time>2012-05-13T09:23:35Z</time>
      </trkpt>
      <trkpt lat="48.00528" lon="6.94044">
        <ele>788.80859375</ele>
        <time>2012-05-13T09:23:50Z</time>
      </trkpt>
      <trkpt lat="48.00522" lon="6.94043">
        <ele>790.7109375</ele>
        <time>2012-05-13T09:24:01Z</time>
      </trkpt>
      <trkpt lat="48.00517" lon="6.94025">
        <ele>789.81640625</ele>
        <time>2012-05-13T09:24:21Z</time>
      </trkpt>
      <trkpt lat="48.00518" lon="6.94024">
        <ele>789.50390625</ele>
        <time>2012-05-13T09:24:23Z</time>
      </trkpt>
      <trkpt lat="48.0051" lon="6.93996">
        <ele>785.76171875</ele>
        <time>2012-05-13T09:24:39Z</time>
      </trkpt>
      <trkpt lat="48.00505" lon="6.93992">
        <ele>785.9453125</ele>
        <time>2012-05-13T09:24:43Z</time>
      </trkpt>
      <trkpt lat="48.00502" lon="6.94">
        <ele>788.03515625</ele>
        <time>2012-05-13T09:24:49Z</time>
      </trkpt>
      <trkpt lat="48.00502" lon="6.94005">
        <ele>789.00390625</ele>
        <time>2012-05-13T09:24:52Z</time>
      </trkpt>
      <trkpt lat="48.00501" lon="6.94021">
        <ele>792.25</ele>
        <time>2012-05-13T09:25:01Z</time>
      </trkpt>
      <trkpt lat="48.00495" lon="6.94047">
        <ele>796.75</ele>
        <time>2012-05-13T09:25:17Z</time>
      </trkpt>
      <trkpt lat="48.00482" lon="6.94081">
        <ele>804.55078125</ele>
        <time>2012-05-13T09:25:37Z</time>
      </trkpt>
      <trkpt lat="48.00466" lon="6.94087">
        <ele>809.3515625</ele>
        <time>2012-05-13T09:25:53Z</time>
      </trkpt>
      <trkpt lat="48.00461" lon="6.94086">
        <ele>810.04296875</ele>
        <time>2012-05-13T09:25:57Z</time>
      </trkpt>
      <trkpt lat="48.00437" lon="6.94073">
        <ele>810.75390625</ele>
        <time>2012-05-13T09:26:15Z</time>
      </trkpt>
      <trkpt lat="48.00427" lon="6.94072">
        <ele>811.74609375</ele>
        <time>2012-05-13T09:26:21Z</time>
      </trkpt>
      <trkpt lat="48.00399" lon="6.94065">
        <ele>814.86328125</ele>
        <time>2012-05-13T09:26:35Z</time>
      </trkpt>
      <trkpt lat="48.00379" lon="6.94044">
        <ele>815.3046875</ele>
        <time>2012-05-13T09:26:47Z</time>
      </trkpt>
      <trkpt lat="48.00367" lon="6.94033">
        <ele>815.625</ele>
        <time>2012-05-13T09:26:56Z</time>
      </trkpt>
      <trkpt lat="48.00362" lon="6.94035">
        <ele>817.03515625</ele>
        <time>2012-05-13T09:27:07Z</time>
      </trkpt>
      <trkpt lat="48.00363" lon="6.94035">
        <ele>816.8828125</ele>
        <time>2012-05-13T09:27:36Z</time>
      </trkpt>
      <trkpt lat="48.00364" lon="6.94036">
        <ele>816.96875</ele>
        <time>2012-05-13T09:29:19Z</time>
      </trkpt>
      <trkpt lat="48.00381" lon="6.9406">
        <ele>818.2265625</ele>
        <time>2012-05-13T09:29:34Z</time>
      </trkpt>
      <trkpt lat="48.00386" lon="6.94068">
        <ele>818.6953125</ele>
        <time>2012-05-13T09:29:39Z</time>
      </trkpt>
      <trkpt lat="48.00385" lon="6.94075">
        <ele>820.49609375</ele>
        <time>2012-05-13T09:29:43Z</time>
      </trkpt>
      <trkpt lat="48.00382" lon="6.94079">
        <ele>822</ele>
        <time>2012-05-13T09:29:46Z</time>
      </trkpt>
      <trkpt lat="48.00378" lon="6.94079">
        <ele>822.921875</ele>
        <time>2012-05-13T09:29:49Z</time>
      </trkpt>
      <trkpt lat="48.00361" lon="6.9407">
        <ele>825.25390625</ele>
        <time>2012-05-13T09:30:01Z</time>
      </trkpt>
      <trkpt lat="48.00345" lon="6.94063">
        <ele>827.84375</ele>
        <time>2012-05-13T09:30:14Z</time>
      </trkpt>
      <trkpt lat="48.00344" lon="6.94062">
        <ele>827.98046875</ele>
        <time>2012-05-13T09:30:15Z</time>
      </trkpt>
      <trkpt lat="48.00327" lon="6.94048">
        <ele>829.48828125</ele>
        <time>2012-05-13T09:30:29Z</time>
      </trkpt>
      <trkpt lat="48.00315" lon="6.94039">
        <ele>830.90234375</ele>
        <time>2012-05-13T09:30:38Z</time>
      </trkpt>
      <trkpt lat="48.00302" lon="6.94015">
        <ele>829.25</ele>
        <time>2012-05-13T09:30:53Z</time>
      </trkpt>
      <trkpt lat="48.00287" lon="6.94">
        <ele>830.1171875</ele>
        <time>2012-05-13T09:31:04Z</time>
      </trkpt>
      <trkpt lat="48.00284" lon="6.93999">
        <ele>830.484375</ele>
        <time>2012-05-13T09:31:05Z</time>
      </trkpt>
      <trkpt lat="48.00276" lon="6.94">
        <ele>832.53515625</ele>
        <time>2012-05-13T09:31:10Z</time>
      </trkpt>
      <trkpt lat="48.00274" lon="6.94001">
        <ele>833.54296875</ele>
        <time>2012-05-13T09:31:13Z</time>
      </trkpt>
      <trkpt lat="48.00271" lon="6.94008">
        <ele>835.5703125</ele>
        <time>2012-05-13T09:31:18Z</time>
      </trkpt>
      <trkpt lat="48.00276" lon="6.94045">
        <ele>842.79296875</ele>
        <time>2012-05-13T09:31:42Z</time>
      </trkpt>
      <trkpt lat="48.00288" lon="6.94072">
        <ele>846.26953125</ele>
        <time>2012-05-13T09:31:59Z</time>
      </trkpt>
      <trkpt lat="48.003" lon="6.94088">
        <ele>846.80078125</ele>
        <time>2012-05-13T09:32:09Z</time>
      </trkpt>
      <trkpt lat="48.00303" lon="6.94109">
        <ele>850.66796875</ele>
        <time>2012-05-13T09:32:21Z</time>
      </trkpt>
      <trkpt lat="48.00295" lon="6.94116">
        <ele>854.73828125</ele>
        <time>2012-05-13T09:32:29Z</time>
      </trkpt>
      <trkpt lat="48.00291" lon="6.94114">
        <ele>855.58984375</ele>
        <time>2012-05-13T09:32:34Z</time>
      </trkpt>
      <trkpt lat="48.00289" lon="6.94109">
        <ele>854.91796875</ele>
        <time>2012-05-13T09:32:37Z</time>
      </trkpt>
      <trkpt lat="48.00284" lon="6.94108">
        <ele>855.9296875</ele>
        <time>2012-05-13T09:32:41Z</time>
      </trkpt>
      <trkpt lat="48.00273" lon="6.94105">
        <ele>858.15234375</ele>
        <time>2012-05-13T09:32:50Z</time>
      </trkpt>
      <trkpt lat="48.00269" lon="6.94118">
        <ele>863.09765625</ele>
        <time>2012-05-13T09:33:01Z</time>
      </trkpt>
      <trkpt lat="48.00285" lon="6.9414">
        <ele>863.58984375</ele>
        <time>2012-05-13T09:33:14Z</time>
      </trkpt>
      <trkpt lat="48.00306" lon="6.9416">
        <ele>860.921875</ele>
        <time>2012-05-13T09:33:32Z</time>
      </trkpt>
      <trkpt lat="48.00307" lon="6.94163">
        <ele>861.15234375</ele>
        <time>2012-05-13T09:33:34Z</time>
      </trkpt>
      <trkpt lat="48.00305" lon="6.94171">
        <ele>863.5859375</ele>
        <time>2012-05-13T09:33:40Z</time>
      </trkpt>
      <trkpt lat="48.00301" lon="6.94174">
        <ele>865.62109375</ele>
        <time>2012-05-13T09:33:44Z</time>
      </trkpt>
      <trkpt lat="48.00295" lon="6.94169">
        <ele>866.6328125</ele>
        <time>2012-05-13T09:33:49Z</time>
      </trkpt>
      <trkpt lat="48.00286" lon="6.94166">
        <ele>868.9453125</ele>
        <time>2012-05-13T09:33:58Z</time>
      </trkpt>
      <trkpt lat="48.00263" lon="6.94154">
        <ele>873.48828125</ele>
        <time>2012-05-13T09:34:13Z</time>
      </trkpt>
      <trkpt lat="48.00243" lon="6.94138">
        <ele>876.0390625</ele>
        <time>2012-05-13T09:34:26Z</time>
      </trkpt>
      <trkpt lat="48.00222" lon="6.94106">
        <ele>875.74609375</ele>
        <time>2012-05-13T09:34:38Z</time>
      </trkpt>
      <trkpt lat="48.0022" lon="6.94102">
        <ele>875.17578125</ele>
        <time>2012-05-13T09:34:40Z</time>
      </trkpt>
      <trkpt lat="48.0021" lon="6.94101">
        <ele>879.47265625</ele>
        <time>2012-05-13T09:34:46Z</time>
      </trkpt>
      <trkpt lat="48.0021" lon="6.94113">
        <ele>882.98828125</ele>
        <time>2012-05-13T09:34:51Z</time>
      </trkpt>
      <trkpt lat="48.00214" lon="6.94123">
        <ele>884.03125</ele>
        <time>2012-05-13T09:34:56Z</time>
      </trkpt>
      <trkpt lat="48.00219" lon="6.94137">
        <ele>886.06640625</ele>
        <time>2012-05-13T09:35:03Z</time>
      </trkpt>
      <trkpt lat="48.00237" lon="6.94172">
        <ele>887.125</ele>
        <time>2012-05-13T09:35:21Z</time>
      </trkpt>
      <trkpt lat="48.0025" lon="6.94192">
        <ele>886.80859375</ele>
        <time>2012-05-13T09:35:34Z</time>
      </trkpt>
      <trkpt lat="48.00259" lon="6.94209">
        <ele>887.19140625</ele>
        <time>2012-05-13T09:35:44Z</time>
      </trkpt>
      <trkpt lat="48.0026" lon="6.94224">
        <ele>889.765625</ele>
        <time>2012-05-13T09:35:53Z</time>
      </trkpt>
      <trkpt lat="48.00266" lon="6.9425">
        <ele>892.3515625</ele>
        <time>2012-05-13T09:36:07Z</time>
      </trkpt>
      <trkpt lat="48.00281" lon="6.94274">
        <ele>890.953125</ele>
        <time>2012-05-13T09:36:23Z</time>
      </trkpt>
      <trkpt lat="48.00297" lon="6.94289">
        <ele>888.1875</ele>
        <time>2012-05-13T09:36:36Z</time>
      </trkpt>
      <trkpt lat="48.00307" lon="6.94298">
        <ele>887.265625</ele>
        <time>2012-05-13T09:36:43Z</time>
      </trkpt>
      <trkpt lat="48.00311" lon="6.94304">
        <ele>887.3359375</ele>
        <time>2012-05-13T09:36:47Z</time>
      </trkpt>
      <trkpt lat="48.00307" lon="6.94312">
        <ele>890.15625</ele>
        <time>2012-05-13T09:36:53Z</time>
      </trkpt>
      <trkpt lat="48.00296" lon="6.94314">
        <ele>893.33203125</ele>
        <time>2012-05-13T09:37:01Z</time>
      </trkpt>
      <trkpt lat="48.0027" lon="6.9431">
        <ele>900.77734375</ele>
        <time>2012-05-13T09:37:21Z</time>
      </trkpt>
      <trkpt lat="48.00249" lon="6.94317">
        <ele>908.1171875</ele>
        <time>2012-05-13T09:37:35Z</time>
      </trkpt>
      <trkpt lat="48.00238" lon="6.94319">
        <ele>911.7578125</ele>
        <time>2012-05-13T09:37:43Z</time>
      </trkpt>
      <trkpt lat="48.00219" lon="6.94318">
        <ele>918.62890625</ele>
        <time>2012-05-13T09:37:57Z</time>
      </trkpt>
      <trkpt lat="48.00202" lon="6.94288">
        <ele>921.58203125</ele>
        <time>2012-05-13T09:38:14Z</time>
      </trkpt>
      <trkpt lat="48.00186" lon="6.94254">
        <ele>923.34765625</ele>
        <time>2012-05-13T09:38:31Z</time>
      </trkpt>
      <trkpt lat="48.00174" lon="6.94229">
        <ele>924.1171875</ele>
        <time>2012-05-13T09:38:45Z</time>
      </trkpt>
      <trkpt lat="48.00153" lon="6.94189">
        <ele>926.45703125</ele>
        <time>2012-05-13T09:39:07Z</time>
      </trkpt>
      <trkpt lat="48.00124" lon="6.94169">
        <ele>936.046875</ele>
        <time>2012-05-13T09:39:22Z</time>
      </trkpt>
      <trkpt lat="48.00123" lon="6.94165">
        <ele>936.14453125</ele>
        <time>2012-05-13T09:39:24Z</time>
      </trkpt>
      <trkpt lat="48.00119" lon="6.94169">
        <ele>938.87890625</ele>
        <time>2012-05-13T09:39:36Z</time>
      </trkpt>
      <trkpt lat="48.0012" lon="6.9417">
        <ele>938.671875</ele>
        <time>2012-05-13T09:45:43Z</time>
      </trkpt>
      <trkpt lat="48.0012" lon="6.94142">
        <ele>934.05859375</ele>
        <time>2012-05-13T09:45:52Z</time>
      </trkpt>
      <trkpt lat="48.00109" lon="6.9406">
        <ele>922.24609375</ele>
        <time>2012-05-13T09:46:00Z</time>
      </trkpt>
      <trkpt lat="48.00108" lon="6.94046">
        <ele>919.36328125</ele>
        <time>2012-05-13T09:46:01Z</time>
      </trkpt>
      <trkpt lat="48.00092" lon="6.93983">
        <ele>910.9140625</ele>
        <time>2012-05-13T09:46:06Z</time>
      </trkpt>
      <trkpt lat="48.00043" lon="6.93904">
        <ele>911.9296875</ele>
        <time>2012-05-13T09:46:16Z</time>
      </trkpt>
      <trkpt lat="48.00013" lon="6.93869">
        <ele>915.60546875</ele>
        <time>2012-05-13T09:46:27Z</time>
      </trkpt>
      <trkpt lat="47.99978" lon="6.93826">
        <ele>916.4375</ele>
        <time>2012-05-13T09:46:43Z</time>
      </trkpt>
      <trkpt lat="47.99943" lon="6.93804">
        <ele>920.2421875</ele>
        <time>2012-05-13T09:47:00Z</time>
      </trkpt>
      <trkpt lat="47.9992" lon="6.93791">
        <ele>921.6953125</ele>
        <time>2012-05-13T09:47:15Z</time>
      </trkpt>
      <trkpt lat="47.99883" lon="6.93772">
        <ele>920.1796875</ele>
        <time>2012-05-13T09:47:37Z</time>
      </trkpt>
      <trkpt lat="47.99852" lon="6.93778">
        <ele>926.41796875</ele>
        <time>2012-05-13T09:47:55Z</time>
      </trkpt>
      <trkpt lat="47.99825" lon="6.93793">
        <ele>935.5625</ele>
        <time>2012-05-13T09:48:10Z</time>
      </trkpt>
      <trkpt lat="47.99789" lon="6.9378">
        <ele>935.10546875</ele>
        <time>2012-05-13T09:48:31Z</time>
      </trkpt>
      <trkpt lat="47.99755" lon="6.93778">
        <ele>940.83984375</ele>
        <time>2012-05-13T09:48:48Z</time>
      </trkpt>
      <trkpt lat="47.99729" lon="6.93765">
        <ele>943.765625</ele>
        <time>2012-05-13T09:49:04Z</time>
      </trkpt>
      <trkpt lat="47.99687" lon="6.93718">
        <ele>942.01171875</ele>
        <time>2012-05-13T09:49:30Z</time>
      </trkpt>
      <trkpt lat="47.99657" lon="6.93697">
        <ele>943.46484375</ele>
        <time>2012-05-13T09:49:43Z</time>
      </trkpt>
      <trkpt lat="47.99615" lon="6.93675">
        <ele>947.52734375</ele>
        <time>2012-05-13T09:50:03Z</time>
      </trkpt>
      <trkpt lat="47.99584" lon="6.93667">
        <ele>953.1875</ele>
        <time>2012-05-13T09:50:18Z</time>
      </trkpt>
      <trkpt lat="47.99557" lon="6.93661">
        <ele>958.3359375</ele>
        <time>2012-05-13T09:50:34Z</time>
      </trkpt>
      <trkpt lat="47.99526" lon="6.93648">
        <ele>961.54296875</ele>
        <time>2012-05-13T09:50:53Z</time>
      </trkpt>
      <trkpt lat="47.99502" lon="6.9364">
        <ele>965.2578125</ele>
        <time>2012-05-13T09:51:06Z</time>
      </trkpt>
      <trkpt lat="47.99483" lon="6.93635">
        <ele>968.796875</ele>
        <time>2012-05-13T09:51:17Z</time>
      </trkpt>
      <trkpt lat="47.99461" lon="6.93627">
        <ele>971.30859375</ele>
        <time>2012-05-13T09:51:27Z</time>
      </trkpt>
      <trkpt lat="47.99443" lon="6.93621">
        <ele>974.1875</ele>
        <time>2012-05-13T09:51:36Z</time>
      </trkpt>
      <trkpt lat="47.99416" lon="6.93608">
        <ele>977.4375</ele>
        <time>2012-05-13T09:51:49Z</time>
      </trkpt>
      <trkpt lat="47.99391" lon="6.93589">
        <ele>980.734375</ele>
        <time>2012-05-13T09:52:02Z</time>
      </trkpt>
      <trkpt lat="47.99358" lon="6.93548">
        <ele>984.5390625</ele>
        <time>2012-05-13T09:52:19Z</time>
      </trkpt>
      <trkpt lat="47.9935" lon="6.93496">
        <ele>979.3671875</ele>
        <time>2012-05-13T09:52:33Z</time>
      </trkpt>
      <trkpt lat="47.99348" lon="6.9348">
        <ele>978.50390625</ele>
        <time>2012-05-13T09:52:37Z</time>
      </trkpt>
      <trkpt lat="47.99333" lon="6.93433">
        <ele>981.6015625</ele>
        <time>2012-05-13T09:52:49Z</time>
      </trkpt>
      <trkpt lat="47.9933" lon="6.93417">
        <ele>982.09375</ele>
        <time>2012-05-13T09:52:52Z</time>
      </trkpt>
      <trkpt lat="47.99322" lon="6.93355">
        <ele>982.2109375</ele>
        <time>2012-05-13T09:53:03Z</time>
      </trkpt>
      <trkpt lat="47.99313" lon="6.93292">
        <ele>982.8828125</ele>
        <time>2012-05-13T09:53:14Z</time>
      </trkpt>
      <trkpt lat="47.99303" lon="6.93252">
        <ele>985.5703125</ele>
        <time>2012-05-13T09:53:22Z</time>
      </trkpt>
      <trkpt lat="47.99305" lon="6.93157">
        <ele>986.265625</ele>
        <time>2012-05-13T09:53:40Z</time>
      </trkpt>
      <trkpt lat="47.99308" lon="6.93106">
        <ele>986.35546875</ele>
        <time>2012-05-13T09:53:49Z</time>
      </trkpt>
      <trkpt lat="47.9931" lon="6.93094">
        <ele>985.71484375</ele>
        <time>2012-05-13T09:53:52Z</time>
      </trkpt>
      <trkpt lat="47.99305" lon="6.93041">
        <ele>990.4296875</ele>
        <time>2012-05-13T09:54:02Z</time>
      </trkpt>
      <trkpt lat="47.99315" lon="6.92982">
        <ele>996.32421875</ele>
        <time>2012-05-13T09:54:14Z</time>
      </trkpt>
      <trkpt lat="47.99345" lon="6.92936">
        <ele>999.4609375</ele>
        <time>2012-05-13T09:54:30Z</time>
      </trkpt>
      <trkpt lat="47.99379" lon="6.92916">
        <ele>998.51171875</ele>
        <time>2012-05-13T09:54:44Z</time>
      </trkpt>
      <trkpt lat="47.99406" lon="6.92883">
        <ele>999.08984375</ele>
        <time>2012-05-13T09:55:00Z</time>
      </trkpt>
      <trkpt lat="47.99408" lon="6.92878">
        <ele>999.36328125</ele>
        <time>2012-05-13T09:55:02Z</time>
      </trkpt>
      <trkpt lat="47.99403" lon="6.92834">
        <ele>1002.10546875</ele>
        <time>2012-05-13T09:55:19Z</time>
      </trkpt>
      <trkpt lat="47.994" lon="6.92821">
        <ele>1002.23828125</ele>
        <time>2012-05-13T09:55:23Z</time>
      </trkpt>
      <trkpt lat="47.99385" lon="6.92792">
        <ele>1003.91015625</ele>
        <time>2012-05-13T09:55:37Z</time>
      </trkpt>
      <trkpt lat="47.9937" lon="6.92759">
        <ele>1004.359375</ele>
        <time>2012-05-13T09:55:54Z</time>
      </trkpt>
      <trkpt lat="47.99355" lon="6.92726">
        <ele>1004.69921875</ele>
        <time>2012-05-13T09:56:11Z</time>
      </trkpt>
      <trkpt lat="47.99339" lon="6.92704">
        <ele>1007.0078125</ele>
        <time>2012-05-13T09:56:26Z</time>
      </trkpt>
      <trkpt lat="47.99337" lon="6.92702">
        <ele>1007.43359375</ele>
        <time>2012-05-13T09:56:28Z</time>
      </trkpt>
      <trkpt lat="47.99331" lon="6.92695">
        <ele>1008.62109375</ele>
        <time>2012-05-13T09:56:33Z</time>
      </trkpt>
      <trkpt lat="47.99321" lon="6.92678">
        <ele>1009.66015625</ele>
        <time>2012-05-13T09:56:43Z</time>
      </trkpt>
      <trkpt lat="47.99305" lon="6.92658">
        <ele>1012.53125</ele>
        <time>2012-05-13T09:56:57Z</time>
      </trkpt>
      <trkpt lat="47.99292" lon="6.92643">
        <ele>1014.65234375</ele>
        <time>2012-05-13T09:57:08Z</time>
      </trkpt>
      <trkpt lat="47.99279" lon="6.92627">
        <ele>1016.140625</ele>
        <time>2012-05-13T09:57:21Z</time>
      </trkpt>
      <trkpt lat="47.99253" lon="6.92614">
        <ele>1021.20703125</ele>
        <time>2012-05-13T09:57:41Z</time>
      </trkpt>
      <trkpt lat="47.99242" lon="6.92605">
        <ele>1023.0703125</ele>
        <time>2012-05-13T09:57:51Z</time>
      </trkpt>
      <trkpt lat="47.99224" lon="6.92579">
        <ele>1024.71484375</ele>
        <time>2012-05-13T09:58:09Z</time>
      </trkpt>
      <trkpt lat="47.99202" lon="6.92556">
        <ele>1033.046875</ele>
        <time>2012-05-13T09:58:29Z</time>
      </trkpt>
      <trkpt lat="47.99195" lon="6.92518">
        <ele>1037.1171875</ele>
        <time>2012-05-13T09:58:46Z</time>
      </trkpt>
      <trkpt lat="47.99201" lon="6.92468">
        <ele>1038.47265625</ele>
        <time>2012-05-13T09:59:07Z</time>
      </trkpt>
      <trkpt lat="47.99202" lon="6.92435">
        <ele>1040.63671875</ele>
        <time>2012-05-13T09:59:22Z</time>
      </trkpt>
      <trkpt lat="47.99202" lon="6.92415">
        <ele>1042.46875</ele>
        <time>2012-05-13T09:59:30Z</time>
      </trkpt>
      <trkpt lat="47.99202" lon="6.92385">
        <ele>1043.37890625</ele>
        <time>2012-05-13T09:59:44Z</time>
      </trkpt>
      <trkpt lat="47.99201" lon="6.92364">
        <ele>1043.91796875</ele>
        <time>2012-05-13T09:59:53Z</time>
      </trkpt>
      <trkpt lat="47.99194" lon="6.92322">
        <ele>1044.58203125</ele>
        <time>2012-05-13T10:00:11Z</time>
      </trkpt>
      <trkpt lat="47.9918" lon="6.92269">
        <ele>1041.19140625</ele>
        <time>2012-05-13T10:00:33Z</time>
      </trkpt>
      <trkpt lat="47.9917" lon="6.92255">
        <ele>1039.91796875</ele>
        <time>2012-05-13T10:00:41Z</time>
      </trkpt>
      <trkpt lat="47.99166" lon="6.9225">
        <ele>1039.4375</ele>
        <time>2012-05-13T10:00:45Z</time>
      </trkpt>
      <trkpt lat="47.99141" lon="6.92236">
        <ele>1039.54296875</ele>
        <time>2012-05-13T10:01:03Z</time>
      </trkpt>
      <trkpt lat="47.99115" lon="6.92241">
        <ele>1044.04296875</ele>
        <time>2012-05-13T10:01:20Z</time>
      </trkpt>
      <trkpt lat="47.99112" lon="6.9225">
        <ele>1047.0703125</ele>
        <time>2012-05-13T10:01:25Z</time>
      </trkpt>
      <trkpt lat="47.99112" lon="6.92257">
        <ele>1049.078125</ele>
        <time>2012-05-13T10:01:29Z</time>
      </trkpt>
      <trkpt lat="47.99117" lon="6.92263">
        <ele>1050.015625</ele>
        <time>2012-05-13T10:01:34Z</time>
      </trkpt>
      <trkpt lat="47.99137" lon="6.92297">
        <ele>1055.94921875</ele>
        <time>2012-05-13T10:01:51Z</time>
      </trkpt>
      <trkpt lat="47.99139" lon="6.92336">
        <ele>1058.19921875</ele>
        <time>2012-05-13T10:02:03Z</time>
      </trkpt>
      <trkpt lat="47.9914" lon="6.92352">
        <ele>1058.7109375</ele>
        <time>2012-05-13T10:02:09Z</time>
      </trkpt>
      <trkpt lat="47.99139" lon="6.92393">
        <ele>1059.9140625</ele>
        <time>2012-05-13T10:02:21Z</time>
      </trkpt>
      <trkpt lat="47.99128" lon="6.92447">
        <ele>1061.4375</ele>
        <time>2012-05-13T10:02:36Z</time>
      </trkpt>
      <trkpt lat="47.99125" lon="6.92456">
        <ele>1061.703125</ele>
        <time>2012-05-13T10:02:39Z</time>
      </trkpt>
      <trkpt lat="47.99114" lon="6.92476">
        <ele>1063.48046875</ele>
        <time>2012-05-13T10:02:46Z</time>
      </trkpt>
      <trkpt lat="47.99101" lon="6.92522">
        <ele>1065.12109375</ele>
        <time>2012-05-13T10:02:59Z</time>
      </trkpt>
      <trkpt lat="47.99099" lon="6.92526">
        <ele>1065.29296875</ele>
        <time>2012-05-13T10:03:00Z</time>
      </trkpt>
      <trkpt lat="47.9909" lon="6.9257">
        <ele>1065.79296875</ele>
        <time>2012-05-13T10:03:13Z</time>
      </trkpt>
      <trkpt lat="47.99089" lon="6.92605">
        <ele>1065.53125</ele>
        <time>2012-05-13T10:03:22Z</time>
      </trkpt>
      <trkpt lat="47.99091" lon="6.92616">
        <ele>1065.15625</ele>
        <time>2012-05-13T10:03:24Z</time>
      </trkpt>
      <trkpt lat="47.99086" lon="6.92632">
        <ele>1065.71484375</ele>
        <time>2012-05-13T10:03:28Z</time>
      </trkpt>
      <trkpt lat="47.99069" lon="6.92695">
        <ele>1066.546875</ele>
        <time>2012-05-13T10:03:44Z</time>
      </trkpt>
      <trkpt lat="47.99066" lon="6.92713">
        <ele>1066.4140625</ele>
        <time>2012-05-13T10:03:49Z</time>
      </trkpt>
      <trkpt lat="47.99052" lon="6.92721">
        <ele>1065.7734375</ele>
        <time>2012-05-13T10:03:58Z</time>
      </trkpt>
      <trkpt lat="47.99048" lon="6.92719">
        <ele>1065.53515625</ele>
        <time>2012-05-13T10:04:01Z</time>
      </trkpt>
      <trkpt lat="47.99044" lon="6.92704">
        <ele>1065.03515625</ele>
        <time>2012-05-13T10:04:07Z</time>
      </trkpt>
      <trkpt lat="47.99048" lon="6.92692">
        <ele>1065.078125</ele>
        <time>2012-05-13T10:04:14Z</time>
      </trkpt>
      <trkpt lat="47.9905" lon="6.92688">
        <ele>1065.10546875</ele>
        <time>2012-05-13T10:04:16Z</time>
      </trkpt>
      <trkpt lat="47.99054" lon="6.92683">
        <ele>1065.48046875</ele>
        <time>2012-05-13T10:04:20Z</time>
      </trkpt>
      <trkpt lat="47.99061" lon="6.92682">
        <ele>1065.94921875</ele>
        <time>2012-05-13T10:04:33Z</time>
      </trkpt>
      <trkpt lat="47.99053" lon="6.92691">
        <ele>1065.390625</ele>
        <time>2012-05-13T11:18:49Z</time>
      </trkpt>
      <trkpt lat="47.99049" lon="6.92692">
        <ele>1065.08203125</ele>
        <time>2012-05-13T11:18:53Z</time>
      </trkpt>
      <trkpt lat="47.99047" lon="6.92694">
        <ele>1064.97265625</ele>
        <time>2012-05-13T11:18:55Z</time>
      </trkpt>
      <trkpt lat="47.99048" lon="6.92697">
        <ele>1065.109375</ele>
        <time>2012-05-13T11:19:14Z</time>
      </trkpt>
      <trkpt lat="47.99047" lon="6.92697">
        <ele>1065.08984375</ele>
        <time>2012-05-13T11:20:14Z</time>
      </trkpt>
      <trkpt lat="47.99048" lon="6.92697">
        <ele>1065.09765625</ele>
        <time>2012-05-13T11:20:34Z</time>
      </trkpt>
      <trkpt lat="47.99048" lon="6.92701">
        <ele>1065.19140625</ele>
        <time>2012-05-13T11:20:37Z</time>
      </trkpt>
      <trkpt lat="47.99039" lon="6.92733">
        <ele>1065.4140625</ele>
        <time>2012-05-13T11:20:49Z</time>
      </trkpt>
      <trkpt lat="47.9904" lon="6.92738">
        <ele>1065.55078125</ele>
        <time>2012-05-13T11:20:51Z</time>
      </trkpt>
      <trkpt lat="47.99041" lon="6.92765">
        <ele>1066.56640625</ele>
        <time>2012-05-13T11:21:00Z</time>
      </trkpt>
      <trkpt lat="47.99042" lon="6.92775">
        <ele>1066.9765625</ele>
        <time>2012-05-13T11:21:05Z</time>
      </trkpt>
      <trkpt lat="47.99043" lon="6.9278">
        <ele>1067.21875</ele>
        <time>2012-05-13T11:21:09Z</time>
      </trkpt>
      <trkpt lat="47.99043" lon="6.92817">
        <ele>1068.65234375</ele>
        <time>2012-05-13T11:21:23Z</time>
      </trkpt>
      <trkpt lat="47.99045" lon="6.9283">
        <ele>1069.140625</ele>
        <time>2012-05-13T11:21:31Z</time>
      </trkpt>
      <trkpt lat="47.99046" lon="6.92838">
        <ele>1069.42578125</ele>
        <time>2012-05-13T11:21:36Z</time>
      </trkpt>
      <trkpt lat="47.99059" lon="6.92849">
        <ele>1069.4140625</ele>
        <time>2012-05-13T11:21:43Z</time>
      </trkpt>
      <trkpt lat="47.99072" lon="6.92852">
        <ele>1069.08203125</ele>
        <time>2012-05-13T11:21:47Z</time>
      </trkpt>
      <trkpt lat="47.99077" lon="6.92859">
        <ele>1068.89453125</ele>
        <time>2012-05-13T11:21:50Z</time>
      </trkpt>
      <trkpt lat="47.99079" lon="6.92848">
        <ele>1068.66015625</ele>
        <time>2012-05-13T11:21:57Z</time>
      </trkpt>
      <trkpt lat="47.9908" lon="6.92841">
        <ele>1068.48046875</ele>
        <time>2012-05-13T11:22:04Z</time>
      </trkpt>
      <trkpt lat="47.99077" lon="6.92807">
        <ele>1068.03125</ele>
        <time>2012-05-13T11:22:15Z</time>
      </trkpt>
      <trkpt lat="47.99066" lon="6.92736">
        <ele>1066.58203125</ele>
        <time>2012-05-13T11:22:27Z</time>
      </trkpt>
      <trkpt lat="47.99077" lon="6.92689">
        <ele>1066.8984375</ele>
        <time>2012-05-13T11:22:38Z</time>
      </trkpt>
      <trkpt lat="47.99089" lon="6.92653">
        <ele>1065.5625</ele>
        <time>2012-05-13T11:22:44Z</time>
      </trkpt>
      <trkpt lat="47.99108" lon="6.92631">
        <ele>1062.9453125</ele>
        <time>2012-05-13T11:22:49Z</time>
      </trkpt>
      <trkpt lat="47.99114" lon="6.92614">
        <ele>1061.83203125</ele>
        <time>2012-05-13T11:22:51Z</time>
      </trkpt>
      <trkpt lat="47.99122" lon="6.92582">
        <ele>1059.8125</ele>
        <time>2012-05-13T11:22:54Z</time>
      </trkpt>
      <trkpt lat="47.99136" lon="6.92561">
        <ele>1056.62890625</ele>
        <time>2012-05-13T11:22:58Z</time>
      </trkpt>
      <trkpt lat="47.99148" lon="6.92543">
        <ele>1053</ele>
        <time>2012-05-13T11:23:01Z</time>
      </trkpt>
      <trkpt lat="47.99157" lon="6.92541">
        <ele>1049.68359375</ele>
        <time>2012-05-13T11:23:05Z</time>
      </trkpt>
      <trkpt lat="47.99163" lon="6.92552">
        <ele>1047.51171875</ele>
        <time>2012-05-13T11:23:07Z</time>
      </trkpt>
      <trkpt lat="47.99179" lon="6.92542">
        <ele>1042.07421875</ele>
        <time>2012-05-13T11:23:13Z</time>
      </trkpt>
      <trkpt lat="47.99182" lon="6.92538">
        <ele>1041.26171875</ele>
        <time>2012-05-13T11:23:14Z</time>
      </trkpt>
      <trkpt lat="47.9919" lon="6.9253">
        <ele>1038.64453125</ele>
        <time>2012-05-13T11:23:17Z</time>
      </trkpt>
      <trkpt lat="47.99197" lon="6.92552">
        <ele>1034.9765625</ele>
        <time>2012-05-13T11:23:22Z</time>
      </trkpt>
      <trkpt lat="47.99205" lon="6.92556">
        <ele>1031.98046875</ele>
        <time>2012-05-13T11:23:30Z</time>
      </trkpt>
      <trkpt lat="47.99206" lon="6.92557">
        <ele>1031.4296875</ele>
        <time>2012-05-13T11:23:32Z</time>
      </trkpt>
      <trkpt lat="47.99202" lon="6.92557">
        <ele>1032.96484375</ele>
        <time>2012-05-13T11:23:41Z</time>
      </trkpt>
      <trkpt lat="47.99202" lon="6.92556">
        <ele>1033.06640625</ele>
        <time>2012-05-13T11:24:11Z</time>
      </trkpt>
      <trkpt lat="47.99208" lon="6.92562">
        <ele>1030.52734375</ele>
        <time>2012-05-13T11:24:16Z</time>
      </trkpt>
      <trkpt lat="47.99237" lon="6.92594">
        <ele>1022.8984375</ele>
        <time>2012-05-13T11:24:22Z</time>
      </trkpt>
      <trkpt lat="47.99261" lon="6.92602">
        <ele>1016.62890625</ele>
        <time>2012-05-13T11:24:28Z</time>
      </trkpt>
      <trkpt lat="47.99259" lon="6.92598">
        <ele>1016.5390625</ele>
        <time>2012-05-13T11:24:29Z</time>
      </trkpt>
      <trkpt lat="47.99249" lon="6.92539">
        <ele>1014.1171875</ele>
        <time>2012-05-13T11:24:40Z</time>
      </trkpt>
      <trkpt lat="47.99257" lon="6.92537">
        <ele>1011</ele>
        <time>2012-05-13T11:24:44Z</time>
      </trkpt>
      <trkpt lat="47.99266" lon="6.92539">
        <ele>1007.703125</ele>
        <time>2012-05-13T11:24:46Z</time>
      </trkpt>
      <trkpt lat="47.99283" lon="6.92549">
        <ele>1001.88671875</ele>
        <time>2012-05-13T11:24:50Z</time>
      </trkpt>
      <trkpt lat="47.99349" lon="6.92583">
        <ele>986.11328125</ele>
        <time>2012-05-13T11:25:00Z</time>
      </trkpt>
      <trkpt lat="47.99379" lon="6.92621">
        <ele>984.71875</ele>
        <time>2012-05-13T11:25:05Z</time>
      </trkpt>
      <trkpt lat="47.99389" lon="6.92636">
        <ele>984.33984375</ele>
        <time>2012-05-13T11:25:07Z</time>
      </trkpt>
      <trkpt lat="47.99407" lon="6.92659">
        <ele>982.2109375</ele>
        <time>2012-05-13T11:25:10Z</time>
      </trkpt>
      <trkpt lat="47.99423" lon="6.927">
        <ele>983.484375</ele>
        <time>2012-05-13T11:25:14Z</time>
      </trkpt>
      <trkpt lat="47.99438" lon="6.92722">
        <ele>981.75390625</ele>
        <time>2012-05-13T11:25:16Z</time>
      </trkpt>
      <trkpt lat="47.99507" lon="6.92809">
        <ele>969.92578125</ele>
        <time>2012-05-13T11:25:25Z</time>
      </trkpt>
      <trkpt lat="47.99515" lon="6.92818">
        <ele>968.73828125</ele>
        <time>2012-05-13T11:25:26Z</time>
      </trkpt>
      <trkpt lat="47.9954" lon="6.92839">
        <ele>963.98828125</ele>
        <time>2012-05-13T11:25:29Z</time>
      </trkpt>
      <trkpt lat="47.99544" lon="6.9283">
        <ele>961.3984375</ele>
        <time>2012-05-13T11:25:33Z</time>
      </trkpt>
      <trkpt lat="47.99545" lon="6.928">
        <ele>956.56640625</ele>
        <time>2012-05-13T11:25:37Z</time>
      </trkpt>
      <trkpt lat="47.99539" lon="6.92744">
        <ele>951.06640625</ele>
        <time>2012-05-13T11:25:42Z</time>
      </trkpt>
      <trkpt lat="47.99515" lon="6.92656">
        <ele>945.6328125</ele>
        <time>2012-05-13T11:25:48Z</time>
      </trkpt>
      <trkpt lat="47.99499" lon="6.92569">
        <ele>932.6953125</ele>
        <time>2012-05-13T11:25:54Z</time>
      </trkpt>
      <trkpt lat="47.99495" lon="6.9252">
        <ele>921.84765625</ele>
        <time>2012-05-13T11:25:58Z</time>
      </trkpt>
      <trkpt lat="47.9948" lon="6.92489">
        <ele>921.4140625</ele>
        <time>2012-05-13T11:26:02Z</time>
      </trkpt>
      <trkpt lat="47.99471" lon="6.92472">
        <ele>921.51953125</ele>
        <time>2012-05-13T11:26:04Z</time>
      </trkpt>
      <trkpt lat="47.99429" lon="6.92449">
        <ele>939.5703125</ele>
        <time>2012-05-13T11:26:14Z</time>
      </trkpt>
      <trkpt lat="47.99417" lon="6.92442">
        <ele>946.09375</ele>
        <time>2012-05-13T11:26:20Z</time>
      </trkpt>
      <trkpt lat="47.99413" lon="6.92432">
        <ele>949.11328125</ele>
        <time>2012-05-13T11:26:25Z</time>
      </trkpt>
      <trkpt lat="47.99418" lon="6.92407">
        <ele>949.94921875</ele>
        <time>2012-05-13T11:26:36Z</time>
      </trkpt>
      <trkpt lat="47.99426" lon="6.92396">
        <ele>947.7421875</ele>
        <time>2012-05-13T11:26:43Z</time>
      </trkpt>
      <trkpt lat="47.99432" lon="6.92389">
        <ele>945.953125</ele>
        <time>2012-05-13T11:26:47Z</time>
      </trkpt>
      <trkpt lat="47.99444" lon="6.92365">
        <ele>943.75390625</ele>
        <time>2012-05-13T11:27:01Z</time>
      </trkpt>
      <trkpt lat="47.99451" lon="6.9235">
        <ele>941.44140625</ele>
        <time>2012-05-13T11:27:19Z</time>
      </trkpt>
      <trkpt lat="47.99449" lon="6.92354">
        <ele>942.53125</ele>
        <time>2012-05-13T11:27:33Z</time>
      </trkpt>
      <trkpt lat="47.99448" lon="6.9235">
        <ele>943.30859375</ele>
        <time>2012-05-13T11:30:26Z</time>
      </trkpt>
      <trkpt lat="47.99459" lon="6.92313">
        <ele>939.890625</ele>
        <time>2012-05-13T11:30:34Z</time>
      </trkpt>
      <trkpt lat="47.99457" lon="6.92224">
        <ele>929.37890625</ele>
        <time>2012-05-13T11:30:42Z</time>
      </trkpt>
      <trkpt lat="47.99459" lon="6.92177">
        <ele>916.57421875</ele>
        <time>2012-05-13T11:30:48Z</time>
      </trkpt>
      <trkpt lat="47.99457" lon="6.9216">
        <ele>912.484375</ele>
        <time>2012-05-13T11:30:50Z</time>
      </trkpt>
      <trkpt lat="47.9945" lon="6.92127">
        <ele>904.90625</ele>
        <time>2012-05-13T11:30:54Z</time>
      </trkpt>
      <trkpt lat="47.99456" lon="6.92121">
        <ele>900.703125</ele>
        <time>2012-05-13T11:30:58Z</time>
      </trkpt>
      <trkpt lat="47.99471" lon="6.92122">
        <ele>895.29296875</ele>
        <time>2012-05-13T11:31:01Z</time>
      </trkpt>
      <trkpt lat="47.99493" lon="6.9213">
        <ele>889.609375</ele>
        <time>2012-05-13T11:31:05Z</time>
      </trkpt>
      <trkpt lat="47.9953" lon="6.92135">
        <ele>876.15625</ele>
        <time>2012-05-13T11:31:11Z</time>
      </trkpt>
      <trkpt lat="47.99538" lon="6.92108">
        <ele>863.07421875</ele>
        <time>2012-05-13T11:31:17Z</time>
      </trkpt>
      <trkpt lat="47.9953" lon="6.92049">
        <ele>847.30078125</ele>
        <time>2012-05-13T11:31:27Z</time>
      </trkpt>
      <trkpt lat="47.99505" lon="6.92004">
        <ele>841.19921875</ele>
        <time>2012-05-13T11:31:36Z</time>
      </trkpt>
      <trkpt lat="47.99497" lon="6.91989">
        <ele>838.87890625</ele>
        <time>2012-05-13T11:31:38Z</time>
      </trkpt>
      <trkpt lat="47.99488" lon="6.91973">
        <ele>836.265625</ele>
        <time>2012-05-13T11:31:42Z</time>
      </trkpt>
      <trkpt lat="47.99478" lon="6.91965">
        <ele>836.49609375</ele>
        <time>2012-05-13T11:31:51Z</time>
      </trkpt>
      <trkpt lat="47.99479" lon="6.91965">
        <ele>836.328125</ele>
        <time>2012-05-13T11:32:25Z</time>
      </trkpt>
      <trkpt lat="47.99479" lon="6.91962">
        <ele>835.3359375</ele>
        <time>2012-05-13T11:33:01Z</time>
      </trkpt>
      <trkpt lat="47.99455" lon="6.91947">
        <ele>838.30078125</ele>
        <time>2012-05-13T11:33:13Z</time>
      </trkpt>
      <trkpt lat="47.99453" lon="6.91944">
        <ele>837.77734375</ele>
        <time>2012-05-13T11:33:15Z</time>
      </trkpt>
      <trkpt lat="47.99447" lon="6.91941">
        <ele>838.859375</ele>
        <time>2012-05-13T11:33:18Z</time>
      </trkpt>
      <trkpt lat="47.99426" lon="6.91931">
        <ele>842.4609375</ele>
        <time>2012-05-13T11:33:29Z</time>
      </trkpt>
      <trkpt lat="47.9942" lon="6.91928">
        <ele>843.703125</ele>
        <time>2012-05-13T11:33:34Z</time>
      </trkpt>
      <trkpt lat="47.99401" lon="6.91917">
        <ele>846.46875</ele>
        <time>2012-05-13T11:33:46Z</time>
      </trkpt>
      <trkpt lat="47.9938" lon="6.91898">
        <ele>848.80078125</ele>
        <time>2012-05-13T11:33:59Z</time>
      </trkpt>
      <trkpt lat="47.99367" lon="6.91882">
        <ele>848.9453125</ele>
        <time>2012-05-13T11:34:10Z</time>
      </trkpt>
      <trkpt lat="47.99349" lon="6.91861">
        <ele>849.703125</ele>
        <time>2012-05-13T11:34:24Z</time>
      </trkpt>
      <trkpt lat="47.99347" lon="6.91856">
        <ele>848.90625</ele>
        <time>2012-05-13T11:34:27Z</time>
      </trkpt>
      <trkpt lat="47.99343" lon="6.91848">
        <ele>848.41015625</ele>
        <time>2012-05-13T11:34:33Z</time>
      </trkpt>
      <trkpt lat="47.99331" lon="6.91839">
        <ele>850.5859375</ele>
        <time>2012-05-13T11:34:41Z</time>
      </trkpt>
      <trkpt lat="47.99314" lon="6.91816">
        <ele>851.3828125</ele>
        <time>2012-05-13T11:34:55Z</time>
      </trkpt>
      <trkpt lat="47.99292" lon="6.91791">
        <ele>853.875</ele>
        <time>2012-05-13T11:35:13Z</time>
      </trkpt>
      <trkpt lat="47.99287" lon="6.91783">
        <ele>854.59765625</ele>
        <time>2012-05-13T11:35:18Z</time>
      </trkpt>
      <trkpt lat="47.99287" lon="6.91783">
        <ele>854.48046875</ele>
        <time>2012-05-13T11:35:31Z</time>
      </trkpt>
      <trkpt lat="47.99287" lon="6.91784">
        <ele>854.69140625</ele>
        <time>2012-05-13T11:36:03Z</time>
      </trkpt>
      <trkpt lat="47.99306" lon="6.91774">
        <ele>848.8984375</ele>
        <time>2012-05-13T11:36:11Z</time>
      </trkpt>
      <trkpt lat="47.99309" lon="6.91772">
        <ele>847.94921875</ele>
        <time>2012-05-13T11:36:12Z</time>
      </trkpt>
      <trkpt lat="47.99322" lon="6.91758">
        <ele>842.76171875</ele>
        <time>2012-05-13T11:36:17Z</time>
      </trkpt>
      <trkpt lat="47.99329" lon="6.91755">
        <ele>840.1875</ele>
        <time>2012-05-13T11:36:19Z</time>
      </trkpt>
      <trkpt lat="47.99347" lon="6.9176">
        <ele>834.34765625</ele>
        <time>2012-05-13T11:36:26Z</time>
      </trkpt>
      <trkpt lat="47.99362" lon="6.91774">
        <ele>830.953125</ele>
        <time>2012-05-13T11:36:32Z</time>
      </trkpt>
      <trkpt lat="47.99381" lon="6.91788">
        <ele>826.3046875</ele>
        <time>2012-05-13T11:36:41Z</time>
      </trkpt>
      <trkpt lat="47.99382" lon="6.9179">
        <ele>826.015625</ele>
        <time>2012-05-13T11:36:42Z</time>
      </trkpt>
      <trkpt lat="47.99396" lon="6.91804">
        <ele>823.5078125</ele>
        <time>2012-05-13T11:36:46Z</time>
      </trkpt>
      <trkpt lat="47.99412" lon="6.91811">
        <ele>820.0078125</ele>
        <time>2012-05-13T11:36:49Z</time>
      </trkpt>
      <trkpt lat="47.99444" lon="6.91841">
        <ele>816.44921875</ele>
        <time>2012-05-13T11:36:56Z</time>
      </trkpt>
      <trkpt lat="47.99469" lon="6.91854">
        <ele>811.51171875</ele>
        <time>2012-05-13T11:37:00Z</time>
      </trkpt>
      <trkpt lat="47.99485" lon="6.91861">
        <ele>809.12109375</ele>
        <time>2012-05-13T11:37:02Z</time>
      </trkpt>
      <trkpt lat="47.99511" lon="6.91867">
        <ele>804.3828125</ele>
        <time>2012-05-13T11:37:06Z</time>
      </trkpt>
      <trkpt lat="47.99593" lon="6.91918">
        <ele>795.36328125</ele>
        <time>2012-05-13T11:37:17Z</time>
      </trkpt>
      <trkpt lat="47.99599" lon="6.91921">
        <ele>794.5546875</ele>
        <time>2012-05-13T11:37:18Z</time>
      </trkpt>
      <trkpt lat="47.99648" lon="6.91959">
        <ele>790.0078125</ele>
        <time>2012-05-13T11:37:25Z</time>
      </trkpt>
      <trkpt lat="47.99667" lon="6.91969">
        <ele>786.68359375</ele>
        <time>2012-05-13T11:37:28Z</time>
      </trkpt>
      <trkpt lat="47.99679" lon="6.91975">
        <ele>784.2734375</ele>
        <time>2012-05-13T11:37:30Z</time>
      </trkpt>
      <trkpt lat="47.99701" lon="6.91972">
        <ele>776.953125</ele>
        <time>2012-05-13T11:37:38Z</time>
      </trkpt>
      <trkpt lat="47.99704" lon="6.91959">
        <ele>774.26953125</ele>
        <time>2012-05-13T11:37:49Z</time>
      </trkpt>
      <trkpt lat="47.99734" lon="6.91945">
        <ele>763.1953125</ele>
        <time>2012-05-13T11:37:59Z</time>
      </trkpt>
      <trkpt lat="47.99757" lon="6.91944">
        <ele>755.90234375</ele>
        <time>2012-05-13T11:38:05Z</time>
      </trkpt>
      <trkpt lat="47.9977" lon="6.91964">
        <ele>753.66015625</ele>
        <time>2012-05-13T11:38:09Z</time>
      </trkpt>
      <trkpt lat="47.9981" lon="6.92002">
        <ele>744.484375</ele>
        <time>2012-05-13T11:38:17Z</time>
      </trkpt>
      <trkpt lat="47.99816" lon="6.92011">
        <ele>743.38671875</ele>
        <time>2012-05-13T11:38:18Z</time>
      </trkpt>
      <trkpt lat="47.99833" lon="6.92041">
        <ele>740.37109375</ele>
        <time>2012-05-13T11:38:22Z</time>
      </trkpt>
      <trkpt lat="47.99853" lon="6.9205">
        <ele>734.6171875</ele>
        <time>2012-05-13T11:38:28Z</time>
      </trkpt>
      <trkpt lat="47.99854" lon="6.9205">
        <ele>734.32421875</ele>
        <time>2012-05-13T11:38:29Z</time>
      </trkpt>
      <trkpt lat="47.99854" lon="6.92052">
        <ele>734.4453125</ele>
        <time>2012-05-13T11:38:36Z</time>
      </trkpt>
      <trkpt lat="47.99853" lon="6.92046">
        <ele>734.421875</ele>
        <time>2012-05-13T11:38:46Z</time>
      </trkpt>
      <trkpt lat="47.99854" lon="6.92047">
        <ele>734.24609375</ele>
        <time>2012-05-13T11:40:28Z</time>
      </trkpt>
      <trkpt lat="47.99869" lon="6.9205">
        <ele>731.16796875</ele>
        <time>2012-05-13T11:40:34Z</time>
      </trkpt>
      <trkpt lat="47.99886" lon="6.9206">
        <ele>728.10546875</ele>
        <time>2012-05-13T11:40:38Z</time>
      </trkpt>
      <trkpt lat="47.99896" lon="6.92058">
        <ele>725.9375</ele>
        <time>2012-05-13T11:40:41Z</time>
      </trkpt>
      <trkpt lat="47.99908" lon="6.92064">
        <ele>723.6796875</ele>
        <time>2012-05-13T11:40:45Z</time>
      </trkpt>
      <trkpt lat="47.99922" lon="6.92058">
        <ele>722.49609375</ele>
        <time>2012-05-13T11:40:54Z</time>
      </trkpt>
      <trkpt lat="47.99921" lon="6.92058">
        <ele>722.55078125</ele>
        <time>2012-05-13T11:40:58Z</time>
      </trkpt>
      <trkpt lat="47.99916" lon="6.92055">
        <ele>722.73828125</ele>
        <time>2012-05-13T11:41:01Z</time>
      </trkpt>
      <trkpt lat="47.99907" lon="6.92027">
        <ele>722.4609375</ele>
        <time>2012-05-13T11:41:14Z</time>
      </trkpt>
      <trkpt lat="47.99891" lon="6.91987">
        <ele>724.21875</ele>
        <time>2012-05-13T11:41:30Z</time>
      </trkpt>
      <trkpt lat="47.99878" lon="6.91939">
        <ele>724.43359375</ele>
        <time>2012-05-13T11:41:45Z</time>
      </trkpt>
      <trkpt lat="47.99866" lon="6.9192">
        <ele>725.0546875</ele>
        <time>2012-05-13T11:41:54Z</time>
      </trkpt>
      <trkpt lat="47.99865" lon="6.91916">
        <ele>724.9375</ele>
        <time>2012-05-13T11:42:07Z</time>
      </trkpt>
      <trkpt lat="47.99866" lon="6.91913">
        <ele>724.71875</ele>
        <time>2012-05-13T11:43:59Z</time>
      </trkpt>
      <trkpt lat="47.99873" lon="6.91865">
        <ele>723.00390625</ele>
        <time>2012-05-13T11:44:09Z</time>
      </trkpt>
      <trkpt lat="47.99894" lon="6.9174">
        <ele>722.046875</ele>
        <time>2012-05-13T11:44:29Z</time>
      </trkpt>
      <trkpt lat="47.99895" lon="6.91732">
        <ele>722.21875</ele>
        <time>2012-05-13T11:44:30Z</time>
      </trkpt>
      <trkpt lat="47.9989" lon="6.91677">
        <ele>727.484375</ele>
        <time>2012-05-13T11:44:38Z</time>
      </trkpt>
      <trkpt lat="47.99886" lon="6.91636">
        <ele>733.5234375</ele>
        <time>2012-05-13T11:44:54Z</time>
      </trkpt>
      <trkpt lat="47.99884" lon="6.91621">
        <ele>736.40234375</ele>
        <time>2012-05-13T11:45:02Z</time>
      </trkpt>
      <trkpt lat="47.99881" lon="6.91613">
        <ele>739.32421875</ele>
        <time>2012-05-13T11:45:06Z</time>
      </trkpt>
      <trkpt lat="47.99879" lon="6.91584">
        <ele>745.3828125</ele>
        <time>2012-05-13T11:45:19Z</time>
      </trkpt>
      <trkpt lat="47.99876" lon="6.91546">
        <ele>754.50390625</ele>
        <time>2012-05-13T11:45:37Z</time>
      </trkpt>
      <trkpt lat="47.99875" lon="6.91543">
        <ele>755.5703125</ele>
        <time>2012-05-13T11:45:39Z</time>
      </trkpt>
      <trkpt lat="47.99876" lon="6.91535">
        <ele>756.46875</ele>
        <time>2012-05-13T11:45:43Z</time>
      </trkpt>
      <trkpt lat="47.9988" lon="6.91503">
        <ele>759.6953125</ele>
        <time>2012-05-13T11:45:58Z</time>
      </trkpt>
      <trkpt lat="47.99881" lon="6.91498">
        <ele>759.828125</ele>
        <time>2012-05-13T11:46:00Z</time>
      </trkpt>
      <trkpt lat="47.99884" lon="6.91491">
        <ele>759.125</ele>
        <time>2012-05-13T11:46:03Z</time>
      </trkpt>
      <trkpt lat="47.99888" lon="6.9148">
        <ele>758.59375</ele>
        <time>2012-05-13T11:46:09Z</time>
      </trkpt>
      <trkpt lat="47.99891" lon="6.91473">
        <ele>757.8203125</ele>
        <time>2012-05-13T11:46:13Z</time>
      </trkpt>
      <trkpt lat="47.99905" lon="6.91439">
        <ele>754.75390625</ele>
        <time>2012-05-13T11:46:31Z</time>
      </trkpt>
      <trkpt lat="47.99907" lon="6.91427">
        <ele>755.76171875</ele>
        <time>2012-05-13T11:46:37Z</time>
      </trkpt>
      <trkpt lat="47.9991" lon="6.91387">
        <ele>763.24609375</ele>
        <time>2012-05-13T11:46:55Z</time>
      </trkpt>
      <trkpt lat="47.99916" lon="6.91369">
        <ele>764.41015625</ele>
        <time>2012-05-13T11:47:04Z</time>
      </trkpt>
      <trkpt lat="47.99917" lon="6.91363">
        <ele>764.91015625</ele>
        <time>2012-05-13T11:47:07Z</time>
      </trkpt>
      <trkpt lat="47.99919" lon="6.91353">
        <ele>766.57421875</ele>
        <time>2012-05-13T11:47:11Z</time>
      </trkpt>
      <trkpt lat="47.99925" lon="6.91341">
        <ele>766.20703125</ele>
        <time>2012-05-13T11:47:17Z</time>
      </trkpt>
      <trkpt lat="47.99931" lon="6.91316">
        <ele>768.90625</ele>
        <time>2012-05-13T11:47:29Z</time>
      </trkpt>
      <trkpt lat="47.99934" lon="6.91295">
        <ele>771.8828125</ele>
        <time>2012-05-13T11:47:39Z</time>
      </trkpt>
      <trkpt lat="47.99938" lon="6.91277">
        <ele>774.26953125</ele>
        <time>2012-05-13T11:47:47Z</time>
      </trkpt>
      <trkpt lat="47.99943" lon="6.91241">
        <ele>779.21875</ele>
        <time>2012-05-13T11:48:03Z</time>
      </trkpt>
      <trkpt lat="47.99945" lon="6.91229">
        <ele>781.08984375</ele>
        <time>2012-05-13T11:48:09Z</time>
      </trkpt>
      <trkpt lat="47.99946" lon="6.91221">
        <ele>782.2265625</ele>
        <time>2012-05-13T11:48:13Z</time>
      </trkpt>
      <trkpt lat="47.99947" lon="6.9121">
        <ele>784.83203125</ele>
        <time>2012-05-13T11:48:19Z</time>
      </trkpt>
      <trkpt lat="47.99948" lon="6.912">
        <ele>786.3359375</ele>
        <time>2012-05-13T11:48:24Z</time>
      </trkpt>
      <trkpt lat="47.99956" lon="6.91169">
        <ele>788.484375</ele>
        <time>2012-05-13T11:48:39Z</time>
      </trkpt>
      <trkpt lat="47.99954" lon="6.91166">
        <ele>790.890625</ele>
        <time>2012-05-13T11:48:41Z</time>
      </trkpt>
      <trkpt lat="47.99953" lon="6.9116">
        <ele>793.203125</ele>
        <time>2012-05-13T11:48:44Z</time>
      </trkpt>
      <trkpt lat="47.99959" lon="6.91143">
        <ele>793.28125</ele>
        <time>2012-05-13T11:48:52Z</time>
      </trkpt>
      <trkpt lat="47.99964" lon="6.91131">
        <ele>792.94921875</ele>
        <time>2012-05-13T11:48:59Z</time>
      </trkpt>
      <trkpt lat="47.99975" lon="6.91101">
        <ele>790.78515625</ele>
        <time>2012-05-13T11:49:13Z</time>
      </trkpt>
      <trkpt lat="47.99978" lon="6.91088">
        <ele>791.09375</ele>
        <time>2012-05-13T11:49:19Z</time>
      </trkpt>
      <trkpt lat="47.99987" lon="6.91044">
        <ele>789.26953125</ele>
        <time>2012-05-13T11:49:38Z</time>
      </trkpt>
      <trkpt lat="47.99987" lon="6.91037">
        <ele>790.1015625</ele>
        <time>2012-05-13T11:49:41Z</time>
      </trkpt>
      <trkpt lat="47.99985" lon="6.91029">
        <ele>791.43359375</ele>
        <time>2012-05-13T11:49:44Z</time>
      </trkpt>
      <trkpt lat="47.99981" lon="6.90996">
        <ele>791.98828125</ele>
        <time>2012-05-13T11:49:58Z</time>
      </trkpt>
      <trkpt lat="47.99974" lon="6.90966">
        <ele>793.359375</ele>
        <time>2012-05-13T11:50:12Z</time>
      </trkpt>
      <trkpt lat="47.99963" lon="6.90942">
        <ele>795.83984375</ele>
        <time>2012-05-13T11:50:27Z</time>
      </trkpt>
      <trkpt lat="47.99956" lon="6.90929">
        <ele>797.29296875</ele>
        <time>2012-05-13T11:50:35Z</time>
      </trkpt>
      <trkpt lat="47.99953" lon="6.90923">
        <ele>797.484375</ele>
        <time>2012-05-13T11:50:39Z</time>
      </trkpt>
      <trkpt lat="47.99952" lon="6.90913">
        <ele>796.78515625</ele>
        <time>2012-05-13T11:50:44Z</time>
      </trkpt>
      <trkpt lat="47.99951" lon="6.90908">
        <ele>796.37890625</ele>
        <time>2012-05-13T11:50:47Z</time>
      </trkpt>
      <trkpt lat="47.99946" lon="6.90898">
        <ele>796.22265625</ele>
        <time>2012-05-13T11:50:52Z</time>
      </trkpt>
      <trkpt lat="47.99932" lon="6.90879">
        <ele>798.30078125</ele>
        <time>2012-05-13T11:51:02Z</time>
      </trkpt>
      <trkpt lat="47.99926" lon="6.90866">
        <ele>798.15234375</ele>
        <time>2012-05-13T11:51:09Z</time>
      </trkpt>
      <trkpt lat="47.99908" lon="6.90846">
        <ele>800.5703125</ele>
        <time>2012-05-13T11:51:26Z</time>
      </trkpt>
      <trkpt lat="47.9989" lon="6.90826">
        <ele>800.21484375</ele>
        <time>2012-05-13T11:51:39Z</time>
      </trkpt>
      <trkpt lat="47.99886" lon="6.90821">
        <ele>799.8125</ele>
        <time>2012-05-13T11:51:42Z</time>
      </trkpt>
      <trkpt lat="47.9988" lon="6.90811">
        <ele>798.76953125</ele>
        <time>2012-05-13T11:51:49Z</time>
      </trkpt>
      <trkpt lat="47.99855" lon="6.9081">
        <ele>804.4453125</ele>
        <time>2012-05-13T11:52:06Z</time>
      </trkpt>
      <trkpt lat="47.99843" lon="6.90813">
        <ele>807.5625</ele>
        <time>2012-05-13T11:52:25Z</time>
      </trkpt>
      <trkpt lat="47.99841" lon="6.90811">
        <ele>807.49609375</ele>
        <time>2012-05-13T11:53:53Z</time>
      </trkpt>
      <trkpt lat="47.99841" lon="6.90811">
        <ele>807.5625</ele>
        <time>2012-05-13T11:56:12Z</time>
      </trkpt>
      <trkpt lat="47.99842" lon="6.90814">
        <ele>808.16015625</ele>
        <time>2012-05-13T11:57:01Z</time>
      </trkpt>
      <trkpt lat="47.99846" lon="6.90816">
        <ele>808.06640625</ele>
        <time>2012-05-13T11:57:07Z</time>
      </trkpt>
      <trkpt lat="47.99851" lon="6.9082">
        <ele>808.6484375</ele>
        <time>2012-05-13T11:57:11Z</time>
      </trkpt>
      <trkpt lat="47.99858" lon="6.90828">
        <ele>809.4375</ele>
        <time>2012-05-13T11:57:20Z</time>
      </trkpt>
      <trkpt lat="47.99868" lon="6.90843">
        <ele>811.28125</ele>
        <time>2012-05-13T11:57:29Z</time>
      </trkpt>
      <trkpt lat="47.99879" lon="6.90872">
        <ele>815.82421875</ele>
        <time>2012-05-13T11:57:45Z</time>
      </trkpt>
      <trkpt lat="47.99881" lon="6.90879">
        <ele>816.95703125</ele>
        <time>2012-05-13T11:57:49Z</time>
      </trkpt>
      <trkpt lat="47.99884" lon="6.90885">
        <ele>817.703125</ele>
        <time>2012-05-13T11:57:52Z</time>
      </trkpt>
      <trkpt lat="47.99885" lon="6.90896">
        <ele>819.96484375</ele>
        <time>2012-05-13T11:57:59Z</time>
      </trkpt>
      <trkpt lat="47.99879" lon="6.90894">
        <ele>821.453125</ele>
        <time>2012-05-13T11:58:10Z</time>
      </trkpt>
      <trkpt lat="47.99873" lon="6.90893">
        <ele>823.40234375</ele>
        <time>2012-05-13T11:58:25Z</time>
      </trkpt>
      <trkpt lat="47.99867" lon="6.90887">
        <ele>823.9375</ele>
        <time>2012-05-13T11:58:38Z</time>
      </trkpt>
      <trkpt lat="47.99857" lon="6.90886">
        <ele>826.828125</ele>
        <time>2012-05-13T11:58:55Z</time>
      </trkpt>
      <trkpt lat="47.99845" lon="6.90883">
        <ele>828.95703125</ele>
        <time>2012-05-13T11:59:06Z</time>
      </trkpt>
      <trkpt lat="47.99843" lon="6.90881">
        <ele>829.15625</ele>
        <time>2012-05-13T11:59:09Z</time>
      </trkpt>
      <trkpt lat="47.99835" lon="6.9088">
        <ele>830.59375</ele>
        <time>2012-05-13T11:59:18Z</time>
      </trkpt>
      <trkpt lat="47.99829" lon="6.90877">
        <ele>831.41015625</ele>
        <time>2012-05-13T11:59:32Z</time>
      </trkpt>
      <trkpt lat="47.99825" lon="6.90884">
        <ele>834.265625</ele>
        <time>2012-05-13T12:01:18Z</time>
      </trkpt>
      <trkpt lat="47.99824" lon="6.90887">
        <ele>835.50390625</ele>
        <time>2012-05-13T12:01:20Z</time>
      </trkpt>
      <trkpt lat="47.99794" lon="6.9088">
        <ele>840.82421875</ele>
        <time>2012-05-13T12:01:38Z</time>
      </trkpt>
      <trkpt lat="47.99763" lon="6.90864">
        <ele>841.87109375</ele>
        <time>2012-05-13T12:01:57Z</time>
      </trkpt>
      <trkpt lat="47.99728" lon="6.9085">
        <ele>842.578125</ele>
        <time>2012-05-13T12:02:17Z</time>
      </trkpt>
      <trkpt lat="47.99703" lon="6.90845">
        <ele>844.37890625</ele>
        <time>2012-05-13T12:02:32Z</time>
      </trkpt>
      <trkpt lat="47.99684" lon="6.90846">
        <ele>847.19140625</ele>
        <time>2012-05-13T12:02:45Z</time>
      </trkpt>
      <trkpt lat="47.99664" lon="6.90847">
        <ele>848.4375</ele>
        <time>2012-05-13T12:02:56Z</time>
      </trkpt>
      <trkpt lat="47.99635" lon="6.90853">
        <ele>851.734375</ele>
        <time>2012-05-13T12:03:10Z</time>
      </trkpt>
      <trkpt lat="47.99632" lon="6.90854">
        <ele>852.125</ele>
        <time>2012-05-13T12:03:12Z</time>
      </trkpt>
      <trkpt lat="47.99604" lon="6.90858">
        <ele>854.2734375</ele>
        <time>2012-05-13T12:03:27Z</time>
      </trkpt>
      <trkpt lat="47.99575" lon="6.90859">
        <ele>855.75390625</ele>
        <time>2012-05-13T12:03:42Z</time>
      </trkpt>
      <trkpt lat="47.99567" lon="6.90861">
        <ele>857.25390625</ele>
        <time>2012-05-13T12:03:47Z</time>
      </trkpt>
      <trkpt lat="47.99542" lon="6.90856">
        <ele>858.99609375</ele>
        <time>2012-05-13T12:03:59Z</time>
      </trkpt>
      <trkpt lat="47.9952" lon="6.90847">
        <ele>860.09375</ele>
        <time>2012-05-13T12:04:10Z</time>
      </trkpt>
      <trkpt lat="47.99499" lon="6.90831">
        <ele>862.375</ele>
        <time>2012-05-13T12:04:21Z</time>
      </trkpt>
      <trkpt lat="47.99478" lon="6.90807">
        <ele>864.3046875</ele>
        <time>2012-05-13T12:04:35Z</time>
      </trkpt>
      <trkpt lat="47.99461" lon="6.90789">
        <ele>866.984375</ele>
        <time>2012-05-13T12:04:47Z</time>
      </trkpt>
      <trkpt lat="47.99446" lon="6.90768">
        <ele>869.74609375</ele>
        <time>2012-05-13T12:04:58Z</time>
      </trkpt>
      <trkpt lat="47.99439" lon="6.90757">
        <ele>871.21484375</ele>
        <time>2012-05-13T12:05:02Z</time>
      </trkpt>
      <trkpt lat="47.99433" lon="6.90742">
        <ele>872.18359375</ele>
        <time>2012-05-13T12:05:10Z</time>
      </trkpt>
      <trkpt lat="47.99421" lon="6.90714">
        <ele>875.0859375</ele>
        <time>2012-05-13T12:05:21Z</time>
      </trkpt>
      <trkpt lat="47.99409" lon="6.90684">
        <ele>878.0078125</ele>
        <time>2012-05-13T12:05:33Z</time>
      </trkpt>
      <trkpt lat="47.99407" lon="6.90678">
        <ele>878.43359375</ele>
        <time>2012-05-13T12:05:36Z</time>
      </trkpt>
      <trkpt lat="47.99399" lon="6.90654">
        <ele>879.890625</ele>
        <time>2012-05-13T12:05:46Z</time>
      </trkpt>
      <trkpt lat="47.99393" lon="6.90642">
        <ele>880.76953125</ele>
        <time>2012-05-13T12:05:50Z</time>
      </trkpt>
      <trkpt lat="47.99365" lon="6.90615">
        <ele>885.54296875</ele>
        <time>2012-05-13T12:06:04Z</time>
      </trkpt>
      <trkpt lat="47.99347" lon="6.90597">
        <ele>888.01171875</ele>
        <time>2012-05-13T12:06:20Z</time>
      </trkpt>
      <trkpt lat="47.99346" lon="6.90592">
        <ele>888.11328125</ele>
        <time>2012-05-13T12:06:28Z</time>
      </trkpt>
      <trkpt lat="47.99339" lon="6.90582">
        <ele>888.51953125</ele>
        <time>2012-05-13T12:06:50Z</time>
      </trkpt>
      <trkpt lat="47.99338" lon="6.90578">
        <ele>888.60546875</ele>
        <time>2012-05-13T12:07:33Z</time>
      </trkpt>
      <trkpt lat="47.99337" lon="6.90573">
        <ele>888.828125</ele>
        <time>2012-05-13T12:10:37Z</time>
      </trkpt>
      <trkpt lat="47.99328" lon="6.90558">
        <ele>889.54296875</ele>
        <time>2012-05-13T12:10:42Z</time>
      </trkpt>
      <trkpt lat="47.99321" lon="6.90529">
        <ele>890.2890625</ele>
        <time>2012-05-13T12:10:49Z</time>
      </trkpt>
      <trkpt lat="47.99324" lon="6.90519">
        <ele>891.29296875</ele>
        <time>2012-05-13T12:10:57Z</time>
      </trkpt>
      <trkpt lat="47.99327" lon="6.90518">
        <ele>891.4453125</ele>
        <time>2012-05-13T12:11:00Z</time>
      </trkpt>
      <trkpt lat="47.99329" lon="6.90517">
        <ele>891.78125</ele>
        <time>2012-05-13T12:11:09Z</time>
      </trkpt>
      <trkpt lat="47.99337" lon="6.90516">
        <ele>892.24609375</ele>
        <time>2012-05-13T12:11:13Z</time>
      </trkpt>
      <trkpt lat="47.9935" lon="6.90518">
        <ele>892.19140625</ele>
        <time>2012-05-13T12:11:17Z</time>
      </trkpt>
      <trkpt lat="47.99359" lon="6.90529">
        <ele>890.18359375</ele>
        <time>2012-05-13T12:11:20Z</time>
      </trkpt>
      <trkpt lat="47.99372" lon="6.90531">
        <ele>888.453125</ele>
        <time>2012-05-13T12:11:24Z</time>
      </trkpt>
      <trkpt lat="47.99399" lon="6.90494">
        <ele>892.484375</ele>
        <time>2012-05-13T12:11:38Z</time>
      </trkpt>
      <trkpt lat="47.99439" lon="6.90445">
        <ele>897.046875</ele>
        <time>2012-05-13T12:11:53Z</time>
      </trkpt>
      <trkpt lat="47.9946" lon="6.90422">
        <ele>898.625</ele>
        <time>2012-05-13T12:12:00Z</time>
      </trkpt>
      <trkpt lat="47.99471" lon="6.90411">
        <ele>899.4453125</ele>
        <time>2012-05-13T12:12:03Z</time>
      </trkpt>
      <trkpt lat="47.99523" lon="6.90398">
        <ele>894.0546875</ele>
        <time>2012-05-13T12:12:18Z</time>
      </trkpt>
      <trkpt lat="47.99557" lon="6.90406">
        <ele>889.27734375</ele>
        <time>2012-05-13T12:12:27Z</time>
      </trkpt>
      <trkpt lat="47.9958" lon="6.90364">
        <ele>890.83203125</ele>
        <time>2012-05-13T12:12:38Z</time>
      </trkpt>
      <trkpt lat="47.99579" lon="6.90359">
        <ele>891.37890625</ele>
        <time>2012-05-13T12:12:39Z</time>
      </trkpt>
      <trkpt lat="47.99571" lon="6.90266">
        <ele>898.421875</ele>
        <time>2012-05-13T12:12:52Z</time>
      </trkpt>
      <trkpt lat="47.99575" lon="6.90232">
        <ele>900.04296875</ele>
        <time>2012-05-13T12:12:57Z</time>
      </trkpt>
      <trkpt lat="47.9959" lon="6.90195">
        <ele>899.75390625</ele>
        <time>2012-05-13T12:13:03Z</time>
      </trkpt>
      <trkpt lat="47.99621" lon="6.90152">
        <ele>896.89453125</ele>
        <time>2012-05-13T12:13:13Z</time>
      </trkpt>
      <trkpt lat="47.99654" lon="6.90107">
        <ele>895.51171875</ele>
        <time>2012-05-13T12:13:24Z</time>
      </trkpt>
      <trkpt lat="47.99668" lon="6.90086">
        <ele>895.5</ele>
        <time>2012-05-13T12:13:29Z</time>
      </trkpt>
      <trkpt lat="47.99679" lon="6.90071">
        <ele>895.32421875</ele>
        <time>2012-05-13T12:13:32Z</time>
      </trkpt>
      <trkpt lat="47.99714" lon="6.9002">
        <ele>896.12890625</ele>
        <time>2012-05-13T12:13:43Z</time>
      </trkpt>
      <trkpt lat="47.99735" lon="6.89982">
        <ele>896.67578125</ele>
        <time>2012-05-13T12:13:50Z</time>
      </trkpt>
      <trkpt lat="47.99746" lon="6.8996">
        <ele>897.05859375</ele>
        <time>2012-05-13T12:13:54Z</time>
      </trkpt>
      <trkpt lat="47.99762" lon="6.89926">
        <ele>896.54296875</ele>
        <time>2012-05-13T12:14:00Z</time>
      </trkpt>
      <trkpt lat="47.99773" lon="6.89898">
        <ele>895.1328125</ele>
        <time>2012-05-13T12:14:05Z</time>
      </trkpt>
      <trkpt lat="47.99775" lon="6.89848">
        <ele>895.14453125</ele>
        <time>2012-05-13T12:14:13Z</time>
      </trkpt>
      <trkpt lat="47.99773" lon="6.8983">
        <ele>894.92578125</ele>
        <time>2012-05-13T12:14:16Z</time>
      </trkpt>
      <trkpt lat="47.9976" lon="6.89789">
        <ele>894.890625</ele>
        <time>2012-05-13T12:14:23Z</time>
      </trkpt>
      <trkpt lat="47.99755" lon="6.89779">
        <ele>894.69921875</ele>
        <time>2012-05-13T12:14:25Z</time>
      </trkpt>
      <trkpt lat="47.99691" lon="6.89712">
        <ele>896.30859375</ele>
        <time>2012-05-13T12:14:46Z</time>
      </trkpt>
      <trkpt lat="47.9963" lon="6.89651">
        <ele>900.6328125</ele>
        <time>2012-05-13T12:15:09Z</time>
      </trkpt>
      <trkpt lat="47.99599" lon="6.89605">
        <ele>906.52734375</ele>
        <time>2012-05-13T12:15:29Z</time>
      </trkpt>
      <trkpt lat="47.99598" lon="6.89603">
        <ele>906.64453125</ele>
        <time>2012-05-13T12:15:30Z</time>
      </trkpt>
      <trkpt lat="47.99595" lon="6.89603">
        <ele>907.5859375</ele>
        <time>2012-05-13T12:15:42Z</time>
      </trkpt>
      <trkpt lat="47.99595" lon="6.89603">
        <ele>907.5703125</ele>
        <time>2012-05-13T12:15:54Z</time>
      </trkpt>
      <trkpt lat="47.99593" lon="6.89599">
        <ele>908.15234375</ele>
        <time>2012-05-13T12:15:58Z</time>
      </trkpt>
      <trkpt lat="47.996" lon="6.89541">
        <ele>907.5625</ele>
        <time>2012-05-13T12:16:15Z</time>
      </trkpt>
      <trkpt lat="47.99614" lon="6.89471">
        <ele>908.13671875</ele>
        <time>2012-05-13T12:16:34Z</time>
      </trkpt>
      <trkpt lat="47.99621" lon="6.89401">
        <ele>914.02734375</ele>
        <time>2012-05-13T12:16:54Z</time>
      </trkpt>
      <trkpt lat="47.99644" lon="6.89321">
        <ele>920.515625</ele>
        <time>2012-05-13T12:17:17Z</time>
      </trkpt>
      <trkpt lat="47.99675" lon="6.89269">
        <ele>919.390625</ele>
        <time>2012-05-13T12:17:36Z</time>
      </trkpt>
      <trkpt lat="47.99695" lon="6.89221">
        <ele>920.39453125</ele>
        <time>2012-05-13T12:17:51Z</time>
      </trkpt>
      <trkpt lat="47.99721" lon="6.89158">
        <ele>921.5625</ele>
        <time>2012-05-13T12:18:11Z</time>
      </trkpt>
      <trkpt lat="47.99749" lon="6.89101">
        <ele>918.91015625</ele>
        <time>2012-05-13T12:18:29Z</time>
      </trkpt>
      <trkpt lat="47.99756" lon="6.89032">
        <ele>920.046875</ele>
        <time>2012-05-13T12:18:45Z</time>
      </trkpt>
      <trkpt lat="47.99736" lon="6.88963">
        <ele>925.640625</ele>
        <time>2012-05-13T12:19:01Z</time>
      </trkpt>
      <trkpt lat="47.99722" lon="6.88883">
        <ele>926.078125</ele>
        <time>2012-05-13T12:19:16Z</time>
      </trkpt>
      <trkpt lat="47.99719" lon="6.88777">
        <ele>923.03125</ele>
        <time>2012-05-13T12:19:34Z</time>
      </trkpt>
      <trkpt lat="47.99683" lon="6.88637">
        <ele>924.05859375</ele>
        <time>2012-05-13T12:19:56Z</time>
      </trkpt>
      <trkpt lat="47.99683" lon="6.88599">
        <ele>923.24609375</ele>
        <time>2012-05-13T12:20:01Z</time>
      </trkpt>
      <trkpt lat="47.99703" lon="6.8853">
        <ele>917.22265625</ele>
        <time>2012-05-13T12:20:10Z</time>
      </trkpt>
      <trkpt lat="47.99697" lon="6.88476">
        <ele>916.02734375</ele>
        <time>2012-05-13T12:20:17Z</time>
      </trkpt>
      <trkpt lat="47.99685" lon="6.8845">
        <ele>916.75</ele>
        <time>2012-05-13T12:20:21Z</time>
      </trkpt>
      <trkpt lat="47.99649" lon="6.88395">
        <ele>920.4453125</ele>
        <time>2012-05-13T12:20:32Z</time>
      </trkpt>
      <trkpt lat="47.99604" lon="6.88298">
        <ele>919.4609375</ele>
        <time>2012-05-13T12:20:48Z</time>
      </trkpt>
      <trkpt lat="47.99585" lon="6.88275">
        <ele>920.26953125</ele>
        <time>2012-05-13T12:20:53Z</time>
      </trkpt>
      <trkpt lat="47.99569" lon="6.88248">
        <ele>919.92578125</ele>
        <time>2012-05-13T12:20:58Z</time>
      </trkpt>
      <trkpt lat="47.99527" lon="6.88172">
        <ele>921.58984375</ele>
        <time>2012-05-13T12:21:13Z</time>
      </trkpt>
      <trkpt lat="47.99501" lon="6.88108">
        <ele>922.87890625</ele>
        <time>2012-05-13T12:21:23Z</time>
      </trkpt>
      <trkpt lat="47.9949" lon="6.87995">
        <ele>919.640625</ele>
        <time>2012-05-13T12:21:37Z</time>
      </trkpt>
      <trkpt lat="47.99489" lon="6.87977">
        <ele>919.0703125</ele>
        <time>2012-05-13T12:21:39Z</time>
      </trkpt>
      <trkpt lat="47.99489" lon="6.87927">
        <ele>917.20703125</ele>
        <time>2012-05-13T12:21:45Z</time>
      </trkpt>
      <trkpt lat="47.99455" lon="6.87818">
        <ele>920.60546875</ele>
        <time>2012-05-13T12:21:59Z</time>
      </trkpt>
      <trkpt lat="47.994" lon="6.87696">
        <ele>915.46875</ele>
        <time>2012-05-13T12:22:15Z</time>
      </trkpt>
      <trkpt lat="47.99384" lon="6.87676">
        <ele>916.99609375</ele>
        <time>2012-05-13T12:22:18Z</time>
      </trkpt>
      <trkpt lat="47.99361" lon="6.87576">
        <ele>913.5</ele>
        <time>2012-05-13T12:22:27Z</time>
      </trkpt>
      <trkpt lat="47.99357" lon="6.87504">
        <ele>910.2265625</ele>
        <time>2012-05-13T12:22:33Z</time>
      </trkpt>
      <trkpt lat="47.99326" lon="6.87381">
        <ele>905.1015625</ele>
        <time>2012-05-13T12:22:44Z</time>
      </trkpt>
      <trkpt lat="47.99305" lon="6.87348">
        <ele>904.00390625</ele>
        <time>2012-05-13T12:22:48Z</time>
      </trkpt>
      <trkpt lat="47.99273" lon="6.87328">
        <ele>904.15234375</ele>
        <time>2012-05-13T12:22:53Z</time>
      </trkpt>
      <trkpt lat="47.9918" lon="6.87298">
        <ele>903.1015625</ele>
        <time>2012-05-13T12:23:08Z</time>
      </trkpt>
      <trkpt lat="47.99134" lon="6.87287">
        <ele>902.44140625</ele>
        <time>2012-05-13T12:23:14Z</time>
      </trkpt>
      <trkpt lat="47.99117" lon="6.8728">
        <ele>902.16015625</ele>
        <time>2012-05-13T12:23:16Z</time>
      </trkpt>
      <trkpt lat="47.99041" lon="6.87209">
        <ele>892.36328125</ele>
        <time>2012-05-13T12:23:27Z</time>
      </trkpt>
      <trkpt lat="47.9896" lon="6.87161">
        <ele>889.8671875</ele>
        <time>2012-05-13T12:23:39Z</time>
      </trkpt>
      <trkpt lat="47.98938" lon="6.87154">
        <ele>891.32421875</ele>
        <time>2012-05-13T12:23:42Z</time>
      </trkpt>
      <trkpt lat="47.98861" lon="6.87081">
        <ele>884.27734375</ele>
        <time>2012-05-13T12:23:53Z</time>
      </trkpt>
      <trkpt lat="47.98838" lon="6.87062">
        <ele>881.04296875</ele>
        <time>2012-05-13T12:23:56Z</time>
      </trkpt>
      <trkpt lat="47.98817" lon="6.87037">
        <ele>877.51171875</ele>
        <time>2012-05-13T12:23:59Z</time>
      </trkpt>
      <trkpt lat="47.98776" lon="6.87011">
        <ele>875.02734375</ele>
        <time>2012-05-13T12:24:04Z</time>
      </trkpt>
      <trkpt lat="47.98758" lon="6.86984">
        <ele>876.0546875</ele>
        <time>2012-05-13T12:24:11Z</time>
      </trkpt>
      <trkpt lat="47.98761" lon="6.86974">
        <ele>876.7578125</ele>
        <time>2012-05-13T12:24:13Z</time>
      </trkpt>
      <trkpt lat="47.98753" lon="6.86945">
        <ele>877.92578125</ele>
        <time>2012-05-13T12:24:22Z</time>
      </trkpt>
      <trkpt lat="47.98749" lon="6.86946">
        <ele>878.31640625</ele>
        <time>2012-05-13T12:24:39Z</time>
      </trkpt>
      <trkpt lat="47.98748" lon="6.86947">
        <ele>878.328125</ele>
        <time>2012-05-13T12:25:07Z</time>
      </trkpt>
      <trkpt lat="47.98742" lon="6.86937">
        <ele>879.1328125</ele>
        <time>2012-05-13T12:27:49Z</time>
      </trkpt>
      <trkpt lat="47.98721" lon="6.869">
        <ele>880.28515625</ele>
        <time>2012-05-13T12:28:09Z</time>
      </trkpt>
      <trkpt lat="47.98705" lon="6.86864">
        <ele>882.70703125</ele>
        <time>2012-05-13T12:28:28Z</time>
      </trkpt>
      <trkpt lat="47.98683" lon="6.86814">
        <ele>889.65234375</ele>
        <time>2012-05-13T12:28:49Z</time>
      </trkpt>
      <trkpt lat="47.9868" lon="6.86771">
        <ele>895.36328125</ele>
        <time>2012-05-13T12:29:07Z</time>
      </trkpt>
      <trkpt lat="47.98688" lon="6.86709">
        <ele>902.8125</ele>
        <time>2012-05-13T12:29:31Z</time>
      </trkpt>
      <trkpt lat="47.98703" lon="6.86658">
        <ele>906.94140625</ele>
        <time>2012-05-13T12:29:52Z</time>
      </trkpt>
      <trkpt lat="47.98726" lon="6.86606">
        <ele>911.35546875</ele>
        <time>2012-05-13T12:30:15Z</time>
      </trkpt>
      <trkpt lat="47.98746" lon="6.86557">
        <ele>918.0859375</ele>
        <time>2012-05-13T12:30:38Z</time>
      </trkpt>
      <trkpt lat="47.98762" lon="6.86529">
        <ele>921.91796875</ele>
        <time>2012-05-13T12:30:55Z</time>
      </trkpt>
      <trkpt lat="47.98781" lon="6.86509">
        <ele>922.92578125</ele>
        <time>2012-05-13T12:31:13Z</time>
      </trkpt>
      <trkpt lat="47.98802" lon="6.86481">
        <ele>925.85546875</ele>
        <time>2012-05-13T12:31:33Z</time>
      </trkpt>
      <trkpt lat="47.98825" lon="6.86439">
        <ele>929.88671875</ele>
        <time>2012-05-13T12:31:55Z</time>
      </trkpt>
      <trkpt lat="47.98852" lon="6.86388">
        <ele>931.890625</ele>
        <time>2012-05-13T12:32:20Z</time>
      </trkpt>
      <trkpt lat="47.98871" lon="6.86325">
        <ele>933.35546875</ele>
        <time>2012-05-13T12:32:43Z</time>
      </trkpt>
      <trkpt lat="47.98878" lon="6.86255">
        <ele>934.40234375</ele>
        <time>2012-05-13T12:33:04Z</time>
      </trkpt>
      <trkpt lat="47.98882" lon="6.86188">
        <ele>933.88671875</ele>
        <time>2012-05-13T12:33:24Z</time>
      </trkpt>
      <trkpt lat="47.98873" lon="6.86121">
        <ele>935.98046875</ele>
        <time>2012-05-13T12:33:45Z</time>
      </trkpt>
      <trkpt lat="47.98858" lon="6.86063">
        <ele>939.234375</ele>
        <time>2012-05-13T12:34:04Z</time>
      </trkpt>
      <trkpt lat="47.98839" lon="6.86004">
        <ele>939.765625</ele>
        <time>2012-05-13T12:34:24Z</time>
      </trkpt>
      <trkpt lat="47.98815" lon="6.8596">
        <ele>940.9296875</ele>
        <time>2012-05-13T12:34:43Z</time>
      </trkpt>
      <trkpt lat="47.98805" lon="6.8595">
        <ele>941.66015625</ele>
        <time>2012-05-13T12:35:01Z</time>
      </trkpt>
      <trkpt lat="47.98805" lon="6.85948">
        <ele>941.57421875</ele>
        <time>2012-05-13T12:37:11Z</time>
      </trkpt>
      <trkpt lat="47.98804" lon="6.85949">
        <ele>941.65234375</ele>
        <time>2012-05-13T12:41:16Z</time>
      </trkpt>
      <trkpt lat="47.988" lon="6.85953">
        <ele>942.1796875</ele>
        <time>2012-05-13T12:41:20Z</time>
      </trkpt>
      <trkpt lat="47.98756" lon="6.85957">
        <ele>939.2734375</ele>
        <time>2012-05-13T12:41:33Z</time>
      </trkpt>
      <trkpt lat="47.98674" lon="6.85986">
        <ele>934.73046875</ele>
        <time>2012-05-13T12:41:50Z</time>
      </trkpt>
      <trkpt lat="47.98623" lon="6.86003">
        <ele>931.82421875</ele>
        <time>2012-05-13T12:42:00Z</time>
      </trkpt>
      <trkpt lat="47.98581" lon="6.86036">
        <ele>933.7890625</ele>
        <time>2012-05-13T12:42:08Z</time>
      </trkpt>
      <trkpt lat="47.98554" lon="6.86039">
        <ele>933.46875</ele>
        <time>2012-05-13T12:42:12Z</time>
      </trkpt>
      <trkpt lat="47.98542" lon="6.86037">
        <ele>932.6640625</ele>
        <time>2012-05-13T12:42:14Z</time>
      </trkpt>
      <trkpt lat="47.98512" lon="6.86012">
        <ele>928.1484375</ele>
        <time>2012-05-13T12:42:19Z</time>
      </trkpt>
      <trkpt lat="47.98483" lon="6.85961">
        <ele>920.92578125</ele>
        <time>2012-05-13T12:42:25Z</time>
      </trkpt>
      <trkpt lat="47.98453" lon="6.85932">
        <ele>918.99609375</ele>
        <time>2012-05-13T12:42:30Z</time>
      </trkpt>
      <trkpt lat="47.98432" lon="6.8589">
        <ele>914.7890625</ele>
        <time>2012-05-13T12:42:34Z</time>
      </trkpt>
      <trkpt lat="47.98414" lon="6.85832">
        <ele>906.9140625</ele>
        <time>2012-05-13T12:42:38Z</time>
      </trkpt>
      <trkpt lat="47.98409" lon="6.85806">
        <ele>903.62109375</ele>
        <time>2012-05-13T12:42:40Z</time>
      </trkpt>
      <trkpt lat="47.98392" lon="6.85713">
        <ele>896.34765625</ele>
        <time>2012-05-13T12:42:48Z</time>
      </trkpt>
      <trkpt lat="47.98407" lon="6.85722">
        <ele>893.7421875</ele>
        <time>2012-05-13T12:42:53Z</time>
      </trkpt>
      <trkpt lat="47.98413" lon="6.85731">
        <ele>893.5703125</ele>
        <time>2012-05-13T12:42:55Z</time>
      </trkpt>
      <trkpt lat="47.98415" lon="6.85735">
        <ele>893.58203125</ele>
        <time>2012-05-13T12:43:15Z</time>
      </trkpt>
      <trkpt lat="47.98425" lon="6.85745">
        <ele>893.02734375</ele>
        <time>2012-05-13T12:43:26Z</time>
      </trkpt>
      <trkpt lat="47.98439" lon="6.85754">
        <ele>891.921875</ele>
        <time>2012-05-13T12:43:29Z</time>
      </trkpt>
      <trkpt lat="47.98465" lon="6.85757">
        <ele>888.1875</ele>
        <time>2012-05-13T12:43:33Z</time>
      </trkpt>
      <trkpt lat="47.98482" lon="6.85751">
        <ele>886.65625</ele>
        <time>2012-05-13T12:43:36Z</time>
      </trkpt>
      <trkpt lat="47.98507" lon="6.85737">
        <ele>883.95703125</ele>
        <time>2012-05-13T12:43:40Z</time>
      </trkpt>
      <trkpt lat="47.9852" lon="6.8571">
        <ele>880.08203125</ele>
        <time>2012-05-13T12:43:44Z</time>
      </trkpt>
      <trkpt lat="47.98515" lon="6.85681">
        <ele>877.28515625</ele>
        <time>2012-05-13T12:43:47Z</time>
      </trkpt>
      <trkpt lat="47.98509" lon="6.85668">
        <ele>876.54296875</ele>
        <time>2012-05-13T12:43:49Z</time>
      </trkpt>
      <trkpt lat="47.98515" lon="6.85639">
        <ele>874.16015625</ele>
        <time>2012-05-13T12:43:52Z</time>
      </trkpt>
      <trkpt lat="47.98514" lon="6.85529">
        <ele>864.5625</ele>
        <time>2012-05-13T12:44:01Z</time>
      </trkpt>
      <trkpt lat="47.98514" lon="6.85507">
        <ele>862.9765625</ele>
        <time>2012-05-13T12:44:03Z</time>
      </trkpt>
      <trkpt lat="47.98516" lon="6.85474">
        <ele>860.48046875</ele>
        <time>2012-05-13T12:44:06Z</time>
      </trkpt>
      <trkpt lat="47.98525" lon="6.85422">
        <ele>857.671875</ele>
        <time>2012-05-13T12:44:11Z</time>
      </trkpt>
      <trkpt lat="47.98543" lon="6.85389">
        <ele>855.88671875</ele>
        <time>2012-05-13T12:44:16Z</time>
      </trkpt>
      <trkpt lat="47.98553" lon="6.85378">
        <ele>854.96875</ele>
        <time>2012-05-13T12:44:18Z</time>
      </trkpt>
      <trkpt lat="47.98586" lon="6.85361">
        <ele>853.46875</ele>
        <time>2012-05-13T12:44:24Z</time>
      </trkpt>
      <trkpt lat="47.98645" lon="6.85351">
        <ele>852.5625</ele>
        <time>2012-05-13T12:44:35Z</time>
      </trkpt>
      <trkpt lat="47.98686" lon="6.85347">
        <ele>849.69140625</ele>
        <time>2012-05-13T12:44:40Z</time>
      </trkpt>
      <trkpt lat="47.98734" lon="6.85358">
        <ele>846.4453125</ele>
        <time>2012-05-13T12:44:46Z</time>
      </trkpt>
      <trkpt lat="47.98757" lon="6.85362">
        <ele>843.66796875</ele>
        <time>2012-05-13T12:44:50Z</time>
      </trkpt>
      <trkpt lat="47.98822" lon="6.85384">
        <ele>836.0078125</ele>
        <time>2012-05-13T12:44:59Z</time>
      </trkpt>
      <trkpt lat="47.98833" lon="6.85391">
        <ele>835.015625</ele>
        <time>2012-05-13T12:45:07Z</time>
      </trkpt>
      <trkpt lat="47.98834" lon="6.85392">
        <ele>834.97265625</ele>
        <time>2012-05-13T12:45:40Z</time>
      </trkpt>
      <trkpt lat="47.98835" lon="6.85391">
        <ele>834.52734375</ele>
        <time>2012-05-13T12:46:09Z</time>
      </trkpt>
      <trkpt lat="47.98835" lon="6.85388">
        <ele>833.515625</ele>
        <time>2012-05-13T12:46:11Z</time>
      </trkpt>
      <trkpt lat="47.98817" lon="6.85353">
        <ele>828.171875</ele>
        <time>2012-05-13T12:46:19Z</time>
      </trkpt>
      <trkpt lat="47.98813" lon="6.85348">
        <ele>827.3671875</ele>
        <time>2012-05-13T12:46:20Z</time>
      </trkpt>
      <trkpt lat="47.98796" lon="6.85337">
        <ele>828.4296875</ele>
        <time>2012-05-13T12:46:27Z</time>
      </trkpt>
      <trkpt lat="47.98786" lon="6.85331">
        <ele>828.51953125</ele>
        <time>2012-05-13T12:46:43Z</time>
      </trkpt>
      <trkpt lat="47.98783" lon="6.85326">
        <ele>827.703125</ele>
        <time>2012-05-13T12:46:47Z</time>
      </trkpt>
      <trkpt lat="47.9879" lon="6.85327">
        <ele>826.68359375</ele>
        <time>2012-05-13T12:46:56Z</time>
      </trkpt>
      <trkpt lat="47.98787" lon="6.85321">
        <ele>825.37890625</ele>
        <time>2012-05-13T12:47:07Z</time>
      </trkpt>
      <trkpt lat="47.98802" lon="6.85321">
        <ele>821.9453125</ele>
        <time>2012-05-13T12:47:16Z</time>
      </trkpt>
      <trkpt lat="47.98791" lon="6.85303">
        <ele>818.9296875</ele>
        <time>2012-05-13T12:47:23Z</time>
      </trkpt>
      <trkpt lat="47.98805" lon="6.85305">
        <ele>815.94140625</ele>
        <time>2012-05-13T12:47:29Z</time>
      </trkpt>
      <trkpt lat="47.98798" lon="6.8528">
        <ele>809.8359375</ele>
        <time>2012-05-13T12:47:37Z</time>
      </trkpt>
      <trkpt lat="47.98792" lon="6.85271">
        <ele>808.0546875</ele>
        <time>2012-05-13T12:47:50Z</time>
      </trkpt>
      <trkpt lat="47.98789" lon="6.85268">
        <ele>807.640625</ele>
        <time>2012-05-13T12:47:55Z</time>
      </trkpt>
      <trkpt lat="47.98796" lon="6.85268">
        <ele>806</ele>
        <time>2012-05-13T12:47:59Z</time>
      </trkpt>
      <trkpt lat="47.98797" lon="6.85258">
        <ele>802.41015625</ele>
        <time>2012-05-13T12:48:03Z</time>
      </trkpt>
      <trkpt lat="47.98793" lon="6.85248">
        <ele>800.3046875</ele>
        <time>2012-05-13T12:48:05Z</time>
      </trkpt>
      <trkpt lat="47.98778" lon="6.85225">
        <ele>797.69140625</ele>
        <time>2012-05-13T12:48:08Z</time>
      </trkpt>
      <trkpt lat="47.98761" lon="6.85201">
        <ele>795.828125</ele>
        <time>2012-05-13T12:48:11Z</time>
      </trkpt>
      <trkpt lat="47.98737" lon="6.85161">
        <ele>793.734375</ele>
        <time>2012-05-13T12:48:19Z</time>
      </trkpt>
      <trkpt lat="47.98736" lon="6.85161">
        <ele>793.80859375</ele>
        <time>2012-05-13T12:48:44Z</time>
      </trkpt>
      <trkpt lat="47.98735" lon="6.85159">
        <ele>793.796875</ele>
        <time>2012-05-13T12:51:16Z</time>
      </trkpt>
      <trkpt lat="47.98713" lon="6.85115">
        <ele>790.46875</ele>
        <time>2012-05-13T12:51:26Z</time>
      </trkpt>
      <trkpt lat="47.98711" lon="6.8511">
        <ele>790.02734375</ele>
        <time>2012-05-13T12:51:27Z</time>
      </trkpt>
      <trkpt lat="47.98692" lon="6.85081">
        <ele>789.171875</ele>
        <time>2012-05-13T12:51:36Z</time>
      </trkpt>
      <trkpt lat="47.98692" lon="6.85075">
        <ele>788.203125</ele>
        <time>2012-05-13T12:51:41Z</time>
      </trkpt>
      <trkpt lat="47.98692" lon="6.85066">
        <ele>786.94140625</ele>
        <time>2012-05-13T12:51:48Z</time>
      </trkpt>
      <trkpt lat="47.98703" lon="6.85061">
        <ele>782.421875</ele>
        <time>2012-05-13T12:51:51Z</time>
      </trkpt>
      <trkpt lat="47.98702" lon="6.85055">
        <ele>781.609375</ele>
        <time>2012-05-13T12:51:53Z</time>
      </trkpt>
      <trkpt lat="47.98705" lon="6.8505">
        <ele>779.8125</ele>
        <time>2012-05-13T12:51:55Z</time>
      </trkpt>
      <trkpt lat="47.98706" lon="6.8504">
        <ele>777.6953125</ele>
        <time>2012-05-13T12:51:59Z</time>
      </trkpt>
      <trkpt lat="47.98706" lon="6.85026">
        <ele>775.0234375</ele>
        <time>2012-05-13T12:52:04Z</time>
      </trkpt>
      <trkpt lat="47.98727" lon="6.85024">
        <ele>767.37109375</ele>
        <time>2012-05-13T12:52:11Z</time>
      </trkpt>
      <trkpt lat="47.98737" lon="6.85033">
        <ele>765.24609375</ele>
        <time>2012-05-13T12:52:17Z</time>
      </trkpt>
      <trkpt lat="47.98762" lon="6.85051">
        <ele>760.00390625</ele>
        <time>2012-05-13T12:52:24Z</time>
      </trkpt>
      <trkpt lat="47.98782" lon="6.8506">
        <ele>754.76171875</ele>
        <time>2012-05-13T12:52:29Z</time>
      </trkpt>
      <trkpt lat="47.98795" lon="6.85067">
        <ele>751.64453125</ele>
        <time>2012-05-13T12:52:33Z</time>
      </trkpt>
      <trkpt lat="47.98816" lon="6.85075">
        <ele>746.4296875</ele>
        <time>2012-05-13T12:52:42Z</time>
      </trkpt>
      <trkpt lat="47.98824" lon="6.85086">
        <ele>746.671875</ele>
        <time>2012-05-13T12:52:46Z</time>
      </trkpt>
      <trkpt lat="47.98832" lon="6.85088">
        <ele>744.48828125</ele>
        <time>2012-05-13T12:52:50Z</time>
      </trkpt>
      <trkpt lat="47.98854" lon="6.85102">
        <ele>741.37109375</ele>
        <time>2012-05-13T12:52:57Z</time>
      </trkpt>
      <trkpt lat="47.9887" lon="6.85122">
        <ele>740.11328125</ele>
        <time>2012-05-13T12:53:04Z</time>
      </trkpt>
      <trkpt lat="47.98875" lon="6.85119">
        <ele>737.34765625</ele>
        <time>2012-05-13T12:53:09Z</time>
      </trkpt>
      <trkpt lat="47.98874" lon="6.85108">
        <ele>734.3671875</ele>
        <time>2012-05-13T12:53:13Z</time>
      </trkpt>
      <trkpt lat="47.98869" lon="6.85096">
        <ele>733.375</ele>
        <time>2012-05-13T12:53:16Z</time>
      </trkpt>
      <trkpt lat="47.98862" lon="6.8509">
        <ele>734.57421875</ele>
        <time>2012-05-13T12:53:18Z</time>
      </trkpt>
      <trkpt lat="47.9886" lon="6.85066">
        <ele>729.359375</ele>
        <time>2012-05-13T12:53:24Z</time>
      </trkpt>
      <trkpt lat="47.98856" lon="6.85058">
        <ele>729.01953125</ele>
        <time>2012-05-13T12:53:26Z</time>
      </trkpt>
      <trkpt lat="47.9887" lon="6.85061">
        <ele>723.90625</ele>
        <time>2012-05-13T12:53:33Z</time>
      </trkpt>
      <trkpt lat="47.98885" lon="6.85073">
        <ele>720.6484375</ele>
        <time>2012-05-13T12:53:40Z</time>
      </trkpt>
      <trkpt lat="47.98885" lon="6.85075">
        <ele>721.109375</ele>
        <time>2012-05-13T12:57:06Z</time>
      </trkpt>
      <trkpt lat="47.98885" lon="6.85076">
        <ele>721.26171875</ele>
        <time>2012-05-13T12:57:12Z</time>
      </trkpt>
      <trkpt lat="47.98886" lon="6.85071">
        <ele>719.609375</ele>
        <time>2012-05-13T12:57:15Z</time>
      </trkpt>
      <trkpt lat="47.98888" lon="6.85041">
        <ele>711.5625</ele>
        <time>2012-05-13T12:57:22Z</time>
      </trkpt>
      <trkpt lat="47.98885" lon="6.85031">
        <ele>710.375</ele>
        <time>2012-05-13T12:57:24Z</time>
      </trkpt>
      <trkpt lat="47.98894" lon="6.85025">
        <ele>704.91796875</ele>
        <time>2012-05-13T12:57:31Z</time>
      </trkpt>
      <trkpt lat="47.98898" lon="6.85026">
        <ele>703.23046875</ele>
        <time>2012-05-13T12:57:33Z</time>
      </trkpt>
      <trkpt lat="47.98908" lon="6.85029">
        <ele>699.85546875</ele>
        <time>2012-05-13T12:57:41Z</time>
      </trkpt>
      <trkpt lat="47.9891" lon="6.85026">
        <ele>698.15625</ele>
        <time>2012-05-13T12:57:43Z</time>
      </trkpt>
      <trkpt lat="47.98913" lon="6.85006">
        <ele>691.40234375</ele>
        <time>2012-05-13T12:57:51Z</time>
      </trkpt>
      <trkpt lat="47.98921" lon="6.85011">
        <ele>689.4375</ele>
        <time>2012-05-13T12:57:54Z</time>
      </trkpt>
      <trkpt lat="47.98934" lon="6.85027">
        <ele>688.61328125</ele>
        <time>2012-05-13T12:58:00Z</time>
      </trkpt>
      <trkpt lat="47.98936" lon="6.85028">
        <ele>687.640625</ele>
        <time>2012-05-13T12:58:02Z</time>
      </trkpt>
      <trkpt lat="47.98943" lon="6.85032">
        <ele>686.06640625</ele>
        <time>2012-05-13T12:58:06Z</time>
      </trkpt>
      <trkpt lat="47.98949" lon="6.85036">
        <ele>684.23046875</ele>
        <time>2012-05-13T12:58:08Z</time>
      </trkpt>
      <trkpt lat="47.98954" lon="6.85038">
        <ele>682.4375</ele>
        <time>2012-05-13T12:58:11Z</time>
      </trkpt>
      <trkpt lat="47.98955" lon="6.85027">
        <ele>679.19140625</ele>
        <time>2012-05-13T12:58:14Z</time>
      </trkpt>
      <trkpt lat="47.98957" lon="6.85018">
        <ele>676.140625</ele>
        <time>2012-05-13T12:58:23Z</time>
      </trkpt>
      <trkpt lat="47.98961" lon="6.85021">
        <ele>674.6875</ele>
        <time>2012-05-13T12:58:25Z</time>
      </trkpt>
      <trkpt lat="47.98979" lon="6.85021">
        <ele>667.82421875</ele>
        <time>2012-05-13T12:58:33Z</time>
      </trkpt>
      <trkpt lat="47.98972" lon="6.85018">
        <ele>669.73046875</ele>
        <time>2012-05-13T12:58:43Z</time>
      </trkpt>
      <trkpt lat="47.98971" lon="6.85013">
        <ele>668.7578125</ele>
        <time>2012-05-13T12:58:50Z</time>
      </trkpt>
      <trkpt lat="47.9897" lon="6.85005">
        <ele>666.5546875</ele>
        <time>2012-05-13T12:58:54Z</time>
      </trkpt>
      <trkpt lat="47.98972" lon="6.84994">
        <ele>662.92578125</ele>
        <time>2012-05-13T12:58:58Z</time>
      </trkpt>
      <trkpt lat="47.98974" lon="6.84991">
        <ele>660.84375</ele>
        <time>2012-05-13T12:59:00Z</time>
      </trkpt>
      <trkpt lat="47.99003" lon="6.84995">
        <ele>650.7265625</ele>
        <time>2012-05-13T12:59:07Z</time>
      </trkpt>
      <trkpt lat="47.9901" lon="6.85">
        <ele>649.8125</ele>
        <time>2012-05-13T12:59:10Z</time>
      </trkpt>
      <trkpt lat="47.99013" lon="6.84994">
        <ele>647</ele>
        <time>2012-05-13T12:59:14Z</time>
      </trkpt>
      <trkpt lat="47.98997" lon="6.84969">
        <ele>645.375</ele>
        <time>2012-05-13T12:59:26Z</time>
      </trkpt>
      <trkpt lat="47.98999" lon="6.84972">
        <ele>645.4375</ele>
        <time>2012-05-13T13:00:12Z</time>
      </trkpt>
      <trkpt lat="47.98997" lon="6.84969">
        <ele>645.60546875</ele>
        <time>2012-05-13T13:03:35Z</time>
      </trkpt>
      <trkpt lat="47.98992" lon="6.84961">
        <ele>645.16015625</ele>
        <time>2012-05-13T13:03:38Z</time>
      </trkpt>
      <trkpt lat="47.98984" lon="6.84946">
        <ele>643.91796875</ele>
        <time>2012-05-13T13:03:41Z</time>
      </trkpt>
      <trkpt lat="47.99005" lon="6.84943">
        <ele>635.44140625</ele>
        <time>2012-05-13T13:03:46Z</time>
      </trkpt>
      <trkpt lat="47.99096" lon="6.8501">
        <ele>620.51171875</ele>
        <time>2012-05-13T13:03:56Z</time>
      </trkpt>
      <trkpt lat="47.99141" lon="6.85041">
        <ele>613.9765625</ele>
        <time>2012-05-13T13:04:00Z</time>
      </trkpt>
      <trkpt lat="47.99167" lon="6.85071">
        <ele>613.578125</ele>
        <time>2012-05-13T13:04:03Z</time>
      </trkpt>
      <trkpt lat="47.99179" lon="6.85056">
        <ele>607.55859375</ele>
        <time>2012-05-13T13:04:08Z</time>
      </trkpt>
      <trkpt lat="47.99156" lon="6.84969">
        <ele>597.79296875</ele>
        <time>2012-05-13T13:04:15Z</time>
      </trkpt>
      <trkpt lat="47.99153" lon="6.84931">
        <ele>594.890625</ele>
        <time>2012-05-13T13:04:22Z</time>
      </trkpt>
      <trkpt lat="47.99153" lon="6.84931">
        <ele>594.88671875</ele>
        <time>2012-05-13T13:04:55Z</time>
      </trkpt>
      <trkpt lat="47.99162" lon="6.84938">
        <ele>594.45703125</ele>
        <time>2012-05-13T13:05:00Z</time>
      </trkpt>
      <trkpt lat="47.99195" lon="6.84974">
        <ele>593.296875</ele>
        <time>2012-05-13T13:05:10Z</time>
      </trkpt>
      <trkpt lat="47.99262" lon="6.85047">
        <ele>595.71875</ele>
        <time>2012-05-13T13:05:31Z</time>
      </trkpt>
      <trkpt lat="47.99282" lon="6.85089">
        <ele>596.4609375</ele>
        <time>2012-05-13T13:05:39Z</time>
      </trkpt>
      <trkpt lat="47.993" lon="6.85232">
        <ele>601.87890625</ele>
        <time>2012-05-13T13:06:01Z</time>
      </trkpt>
      <trkpt lat="47.99326" lon="6.8537">
        <ele>605.02734375</ele>
        <time>2012-05-13T13:06:24Z</time>
      </trkpt>
      <trkpt lat="47.99372" lon="6.8548">
        <ele>604.890625</ele>
        <time>2012-05-13T13:06:47Z</time>
      </trkpt>
      <trkpt lat="47.99422" lon="6.85587">
        <ele>609.45703125</ele>
        <time>2012-05-13T13:07:11Z</time>
      </trkpt>
      <trkpt lat="47.99482" lon="6.85678">
        <ele>610.0078125</ele>
        <time>2012-05-13T13:07:34Z</time>
      </trkpt>
      <trkpt lat="47.99568" lon="6.85748">
        <ele>610.51171875</ele>
        <time>2012-05-13T13:07:57Z</time>
      </trkpt>
      <trkpt lat="47.99667" lon="6.85827">
        <ele>611.0859375</ele>
        <time>2012-05-13T13:08:20Z</time>
      </trkpt>
      <trkpt lat="47.99733" lon="6.85915">
        <ele>612.83203125</ele>
        <time>2012-05-13T13:08:38Z</time>
      </trkpt>
      <trkpt lat="47.99786" lon="6.86017">
        <ele>614.61328125</ele>
        <time>2012-05-13T13:08:58Z</time>
      </trkpt>
      <trkpt lat="47.99832" lon="6.86131">
        <ele>615.890625</ele>
        <time>2012-05-13T13:09:19Z</time>
      </trkpt>
      <trkpt lat="47.99843" lon="6.86179">
        <ele>616</ele>
        <time>2012-05-13T13:09:27Z</time>
      </trkpt>
      <trkpt lat="47.9984" lon="6.86203">
        <ele>616.12890625</ele>
        <time>2012-05-13T13:09:31Z</time>
      </trkpt>
      <trkpt lat="47.99846" lon="6.86232">
        <ele>616.60546875</ele>
        <time>2012-05-13T13:09:36Z</time>
      </trkpt>
      <trkpt lat="47.99856" lon="6.86354">
        <ele>617</ele>
        <time>2012-05-13T13:09:56Z</time>
      </trkpt>
      <trkpt lat="47.99857" lon="6.8636">
        <ele>617</ele>
        <time>2012-05-13T13:09:57Z</time>
      </trkpt>
      <trkpt lat="47.99868" lon="6.8649">
        <ele>617.26171875</ele>
        <time>2012-05-13T13:10:19Z</time>
      </trkpt>
      <trkpt lat="47.99868" lon="6.86513">
        <ele>617.2734375</ele>
        <time>2012-05-13T13:10:23Z</time>
      </trkpt>
      <trkpt lat="47.99871" lon="6.86616">
        <ele>617.74609375</ele>
        <time>2012-05-13T13:10:40Z</time>
      </trkpt>
      <trkpt lat="47.99888" lon="6.86719">
        <ele>618</ele>
        <time>2012-05-13T13:10:57Z</time>
      </trkpt>
      <trkpt lat="47.99923" lon="6.86844">
        <ele>618.2578125</ele>
        <time>2012-05-13T13:11:20Z</time>
      </trkpt>
      <trkpt lat="47.99936" lon="6.86934">
        <ele>618.5</ele>
        <time>2012-05-13T13:11:35Z</time>
      </trkpt>
      <trkpt lat="47.99958" lon="6.87027">
        <ele>618.80078125</ele>
        <time>2012-05-13T13:11:53Z</time>
      </trkpt>
      <trkpt lat="47.99961" lon="6.87038">
        <ele>618.9921875</ele>
        <time>2012-05-13T13:12:03Z</time>
      </trkpt>
      <trkpt lat="47.99961" lon="6.87036">
        <ele>618.9453125</ele>
        <time>2012-05-13T13:12:30Z</time>
      </trkpt>
      <trkpt lat="47.99961" lon="6.87035">
        <ele>618.8828125</ele>
        <time>2012-05-13T13:13:58Z</time>
      </trkpt>
      <trkpt lat="47.99982" lon="6.87064">
        <ele>619.41796875</ele>
        <time>2012-05-13T13:14:09Z</time>
      </trkpt>
      <trkpt lat="47.99981" lon="6.8708">
        <ele>620.0078125</ele>
        <time>2012-05-13T13:14:14Z</time>
      </trkpt>
      <trkpt lat="47.99948" lon="6.87125">
        <ele>627.2421875</ele>
        <time>2012-05-13T13:14:34Z</time>
      </trkpt>
      <trkpt lat="47.99953" lon="6.8717">
        <ele>630.3671875</ele>
        <time>2012-05-13T13:14:47Z</time>
      </trkpt>
      <trkpt lat="47.99997" lon="6.87242">
        <ele>631.28125</ele>
        <time>2012-05-13T13:15:09Z</time>
      </trkpt>
      <trkpt lat="48.00041" lon="6.87314">
        <ele>634.2734375</ele>
        <time>2012-05-13T13:15:29Z</time>
      </trkpt>
      <trkpt lat="48.0009" lon="6.87374">
        <ele>635.09765625</ele>
        <time>2012-05-13T13:15:50Z</time>
      </trkpt>
      <trkpt lat="48.00138" lon="6.87407">
        <ele>634.9921875</ele>
        <time>2012-05-13T13:16:06Z</time>
      </trkpt>
      <trkpt lat="48.00213" lon="6.87432">
        <ele>632.01171875</ele>
        <time>2012-05-13T13:16:28Z</time>
      </trkpt>
      <trkpt lat="48.00258" lon="6.87449">
        <ele>629.55078125</ele>
        <time>2012-05-13T13:16:41Z</time>
      </trkpt>
      <trkpt lat="48.00267" lon="6.87471">
        <ele>630.24609375</ele>
        <time>2012-05-13T13:16:45Z</time>
      </trkpt>
      <trkpt lat="48.00275" lon="6.87497">
        <ele>631.3046875</ele>
        <time>2012-05-13T13:16:49Z</time>
      </trkpt>
      <trkpt lat="48.00286" lon="6.87518">
        <ele>631.62109375</ele>
        <time>2012-05-13T13:16:53Z</time>
      </trkpt>
      <trkpt lat="48.003" lon="6.87536">
        <ele>631.65625</ele>
        <time>2012-05-13T13:16:57Z</time>
      </trkpt>
      <trkpt lat="48.00341" lon="6.87637">
        <ele>635.3046875</ele>
        <time>2012-05-13T13:17:15Z</time>
      </trkpt>
      <trkpt lat="48.00348" lon="6.87653">
        <ele>635.77734375</ele>
        <time>2012-05-13T13:17:18Z</time>
      </trkpt>
      <trkpt lat="48.00373" lon="6.87683">
        <ele>636.40234375</ele>
        <time>2012-05-13T13:17:31Z</time>
      </trkpt>
      <trkpt lat="48.00372" lon="6.87684">
        <ele>636.46875</ele>
        <time>2012-05-13T13:19:35Z</time>
      </trkpt>
      <trkpt lat="48.00377" lon="6.87689">
        <ele>636.5625</ele>
        <time>2012-05-13T13:19:39Z</time>
      </trkpt>
      <trkpt lat="48.00378" lon="6.87698">
        <ele>637.22265625</ele>
        <time>2012-05-13T13:19:42Z</time>
      </trkpt>
      <trkpt lat="48.00409" lon="6.87754">
        <ele>640.55859375</ele>
        <time>2012-05-13T13:19:58Z</time>
      </trkpt>
      <trkpt lat="48.0045" lon="6.87813">
        <ele>645.34375</ele>
        <time>2012-05-13T13:20:15Z</time>
      </trkpt>
      <trkpt lat="48.00506" lon="6.87856">
        <ele>646.640625</ele>
        <time>2012-05-13T13:20:35Z</time>
      </trkpt>
      <trkpt lat="48.00564" lon="6.87904">
        <ele>645.60546875</ele>
        <time>2012-05-13T13:20:54Z</time>
      </trkpt>
      <trkpt lat="48.00622" lon="6.87984">
        <ele>644.984375</ele>
        <time>2012-05-13T13:21:16Z</time>
      </trkpt>
      <trkpt lat="48.00664" lon="6.88086">
        <ele>644.90234375</ele>
        <time>2012-05-13T13:21:35Z</time>
      </trkpt>
      <trkpt lat="48.00689" lon="6.88184">
        <ele>643.703125</ele>
        <time>2012-05-13T13:21:48Z</time>
      </trkpt>
      <trkpt lat="48.00718" lon="6.88225">
        <ele>643.51171875</ele>
        <time>2012-05-13T13:21:56Z</time>
      </trkpt>
      <trkpt lat="48.00718" lon="6.88247">
        <ele>644.29296875</ele>
        <time>2012-05-13T13:22:00Z</time>
      </trkpt>
      <trkpt lat="48.00667" lon="6.88361">
        <ele>651.4453125</ele>
        <time>2012-05-13T13:22:19Z</time>
      </trkpt>
      <trkpt lat="48.00662" lon="6.88485">
        <ele>654.875</ele>
        <time>2012-05-13T13:22:38Z</time>
      </trkpt>
      <trkpt lat="48.00652" lon="6.88552">
        <ele>656.85546875</ele>
        <time>2012-05-13T13:22:51Z</time>
      </trkpt>
      <trkpt lat="48.00589" lon="6.88646">
        <ele>659.5234375</ele>
        <time>2012-05-13T13:23:14Z</time>
      </trkpt>
      <trkpt lat="48.00494" lon="6.88752">
        <ele>659.05859375</ele>
        <time>2012-05-13T13:23:45Z</time>
      </trkpt>
      <trkpt lat="48.00469" lon="6.88842">
        <ele>659.1796875</ele>
        <time>2012-05-13T13:24:01Z</time>
      </trkpt>
      <trkpt lat="48.00472" lon="6.89014">
        <ele>661.26171875</ele>
        <time>2012-05-13T13:24:28Z</time>
      </trkpt>
      <trkpt lat="48.00472" lon="6.89175">
        <ele>661.8203125</ele>
        <time>2012-05-13T13:24:56Z</time>
      </trkpt>
      <trkpt lat="48.00469" lon="6.8928">
        <ele>661.1015625</ele>
        <time>2012-05-13T13:25:16Z</time>
      </trkpt>
      <trkpt lat="48.00476" lon="6.8941">
        <ele>667.04296875</ele>
        <time>2012-05-13T13:25:40Z</time>
      </trkpt>
      <trkpt lat="48.00478" lon="6.89559">
        <ele>672.41796875</ele>
        <time>2012-05-13T13:26:06Z</time>
      </trkpt>
      <trkpt lat="48.00461" lon="6.89727">
        <ele>674.05078125</ele>
        <time>2012-05-13T13:26:36Z</time>
      </trkpt>
      <trkpt lat="48.00441" lon="6.89863">
        <ele>676.078125</ele>
        <time>2012-05-13T13:27:01Z</time>
      </trkpt>
      <trkpt lat="48.00422" lon="6.89994">
        <ele>680.9765625</ele>
        <time>2012-05-13T13:27:25Z</time>
      </trkpt>
      <trkpt lat="48.00397" lon="6.90117">
        <ele>684.04296875</ele>
        <time>2012-05-13T13:27:48Z</time>
      </trkpt>
      <trkpt lat="48.00363" lon="6.90278">
        <ele>687.93359375</ele>
        <time>2012-05-13T13:28:18Z</time>
      </trkpt>
      <trkpt lat="48.00359" lon="6.90305">
        <ele>688.34375</ele>
        <time>2012-05-13T13:28:23Z</time>
      </trkpt>
      <trkpt lat="48.00356" lon="6.90432">
        <ele>689.60546875</ele>
        <time>2012-05-13T13:28:43Z</time>
      </trkpt>
      <trkpt lat="48.00339" lon="6.90557">
        <ele>692.5234375</ele>
        <time>2012-05-13T13:29:02Z</time>
      </trkpt>
      <trkpt lat="48.00304" lon="6.90691">
        <ele>695.875</ele>
        <time>2012-05-13T13:29:26Z</time>
      </trkpt>
      <trkpt lat="48.00283" lon="6.90789">
        <ele>699.46484375</ele>
        <time>2012-05-13T13:29:43Z</time>
      </trkpt>
      <trkpt lat="48.00249" lon="6.90923">
        <ele>701.63671875</ele>
        <time>2012-05-13T13:30:06Z</time>
      </trkpt>
      <trkpt lat="48.00223" lon="6.9106">
        <ele>703.94921875</ele>
        <time>2012-05-13T13:30:30Z</time>
      </trkpt>
      <trkpt lat="48.002" lon="6.91186">
        <ele>704.94921875</ele>
        <time>2012-05-13T13:30:52Z</time>
      </trkpt>
      <trkpt lat="48.00176" lon="6.91332">
        <ele>709.04296875</ele>
        <time>2012-05-13T13:31:16Z</time>
      </trkpt>
      <trkpt lat="48.00151" lon="6.91462">
        <ele>709.015625</ele>
        <time>2012-05-13T13:31:38Z</time>
      </trkpt>
      <trkpt lat="48.00142" lon="6.91543">
        <ele>709.7890625</ele>
        <time>2012-05-13T13:31:51Z</time>
      </trkpt>
      <trkpt lat="48.00134" lon="6.91678">
        <ele>711.40625</ele>
        <time>2012-05-13T13:32:12Z</time>
      </trkpt>
      <trkpt lat="48.00127" lon="6.9181">
        <ele>714.20703125</ele>
        <time>2012-05-13T13:32:37Z</time>
      </trkpt>
      <trkpt lat="48.0012" lon="6.91918">
        <ele>716.64453125</ele>
        <time>2012-05-13T13:32:59Z</time>
      </trkpt>
      <trkpt lat="48.00121" lon="6.9203">
        <ele>720.49609375</ele>
        <time>2012-05-13T13:33:23Z</time>
      </trkpt>
      <trkpt lat="48.00151" lon="6.92119">
        <ele>729.375</ele>
        <time>2012-05-13T13:33:38Z</time>
      </trkpt>
      <trkpt lat="48.00166" lon="6.92151">
        <ele>731.6796875</ele>
        <time>2012-05-13T13:33:43Z</time>
      </trkpt>
      <trkpt lat="48.00193" lon="6.92271">
        <ele>731.0859375</ele>
        <time>2012-05-13T13:34:00Z</time>
      </trkpt>
      <trkpt lat="48.00229" lon="6.92389">
        <ele>730.28515625</ele>
        <time>2012-05-13T13:34:18Z</time>
      </trkpt>
      <trkpt lat="48.00285" lon="6.92504">
        <ele>730.13671875</ele>
        <time>2012-05-13T13:34:36Z</time>
      </trkpt>
      <trkpt lat="48.003" lon="6.92616">
        <ele>729.2109375</ele>
        <time>2012-05-13T13:34:52Z</time>
      </trkpt>
      <trkpt lat="48.00326" lon="6.92755">
        <ele>733.05859375</ele>
        <time>2012-05-13T13:35:13Z</time>
      </trkpt>
      <trkpt lat="48.00379" lon="6.92896">
        <ele>736.24609375</ele>
        <time>2012-05-13T13:35:37Z</time>
      </trkpt>
      <trkpt lat="48.00391" lon="6.92943">
        <ele>736.1484375</ele>
        <time>2012-05-13T13:35:45Z</time>
      </trkpt>
      <trkpt lat="48.00438" lon="6.93066">
        <ele>738.5703125</ele>
        <time>2012-05-13T13:36:09Z</time>
      </trkpt>
      <trkpt lat="48.00494" lon="6.9318">
        <ele>739.37109375</ele>
        <time>2012-05-13T13:36:32Z</time>
      </trkpt>
      <trkpt lat="48.00549" lon="6.93301">
        <ele>739.1484375</ele>
        <time>2012-05-13T13:36:55Z</time>
      </trkpt>
      <trkpt lat="48.00579" lon="6.93407">
        <ele>738.44921875</ele>
        <time>2012-05-13T13:37:13Z</time>
      </trkpt>
      <trkpt lat="48.00621" lon="6.93518">
        <ele>739.046875</ele>
        <time>2012-05-13T13:37:31Z</time>
      </trkpt>
      <trkpt lat="48.00702" lon="6.93646">
        <ele>738.56640625</ele>
        <time>2012-05-13T13:37:57Z</time>
      </trkpt>
      <trkpt lat="48.00806" lon="6.93752">
        <ele>742.45703125</ele>
        <time>2012-05-13T13:38:27Z</time>
      </trkpt>
      <trkpt lat="48.00892" lon="6.93821">
        <ele>746.4453125</ele>
        <time>2012-05-13T13:38:52Z</time>
      </trkpt>
      <trkpt lat="48.00986" lon="6.93882">
        <ele>752.984375</ele>
        <time>2012-05-13T13:39:19Z</time>
      </trkpt>
      <trkpt lat="48.01078" lon="6.93969">
        <ele>753.23046875</ele>
        <time>2012-05-13T13:39:45Z</time>
      </trkpt>
      <trkpt lat="48.01163" lon="6.94049">
        <ele>755.109375</ele>
        <time>2012-05-13T13:40:10Z</time>
      </trkpt>
      <trkpt lat="48.01254" lon="6.94107">
        <ele>757.38671875</ele>
        <time>2012-05-13T13:40:35Z</time>
      </trkpt>
      <trkpt lat="48.01321" lon="6.94155">
        <ele>759.703125</ele>
        <time>2012-05-13T13:40:54Z</time>
      </trkpt>
      <trkpt lat="48.01406" lon="6.94241">
        <ele>761.12890625</ele>
        <time>2012-05-13T13:41:21Z</time>
      </trkpt>
      <trkpt lat="48.01491" lon="6.9433">
        <ele>765.59765625</ele>
        <time>2012-05-13T13:41:47Z</time>
      </trkpt>
      <trkpt lat="48.0156" lon="6.94403">
        <ele>768.12109375</ele>
        <time>2012-05-13T13:42:09Z</time>
      </trkpt>
      <trkpt lat="48.01627" lon="6.94472">
        <ele>771.3671875</ele>
        <time>2012-05-13T13:42:30Z</time>
      </trkpt>
      <trkpt lat="48.01694" lon="6.94543">
        <ele>774.5625</ele>
        <time>2012-05-13T13:42:51Z</time>
      </trkpt>
      <trkpt lat="48.01789" lon="6.94641">
        <ele>778.9375</ele>
        <time>2012-05-13T13:43:18Z</time>
      </trkpt>
      <trkpt lat="48.01869" lon="6.94724">
        <ele>781.3359375</ele>
        <time>2012-05-13T13:43:40Z</time>
      </trkpt>
      <trkpt lat="48.01932" lon="6.94802">
        <ele>783.125</ele>
        <time>2012-05-13T13:44:01Z</time>
      </trkpt>
      <trkpt lat="48.01985" lon="6.94902">
        <ele>787.9765625</ele>
        <time>2012-05-13T13:44:24Z</time>
      </trkpt>
      <trkpt lat="48.02022" lon="6.94961">
        <ele>791.2578125</ele>
        <time>2012-05-13T13:44:43Z</time>
      </trkpt>
      <trkpt lat="48.02071" lon="6.95019">
        <ele>792.12109375</ele>
        <time>2012-05-13T13:45:06Z</time>
      </trkpt>
      <trkpt lat="48.02119" lon="6.95089">
        <ele>794.7421875</ele>
        <time>2012-05-13T13:45:31Z</time>
      </trkpt>
      <trkpt lat="48.02141" lon="6.95165">
        <ele>796.05078125</ele>
        <time>2012-05-13T13:45:52Z</time>
      </trkpt>
      <trkpt lat="48.02154" lon="6.95217">
        <ele>797.84375</ele>
        <time>2012-05-13T13:46:06Z</time>
      </trkpt>
      <trkpt lat="48.02183" lon="6.95278">
        <ele>799.98828125</ele>
        <time>2012-05-13T13:46:25Z</time>
      </trkpt>
      <trkpt lat="48.0222" lon="6.95322">
        <ele>801.78125</ele>
        <time>2012-05-13T13:46:45Z</time>
      </trkpt>
      <trkpt lat="48.0226" lon="6.95368">
        <ele>803.65625</ele>
        <time>2012-05-13T13:47:06Z</time>
      </trkpt>
      <trkpt lat="48.02286" lon="6.95426">
        <ele>807.51171875</ele>
        <time>2012-05-13T13:47:26Z</time>
      </trkpt>
      <trkpt lat="48.02303" lon="6.95497">
        <ele>813.96875</ele>
        <time>2012-05-13T13:47:48Z</time>
      </trkpt>
      <trkpt lat="48.02317" lon="6.95555">
        <ele>818.0234375</ele>
        <time>2012-05-13T13:48:05Z</time>
      </trkpt>
      <trkpt lat="48.02348" lon="6.95644">
        <ele>821.48046875</ele>
        <time>2012-05-13T13:48:32Z</time>
      </trkpt>
      <trkpt lat="48.02377" lon="6.95709">
        <ele>826.15625</ele>
        <time>2012-05-13T13:48:54Z</time>
      </trkpt>
      <trkpt lat="48.02399" lon="6.95773">
        <ele>830.5859375</ele>
        <time>2012-05-13T13:49:15Z</time>
      </trkpt>
      <trkpt lat="48.02418" lon="6.95828">
        <ele>836.38671875</ele>
        <time>2012-05-13T13:49:33Z</time>
      </trkpt>
      <trkpt lat="48.02454" lon="6.95895">
        <ele>837.46875</ele>
        <time>2012-05-13T13:49:57Z</time>
      </trkpt>
      <trkpt lat="48.02498" lon="6.95951">
        <ele>836.23046875</ele>
        <time>2012-05-13T13:50:22Z</time>
      </trkpt>
      <trkpt lat="48.02525" lon="6.95972">
        <ele>835.859375</ele>
        <time>2012-05-13T13:50:40Z</time>
      </trkpt>
      <trkpt lat="48.02525" lon="6.95972">
        <ele>835.78515625</ele>
        <time>2012-05-13T13:52:03Z</time>
      </trkpt>
      <trkpt lat="48.02526" lon="6.95972">
        <ele>835.83203125</ele>
        <time>2012-05-13T13:52:20Z</time>
      </trkpt>
      <trkpt lat="48.02532" lon="6.95971">
        <ele>835.99609375</ele>
        <time>2012-05-13T13:52:25Z</time>
      </trkpt>
      <trkpt lat="48.02577" lon="6.95984">
        <ele>839.72265625</ele>
        <time>2012-05-13T13:52:45Z</time>
      </trkpt>
      <trkpt lat="48.02626" lon="6.96007">
        <ele>843.6015625</ele>
        <time>2012-05-13T13:53:04Z</time>
      </trkpt>
      <trkpt lat="48.02681" lon="6.9605">
        <ele>851.5859375</ele>
        <time>2012-05-13T13:53:27Z</time>
      </trkpt>
      <trkpt lat="48.0272" lon="6.96079">
        <ele>854.65234375</ele>
        <time>2012-05-13T13:53:43Z</time>
      </trkpt>
      <trkpt lat="48.02759" lon="6.96105">
        <ele>857.31640625</ele>
        <time>2012-05-13T13:53:59Z</time>
      </trkpt>
      <trkpt lat="48.02794" lon="6.96127">
        <ele>858.30859375</ele>
        <time>2012-05-13T13:54:15Z</time>
      </trkpt>
      <trkpt lat="48.02837" lon="6.96156">
        <ele>862.375</ele>
        <time>2012-05-13T13:54:34Z</time>
      </trkpt>
      <trkpt lat="48.02894" lon="6.96175">
        <ele>861.84765625</ele>
        <time>2012-05-13T13:54:56Z</time>
      </trkpt>
      <trkpt lat="48.0295" lon="6.9619">
        <ele>864.22265625</ele>
        <time>2012-05-13T13:55:18Z</time>
      </trkpt>
      <trkpt lat="48.02986" lon="6.96196">
        <ele>866.046875</ele>
        <time>2012-05-13T13:55:33Z</time>
      </trkpt>
      <trkpt lat="48.03012" lon="6.96203">
        <ele>868.90234375</ele>
        <time>2012-05-13T13:55:45Z</time>
      </trkpt>
      <trkpt lat="48.0304" lon="6.96213">
        <ele>872.02734375</ele>
        <time>2012-05-13T13:55:58Z</time>
      </trkpt>
      <trkpt lat="48.03047" lon="6.96216">
        <ele>872.89453125</ele>
        <time>2012-05-13T13:56:01Z</time>
      </trkpt>
      <trkpt lat="48.03082" lon="6.96234">
        <ele>876.69140625</ele>
        <time>2012-05-13T13:56:17Z</time>
      </trkpt>
      <trkpt lat="48.03132" lon="6.96257">
        <ele>877.609375</ele>
        <time>2012-05-13T13:56:38Z</time>
      </trkpt>
      <trkpt lat="48.03179" lon="6.96285">
        <ele>878.80078125</ele>
        <time>2012-05-13T13:56:57Z</time>
      </trkpt>
      <trkpt lat="48.03234" lon="6.96323">
        <ele>881.234375</ele>
        <time>2012-05-13T13:57:15Z</time>
      </trkpt>
      <trkpt lat="48.0332" lon="6.9639">
        <ele>888.9375</ele>
        <time>2012-05-13T13:57:41Z</time>
      </trkpt>
      <trkpt lat="48.034" lon="6.96468">
        <ele>888.95703125</ele>
        <time>2012-05-13T13:58:06Z</time>
      </trkpt>
      <trkpt lat="48.03482" lon="6.96556">
        <ele>889.58203125</ele>
        <time>2012-05-13T13:58:31Z</time>
      </trkpt>
      <trkpt lat="48.03557" lon="6.96681">
        <ele>892.3984375</ele>
        <time>2012-05-13T13:58:59Z</time>
      </trkpt>
      <trkpt lat="48.03608" lon="6.968">
        <ele>896.8046875</ele>
        <time>2012-05-13T13:59:23Z</time>
      </trkpt>
      <trkpt lat="48.03647" lon="6.9688">
        <ele>899.421875</ele>
        <time>2012-05-13T13:59:43Z</time>
      </trkpt>
      <trkpt lat="48.03656" lon="6.96926">
        <ele>903.30078125</ele>
        <time>2012-05-13T13:59:55Z</time>
      </trkpt>
      <trkpt lat="48.03665" lon="6.96935">
        <ele>902.875</ele>
        <time>2012-05-13T14:00:10Z</time>
      </trkpt>
      <trkpt lat="48.03665" lon="6.96936">
        <ele>902.9375</ele>
        <time>2012-05-13T14:00:53Z</time>
      </trkpt>
      <trkpt lat="48.0369" lon="6.9698">
        <ele>904.0390625</ele>
        <time>2012-05-13T14:01:10Z</time>
      </trkpt>
      <trkpt lat="48.0372" lon="6.9702">
        <ele>904.16796875</ele>
        <time>2012-05-13T14:01:31Z</time>
      </trkpt>
      <trkpt lat="48.03751" lon="6.97056">
        <ele>905.49609375</ele>
        <time>2012-05-13T14:01:53Z</time>
      </trkpt>
      <trkpt lat="48.03776" lon="6.97101">
        <ele>908.60546875</ele>
        <time>2012-05-13T14:02:15Z</time>
      </trkpt>
      <trkpt lat="48.03799" lon="6.97137">
        <ele>909.58984375</ele>
        <time>2012-05-13T14:02:34Z</time>
      </trkpt>
      <trkpt lat="48.03799" lon="6.97144">
        <ele>909.83203125</ele>
        <time>2012-05-13T14:02:49Z</time>
      </trkpt>
      <trkpt lat="48.038" lon="6.97144">
        <ele>909.9296875</ele>
        <time>2012-05-13T14:04:10Z</time>
      </trkpt>
      <trkpt lat="48.038" lon="6.97144">
        <ele>909.921875</ele>
        <time>2012-05-13T14:04:15Z</time>
      </trkpt>
    </trkseg>
  </trk>
</gpx>